GFSSE_700_spd_000.txt.gz
Wind_Speed
15 16 13 12 10 7 6 4 1 3 4 5 4 6 8 10 13 16 16 12 10 12 13 13 12 11 10 11 11 10 10 7 6 6 5 6 8 10 12 11 13 14 16
14 15 15 11 10 7 6 4 2 2 4 4 4 6 7 10 14 13 10 8 11 14 14 13 10 8 8 8 8 9 10 10 10 8 5 5 6 9 10 12 13 14 16
15 15 12 11 10 7 6 4 2 3 5 4 6 7 8 12 11 9 8 11 15 15 15 14 13 11 11 11 12 13 12 12 10 9 8 3 4 6 9 13 12 13 14
11 10 11 11 9 8 6 3 3 5 5 7 8 9 11 9 7 8 11 13 14 15 15 15 15 15 14 14 14 14 13 11 11 11 10 6 4 7 8 12 11 14 16
10 13 12 11 9 7 4 2 5 5 7 9 10 9 6 6 7 9 11 12 13 14 16 16 17 17 17 17 16 15 15 12 11 10 10 8 7 7 8 8 13 17 15
16 15 12 11 9 6 3 5 5 7 9 10 6 3 5 7 8 9 11 13 13 14 15 16 17 18 19 18 18 16 16 14 10 9 9 9 9 8 9 11 11 12 15
17 14 12 10 7 6 5 5 7 9 7 2 2 5 6 6 8 10 12 13 15 17 17 18 19 19 18 18 17 16 14 14 12 10 10 10 9 10 11 13 13 13 12
13 13 11 8 6 4 6 7 5 1 1 3 5 5 6 8 9 11 13 15 17 17 17 20 21 21 21 20 20 19 17 16 14 11 12 12 12 12 13 13 14 16 13
15 12 9 6 4 5 4 3 3 3 3 4 5 6 7 8 10 12 14 16 16 15 16 20 22 21 21 22 22 21 19 18 17 15 14 14 14 15 17 18 16 16 18
13 9 5 2 2 3 4 5 5 4 5 6 6 6 6 7 9 12 14 15 17 17 17 18 21 21 21 21 23 24 21 19 20 19 17 16 16 17 17 19 20 18 20
8 5 2 2 4 6 8 6 6 6 5 6 5 5 6 8 10 11 13 15 18 20 23 22 23 22 20 22 23 23 23 22 22 22 21 19 17 17 18 19 21 20 20
5 2 1 6 9 9 7 7 6 5 4 3 5 7 8 12 15 15 16 16 18 21 23 24 25 24 22 22 26 28 26 25 26 25 24 21 21 20 18 18 21 22 22
2 3 7 8 9 7 6 5 3 1 0 4 6 9 11 14 17 17 18 19 20 21 24 27 28 26 25 26 30 29 28 28 28 26 26 25 24 24 24 21 20 22 23
4 8 6 4 9 6 4 2 2 3 5 7 10 12 14 15 18 19 19 20 22 25 29 29 29 29 31 33 34 30 31 30 29 28 26 28 28 27 29 28 24 22 25
5 6 7 6 5 4 2 4 6 8 10 11 14 15 17 17 20 20 19 22 26 29 32 32 34 35 38 39 38 38 35 31 32 32 30 30 31 32 31 32 30 28 25
7 5 4 5 8 8 9 9 8 11 14 14 16 17 18 19 21 21 22 27 33 34 35 36 37 39 44 43 44 42 40 38 37 34 33 33 34 36 35 34 32 30 30
4 2 5 9 13 15 14 12 11 6 14 17 17 17 18 20 22 26 31 33 35 36 37 39 41 44 47 48 47 46 44 44 43 39 38 37 37 38 39 38 37 35 31
4 7 10 17 22 26 20 18 16 26 19 17 16 17 20 22 25 30 32 33 33 36 42 44 46 48 51 50 49 46 45 40 39 39 40 41 40 40 41 41 41 40 38
6 10 15 22 28 27 19 21 17 13 14 17 18 18 23 23 27 30 30 34 34 43 47 46 49 52 52 51 48 45 40 38 38 37 39 41 44 46 45 45 45 43 43
13 13 17 26 23 21 22 17 17 14 14 15 16 22 28 30 31 34 36 39 43 43 46 49 49 51 53 53 48 46 44 41 42 41 41 45 47 48 48 48 48 48 47
12 13 15 17 18 20 17 18 18 18 17 18 24 25 30 31 35 36 38 41 45 47 50 53 55 53 50 51 49 47 46 46 47 49 48 46 47 49 50 50 52 52 51
13 11 13 15 16 14 16 15 15 19 23 25 26 29 34 33 36 40 44 47 49 52 55 54 51 51 50 50 50 51 53 53 53 50 48 45 44 47 50 52 53 52 53
12 14 15 15 18 19 18 20 21 21 21 24 29 33 37 40 42 46 51 51 54 51 50 48 50 51 50 52 53 52 51 52 51 48 45 43 43 45 46 48 52 55 55
17 15 16 19 18 17 16 21 23 25 29 32 37 43 47 50 51 53 55 53 49 48 48 52 55 58 55 45 42 42 43 46 49 51 49 44 45 48 49 50 52 56 58
12 8 13 13 14 20 23 29 31 34 38 42 46 48 50 52 54 53 51 50 51 53 55 54 50 48 47 46 44 43 42 43 45 47 48 50 55 55 51 48 51 53 54
11 13 13 14 19 23 30 35 38 40 42 46 50 48 52 51 50 49 49 49 47 47 47 43 47 50 37 41 42 44 45 45 47 50 51 49 44 40 46 47 46 44 43

GFSSE_700_spd_003.txt.gz
Wind_Speed
22 19 16 16 14 11 10 8 4 4 4 5 6 6 7 9 13 13 11 11 12 13 14 13 12 12 10 8 8 9 10 9 7 6 7 8 10 10 10 12 13 13 11
22 21 18 15 14 10 9 6 3 3 3 3 4 5 8 11 12 9 9 11 12 13 13 12 12 11 10 8 8 9 9 8 7 6 5 8 10 11 9 11 13 14 11
22 20 17 15 12 9 8 5 2 1 2 3 6 7 8 9 6 7 9 11 13 13 14 13 13 14 13 12 12 11 10 8 6 6 5 5 9 12 11 11 13 14 13
20 17 15 15 12 9 7 5 2 1 2 5 7 7 6 6 7 9 12 12 13 14 15 15 16 16 15 14 13 13 12 10 8 7 6 5 9 12 8 9 12 12 14
16 14 14 14 11 8 7 4 1 0 3 7 8 5 5 6 8 10 12 12 13 14 14 15 16 16 15 15 16 15 14 12 9 9 9 7 8 9 9 10 12 14 14
17 15 14 13 10 8 7 3 2 2 5 6 3 4 5 6 8 11 11 12 13 12 12 14 15 15 15 15 15 15 15 15 13 11 11 10 9 10 11 12 13 14 14
19 18 14 12 11 9 6 4 2 4 2 4 5 6 6 7 9 10 11 11 12 12 13 16 18 17 17 17 16 16 16 15 15 14 13 14 12 13 13 15 16 16 16
17 17 16 13 10 7 5 3 2 2 5 6 6 6 8 9 8 9 10 12 12 13 15 18 20 20 19 19 19 19 18 18 16 15 16 15 14 14 16 17 17 17 18
19 16 13 10 7 5 4 4 5 6 6 6 7 7 7 7 7 9 10 11 13 14 15 17 19 19 18 17 19 20 19 18 17 17 17 17 16 15 15 18 21 21 20
17 14 10 6 4 5 7 8 7 7 8 8 7 6 5 5 5 7 8 10 12 14 16 18 20 22 21 18 17 18 20 21 20 19 20 20 18 16 15 17 19 21 22
13 9 5 6 9 11 11 9 9 9 8 7 5 3 2 2 4 6 8 10 12 14 16 20 22 23 24 22 20 22 23 24 21 20 20 20 20 20 18 17 19 21 22
9 4 4 10 14 13 11 11 9 7 6 4 2 1 2 3 6 8 10 12 15 18 20 22 24 25 27 25 24 26 25 23 22 22 22 21 21 22 22 21 20 20 23
6 5 9 13 13 13 12 10 7 5 3 1 3 5 6 9 10 13 14 14 17 19 22 25 27 28 29 29 30 30 29 27 24 23 22 23 24 24 25 25 26 26 23
8 9 10 12 12 10 9 8 7 8 6 5 7 10 12 12 14 17 19 18 19 21 26 29 30 30 31 34 34 34 32 30 29 28 27 28 28 28 29 28 28 29 31
9 10 10 11 11 10 10 9 8 7 7 10 12 12 13 13 15 19 19 19 21 25 28 31 32 32 35 37 38 39 39 38 36 34 33 35 35 32 30 31 33 32 31
10 11 12 11 14 14 13 13 12 9 10 16 15 17 18 12 16 20 20 23 24 29 33 33 34 37 40 40 43 44 44 45 43 41 39 37 36 34 34 35 35 35 36
9 10 11 13 15 16 16 14 14 11 13 22 23 21 20 16 18 20 22 25 32 33 37 38 38 42 43 45 46 45 45 45 45 42 40 37 36 35 35 37 38 39 38
13 12 13 15 16 19 17 20 20 16 13 20 15 17 17 18 20 24 28 34 36 38 39 41 44 44 47 48 48 48 47 47 46 44 44 43 39 37 36 36 38 41 42
13 14 16 18 19 20 23 20 6 7 11 12 13 15 18 20 27 31 36 35 38 41 42 43 47 49 51 51 51 51 49 48 46 46 46 45 45 45 45 44 41 41 44
8 11 15 18 19 15 14 7 11 10 10 14 17 21 23 29 31 34 36 36 37 40 42 47 49 52 54 54 52 49 48 49 50 48 47 48 50 50 50 50 49 47 45
10 11 13 11 14 15 10 13 13 12 15 17 20 23 25 27 30 32 35 39 43 47 49 50 50 48 49 50 52 54 55 54 53 53 53 52 51 49 48 46 45 46 49
9 8 11 12 10 10 14 18 19 15 14 17 20 25 30 34 38 41 43 46 48 49 49 48 48 49 51 54 55 58 60 57 56 52 53 51 51 47 45 43 42 41 44
7 6 6 9 15 18 16 15 17 21 22 25 28 32 36 40 43 44 45 47 46 47 49 50 52 53 54 56 56 56 53 54 54 49 45 45 44 45 46 47 46 45 46
7 8 11 13 12 11 11 15 21 25 29 32 35 38 41 43 44 45 45 45 46 48 49 48 48 49 50 49 47 46 36 37 41 45 42 41 40 41 42 44 47 49 52
17 11 10 8 7 11 17 21 25 30 34 37 38 41 43 44 44 43 43 43 43 44 44 44 44 42 41 40 39 37 41 39 40 44 47 46 44 42 44 46 48 46 43
11 10 14 14 13 16 18 25 30 35 38 39 41 43 43 43 42 43 43 43 43 43 43 42 40 36 43 46 43 46 38 37 40 45 44 42 41 43 43 43 43 42 41

GFSSE_700_spd_006.txt.gz
Wind_Speed
22 20 18 19 17 14 13 9 6 5 5 3 2 3 6 10 11 9 8 10 10 12 13 13 12 12 10 9 7 8 9 7 6 7 8 9 10 11 13 11 12 12 13
22 21 19 19 17 15 13 9 5 4 3 1 3 5 7 10 9 8 9 10 12 12 13 14 13 12 11 9 8 8 8 8 8 7 7 9 11 12 11 11 12 12 12
20 20 20 18 15 13 11 7 4 3 1 2 4 6 7 7 7 8 10 11 12 13 14 13 12 11 11 11 11 10 9 8 8 8 8 8 12 15 13 11 11 13 11
18 17 18 18 15 12 9 6 4 2 1 2 4 4 4 5 6 8 10 12 13 13 13 13 13 13 13 13 13 13 12 10 9 9 9 9 11 12 13 13 12 11 10
21 20 16 16 14 12 9 7 4 2 1 3 3 3 5 5 6 9 9 10 11 11 12 13 14 13 12 12 12 12 14 14 11 10 11 10 11 10 11 14 16 15 14
21 18 16 14 13 12 9 7 4 1 3 2 3 4 4 5 8 8 8 10 10 11 12 14 15 15 13 11 11 11 12 13 14 13 13 13 13 15 13 14 16 17 17
20 18 15 12 12 11 9 6 3 2 1 5 6 5 5 8 7 7 8 9 9 10 11 12 13 14 14 14 13 14 14 12 12 13 14 14 13 14 16 17 17 17 18
15 18 19 15 12 10 7 5 3 5 7 8 7 7 8 7 6 6 7 8 9 9 11 13 15 16 16 17 17 17 17 17 15 13 13 14 15 15 15 17 19 18 19
19 16 16 14 12 10 7 6 9 10 10 10 9 9 8 6 5 4 5 6 7 8 10 13 15 18 19 20 18 17 18 18 17 16 16 16 16 16 16 16 18 18 18
19 17 13 11 10 8 10 11 11 11 11 11 11 10 7 5 2 1 3 5 7 8 13 16 18 22 23 23 23 19 19 21 20 17 18 17 18 19 18 17 19 20 19
18 15 13 12 11 13 13 13 12 12 12 11 10 9 7 4 2 3 5 7 12 15 15 17 22 24 26 26 22 21 22 20 20 20 19 19 19 19 21 21 19 19 21
15 12 11 13 14 15 15 13 12 11 11 11 11 9 7 5 4 4 6 9 15 16 17 19 24 27 28 27 26 25 23 22 21 19 21 20 20 20 20 23 25 24 24
12 10 13 17 15 13 13 13 13 13 11 10 9 8 9 9 7 6 8 12 15 17 19 22 26 29 30 27 29 28 27 27 26 25 26 24 25 25 26 26 27 27 28
10 12 15 14 13 14 13 11 9 8 7 7 8 11 14 14 12 8 11 14 15 17 22 25 29 33 31 32 33 34 34 32 30 29 32 29 30 30 30 30 29 30 31
12 12 13 13 13 12 12 10 9 10 7 8 14 19 21 22 19 15 11 14 18 23 26 28 33 34 34 36 38 38 40 40 38 36 36 36 34 32 32 32 33 33 34
13 14 14 13 12 12 13 13 12 10 5 13 21 21 23 26 31 11 12 18 23 27 32 35 35 37 39 39 40 42 44 45 44 42 40 42 40 35 34 33 32 35 37
11 12 12 12 13 14 14 16 15 12 13 13 28 36 27 25 22 12 14 19 28 33 34 36 39 41 40 42 44 45 45 47 46 45 40 39 42 44 39 37 35 35 37
11 12 13 13 14 15 18 21 20 18 14 28 31 24 22 22 16 16 24 30 34 35 37 39 40 41 46 46 47 47 46 44 47 45 45 43 43 41 45 43 39 39 38
16 16 15 15 16 19 18 17 8 7 11 17 16 15 17 21 23 27 29 31 34 37 39 41 44 46 47 48 46 45 46 46 47 47 50 51 50 49 45 52 46 44 46
16 14 15 15 15 8 7 3 3 5 7 10 12 15 18 20 22 26 31 35 38 41 42 43 46 47 47 50 46 46 48 50 50 49 48 49 50 54 51 53 54 51 54
14 14 13 8 9 6 3 5 2 4 9 13 15 17 19 23 28 31 35 38 38 42 43 45 44 44 47 50 48 49 49 48 41 51 49 50 51 55 54 54 53 55 53
16 11 6 8 5 3 4 4 7 12 15 17 19 22 25 29 33 36 38 40 42 42 44 45 45 45 45 52 52 51 52 46 29 31 48 54 54 56 52 49 51 48 49
10 4 4 3 0 2 6 9 12 14 17 21 25 29 32 34 36 38 40 41 42 43 43 44 46 46 46 47 54 53 52 49 52 49 40 44 44 44 45 47 49 50 52
5 7 4 7 6 8 11 12 14 18 23 26 30 33 36 38 39 39 40 40 41 40 41 43 44 44 47 45 47 46 47 46 47 47 37 35 41 40 42 45 48 48 47
4 3 7 11 12 10 10 13 19 24 27 30 33 36 36 37 39 40 40 41 40 40 41 41 44 45 44 44 40 42 40 42 37 33 36 30 31 29 36 38 40 41 41
4 5 8 10 11 13 17 21 24 28 30 34 40 39 39 40 39 39 40 39 40 40 41 41 41 39 35 38 46 39 41 35 34 29 30 33 33 29 27 35 38 41 42

GFSSE_700_spd_009.txt.gz
Wind_Speed
21 22 20 19 18 17 15 11 7 6 5 3 1 3 5 8 7 6 7 9 10 12 13 14 14 13 11 9 8 10 12 12 11 11 11 10 11 10 12 11 12 11 12
22 22 20 20 17 17 15 11 7 5 4 3 1 3 5 5 6 7 8 10 11 13 13 12 12 12 12 13 12 12 11 11 11 12 12 14 13 11 11 11 12 14 12
23 22 20 17 15 17 14 10 7 5 3 2 2 4 3 5 7 8 9 11 11 11 12 12 13 12 12 11 12 12 12 11 11 11 10 10 22 12 11 12 12 13 14
23 22 17 16 18 17 13 9 7 4 3 1 2 2 4 6 7 8 9 10 10 10 11 12 12 11 11 11 12 13 13 12 11 10 11 6 17 12 13 14 14 13 13
24 24 19 21 19 18 13 8 6 4 3 1 0 5 5 6 8 8 8 9 9 10 11 11 11 12 12 13 13 14 14 14 14 13 13 10 15 14 13 14 15 15 16
23 25 28 20 18 14 11 8 6 5 3 1 5 6 6 8 8 8 7 8 8 8 9 11 13 14 15 14 15 14 14 14 14 13 15 14 14 13 13 14 15 16 18
26 27 24 19 18 12 11 9 7 5 3 6 8 7 8 8 7 6 6 7 7 8 10 12 14 15 16 17 17 17 15 13 13 13 15 14 16 16 14 13 14 15 17
22 23 21 15 13 15 11 8 7 5 7 9 9 9 9 8 6 5 5 5 5 7 10 12 14 16 18 19 19 18 16 15 15 14 14 16 17 17 16 15 15 15 15
26 24 17 14 14 14 10 9 8 9 10 10 10 10 9 7 5 3 2 3 6 9 12 13 15 18 21 22 22 20 18 16 14 14 13 17 18 19 19 16 15 15 16
11 17 16 12 11 9 9 10 11 12 12 11 10 10 10 7 4 2 2 4 8 12 14 15 17 20 24 25 25 21 21 18 18 14 16 17 19 19 20 21 19 17 17
14 15 15 12 11 11 10 13 11 9 10 11 12 12 9 7 5 5 4 7 12 14 16 17 19 22 25 28 32 27 26 21 19 17 19 16 18 20 20 20 21 22 21
12 11 11 13 13 12 10 10 10 13 13 12 11 9 10 7 6 7 8 8 12 15 18 20 22 24 27 28 28 30 27 25 24 23 24 19 22 22 22 24 25 25 26
12 10 10 10 11 12 12 13 12 11 9 7 6 7 8 11 12 13 13 12 13 16 16 21 26 26 29 31 30 29 30 27 27 28 31 27 25 25 27 27 28 28 28
9 9 12 13 13 13 15 13 10 9 7 7 6 8 11 16 19 19 25 22 16 16 19 23 26 31 35 35 33 33 33 35 34 32 35 36 31 30 29 28 29 30 30
8 10 14 14 13 13 13 12 12 11 8 5 8 13 15 15 19 23 28 31 30 23 22 25 30 33 35 37 37 41 40 41 42 42 37 40 41 34 31 28 27 30 32
11 12 12 13 12 12 11 11 11 11 9 11 17 21 21 22 23 25 21 18 16 19 21 28 33 35 36 39 41 43 46 46 47 45 39 35 39 41 36 32 31 31 32
11 12 11 10 9 8 10 12 12 8 19 23 25 29 25 24 21 26 15 11 19 26 26 31 36 39 42 45 47 49 48 44 41 40 40 35 29 33 36 44 40 36 35
11 12 11 9 8 10 10 15 14 17 12 16 26 25 29 24 18 21 22 23 25 29 33 37 41 44 45 45 48 49 46 41 38 37 31 25 29 33 37 42 45 43 39
9 9 10 10 11 14 16 16 12 9 8 10 14 16 16 16 17 21 25 27 29 34 39 42 42 42 46 47 46 46 41 42 37 38 40 34 28 34 35 42 46 45 43
14 15 14 15 15 16 12 11 8 8 8 8 9 12 13 16 20 24 30 30 33 37 41 43 44 44 45 46 46 48 45 40 41 35 29 26 30 34 39 43 48 46 45
17 18 17 16 14 13 10 7 6 6 7 8 10 14 17 21 24 26 31 35 38 40 42 44 46 47 43 43 47 49 49 45 31 28 24 26 32 38 41 50 54 54 58
19 18 16 13 12 10 8 7 7 8 10 11 15 18 23 25 30 33 36 37 39 40 41 43 44 45 43 43 44 49 50 48 40 31 37 40 42 37 33 41 53 55 56
22 19 14 11 11 10 7 7 9 12 12 15 21 26 29 30 34 36 37 38 39 40 41 42 43 45 43 44 42 45 45 42 47 44 44 44 41 38 36 42 46 49 51
17 14 10 10 9 7 9 12 14 10 14 22 25 29 33 38 37 36 37 38 39 39 40 40 40 45 44 45 46 43 44 45 44 50 35 28 25 30 31 36 33 39 41
15 10 10 8 7 10 13 15 18 19 23 28 31 34 38 38 37 37 38 38 39 39 39 41 43 40 43 44 45 44 44 42 38 31 34 28 26 25 26 25 26 33 30
12 9 11 12 12 12 15 19 22 25 28 28 36 38 39 37 37 38 38 38 38 38 37 37 39 40 42 38 38 39 35 26 26 28 28 28 26 25 24 26 26 27 30

GFSSE_700_spd_012.txt.gz
Wind_Speed
14 18 21 21 19 20 18 14 12 10 8 7 3 4 5 5 6 8 8 8 9 11 13 14 14 14 14 13 12 12 12 11 12 12 11 10 8 8 9 10 10 9 10
12 21 22 21 20 21 17 14 12 9 6 6 3 3 4 5 7 8 8 9 11 12 13 14 14 14 15 15 15 15 14 13 12 13 12 10 5 7 9 11 11 10 10
13 23 24 22 21 21 16 13 11 8 6 4 3 3 5 7 7 7 9 10 11 13 13 13 14 15 15 16 16 17 17 15 13 10 12 8 10 17 13 12 13 11 9
22 25 23 22 21 19 16 13 10 8 7 3 2 4 7 7 8 9 10 10 11 11 12 12 14 15 16 16 16 17 16 16 13 11 9 11 15 13 13 13 13 13 12
27 28 26 23 21 20 18 12 10 7 5 1 2 7 7 8 9 10 10 10 10 10 11 12 14 14 14 15 16 16 15 15 16 15 9 11 15 14 13 12 12 13 15
25 28 27 25 24 22 16 13 9 6 3 1 6 8 9 10 9 9 9 8 8 9 9 11 13 14 15 16 17 17 15 14 15 13 15 12 13 14 13 12 12 13 14
25 29 28 25 23 18 14 11 9 6 4 6 9 8 10 9 8 8 7 6 5 6 9 11 12 14 16 18 18 20 16 14 14 15 15 13 14 14 14 13 12 12 11
22 30 34 21 26 11 15 9 8 6 5 8 9 9 10 8 7 7 5 3 4 8 10 11 13 14 17 20 20 20 17 15 14 11 15 14 15 14 14 14 14 14 13
20 22 26 19 18 15 8 9 8 6 7 8 9 10 10 8 6 5 2 2 6 8 11 13 14 15 18 19 19 22 20 19 15 10 15 16 17 18 16 14 14 14 15
13 15 19 15 15 15 13 11 7 7 8 10 10 11 10 8 5 3 2 6 9 11 13 14 15 16 19 21 25 25 23 20 19 20 18 16 17 20 19 18 16 15 14
23 15 13 10 12 13 10 6 6 8 10 10 11 10 7 5 5 5 8 9 12 15 16 17 18 19 21 21 26 30 29 23 22 25 22 20 20 21 22 21 21 20 19
14 14 9 9 9 8 6 8 8 8 8 9 8 7 3 6 8 10 12 13 17 17 17 20 18 21 22 25 28 28 27 25 24 27 24 27 25 26 25 25 24 24 24
10 11 9 6 5 7 8 9 9 9 9 8 6 5 4 8 10 14 15 19 19 24 24 24 21 23 26 28 31 32 27 27 29 31 33 32 32 30 29 27 28 26 25
8 5 4 7 7 6 9 7 9 11 11 7 5 8 11 15 14 14 17 20 22 26 28 28 23 19 29 31 34 35 36 36 36 39 41 36 35 34 31 29 29 27 25
4 4 7 8 8 7 8 11 8 7 6 5 9 14 18 17 15 18 23 24 28 28 33 25 24 27 29 31 34 38 39 40 43 42 43 38 34 35 37 33 33 31 29
6 7 8 9 9 9 8 6 6 5 4 12 20 19 20 23 18 22 18 25 24 25 18 20 26 28 32 35 40 43 45 45 44 40 41 42 37 33 35 36 36 34 33
7 9 10 9 7 5 6 7 7 11 16 20 26 30 27 24 17 16 16 16 18 19 20 22 27 32 35 37 39 41 43 44 44 37 38 35 33 35 36 41 44 42 39
9 11 8 7 7 7 7 6 12 12 14 17 17 17 18 17 16 17 17 18 22 27 30 32 35 37 39 42 44 44 44 43 38 39 34 35 34 30 39 44 41 49 45
6 7 7 8 8 10 11 20 10 8 9 10 12 13 13 14 16 20 21 22 24 29 33 37 38 40 41 41 41 41 45 43 39 36 33 33 28 25 33 39 47 50 49
6 7 9 11 11 12 13 13 8 10 9 10 10 11 13 13 17 22 27 28 30 33 36 38 39 41 41 43 43 42 44 44 41 37 33 30 31 33 36 40 47 48 52
12 13 15 16 13 14 16 13 12 10 10 9 10 10 12 17 21 24 26 32 35 36 37 38 39 41 42 42 43 43 43 45 42 36 42 40 39 37 38 41 46 50 57
20 18 18 18 15 13 15 14 14 11 11 13 13 16 18 23 27 31 35 34 35 37 37 38 39 41 42 42 42 43 46 47 46 46 40 37 37 40 41 47 51 50 53
23 22 21 19 13 16 12 11 13 14 18 19 18 19 25 27 30 34 36 37 36 35 36 37 38 41 43 42 41 43 46 48 51 48 47 45 46 48 47 41 47 47 45
27 24 21 20 17 11 17 14 14 19 22 20 23 25 28 32 33 35 35 34 34 36 37 38 38 39 40 42 42 43 44 47 50 51 47 48 41 38 31 31 36 37 39
24 20 25 23 16 16 15 15 18 18 23 25 26 28 29 31 35 34 33 33 35 36 37 37 38 39 39 39 42 44 45 44 43 42 51 46 39 32 28 27 32 35 34
23 26 24 20 18 17 18 18 18 22 28 28 31 33 34 37 35 33 33 36 37 37 37 36 37 39 41 42 41 42 38 39 39 40 39 38 33 31 25 26 30 31 34

GFSSE_700_spd_015.txt.gz
Wind_Speed
18 23 24 24 23 24 22 19 17 15 12 9 6 5 5 6 8 8 9 9 10 10 12 14 14 15 15 15 14 13 12 10 9 8 8 7 7 9 11 10 8 9 9
17 19 21 23 23 24 22 19 17 14 12 9 6 5 5 7 8 9 10 10 11 12 13 14 15 16 16 16 16 15 13 13 11 11 8 6 6 10 11 9 9 9 8
19 20 22 23 24 25 22 19 17 14 12 8 6 4 6 7 9 10 11 11 11 12 13 14 15 15 15 16 17 17 17 15 16 14 12 11 11 12 12 10 10 9 8
10 25 30 28 26 24 20 17 15 13 11 7 4 6 8 9 10 11 11 11 11 11 12 12 13 14 15 16 17 16 16 15 17 15 12 12 13 12 11 11 11 10 8
21 31 30 28 27 23 19 17 16 13 9 5 5 9 9 10 11 11 10 9 10 11 12 13 13 14 14 14 15 16 15 16 14 14 9 8 9 11 11 11 11 11 11
23 32 33 32 29 23 20 17 14 12 9 5 9 10 11 10 9 9 8 8 8 10 10 10 11 12 13 14 15 16 16 17 14 11 10 7 6 8 9 9 9 8 9
33 34 34 32 29 21 23 21 17 10 6 7 11 11 11 10 9 8 7 6 7 8 8 8 8 9 12 14 14 15 14 13 17 18 15 7 9 10 11 10 10 9 8
25 33 35 30 25 22 29 26 14 7 6 10 11 11 12 9 8 6 4 4 6 7 9 10 10 9 10 13 14 16 15 15 15 15 18 16 14 11 11 12 12 11 10
15 22 29 24 25 8 29 19 8 5 8 12 12 12 12 9 6 3 2 4 7 9 12 13 13 13 14 15 14 16 19 20 20 17 16 17 17 15 15 12 12 12 13
16 19 24 22 17 32 13 10 7 7 11 12 12 12 9 6 3 1 3 7 9 12 15 16 17 17 15 14 17 20 22 21 21 20 20 19 18 18 19 19 17 15 14
10 8 17 28 21 14 7 7 7 9 9 9 8 8 6 4 3 3 5 7 10 12 15 17 21 20 19 16 17 23 23 21 22 21 22 25 24 23 22 22 22 22 19
15 16 18 22 20 11 8 8 8 8 8 8 8 7 6 6 8 7 8 9 12 15 14 19 27 27 30 23 20 23 23 21 22 24 24 27 30 30 26 24 24 25 25
19 18 14 11 10 8 7 9 8 8 8 7 7 7 8 9 9 9 10 14 18 19 23 31 31 33 30 27 28 29 28 28 29 32 33 31 31 31 29 26 25 24 25
13 12 12 8 7 8 7 7 6 5 5 4 5 9 10 10 11 13 12 16 22 25 26 31 29 30 23 27 29 31 33 33 34 35 34 34 32 29 32 30 29 27 27
8 8 9 9 8 7 6 4 4 5 4 3 10 11 12 13 15 15 17 20 20 21 25 22 20 21 26 28 29 32 34 35 36 37 37 36 36 36 33 32 33 30 29
7 10 12 10 8 5 4 4 4 5 4 10 14 16 16 17 22 23 23 18 17 18 20 19 22 26 27 28 31 34 36 37 35 34 36 35 37 36 36 37 39 40 37
8 10 11 7 5 4 2 2 4 8 11 15 18 22 24 22 20 19 16 17 19 21 23 24 26 28 30 31 33 36 37 37 36 36 34 35 34 36 35 37 41 43 43
7 9 8 6 4 4 5 5 11 5 7 9 14 15 16 16 16 16 16 19 23 26 28 29 31 34 35 36 35 34 36 37 35 35 35 35 37 39 39 41 43 47 48
10 10 7 8 8 7 8 8 10 8 8 9 11 10 12 13 15 15 16 19 23 26 27 30 33 35 33 32 32 33 35 36 35 35 36 36 34 36 39 41 45 47 51
7 7 6 7 8 9 10 9 11 9 9 6 10 9 11 11 14 16 18 21 24 27 30 33 34 31 31 33 33 33 35 38 38 39 39 38 37 36 37 40 45 50 53
7 7 10 11 11 13 13 15 14 13 9 9 10 11 11 13 16 20 24 25 28 31 32 31 31 32 33 33 34 35 35 37 39 41 42 42 40 38 38 42 47 51 54
9 10 14 14 16 18 21 15 13 11 11 14 13 11 11 16 20 21 21 28 30 29 28 29 32 33 34 35 36 37 40 40 41 43 44 42 45 44 40 41 47 52 55
15 18 19 19 19 23 22 16 17 15 15 14 15 15 18 21 24 26 32 32 31 29 29 31 32 34 35 35 38 40 43 46 47 48 47 47 45 41 40 43 44 45 46
25 25 24 21 22 21 18 17 18 18 19 19 22 20 24 28 29 35 37 37 33 30 32 33 34 35 35 36 38 40 42 44 47 50 49 46 42 42 40 32 34 39 42
30 26 25 25 27 18 19 18 17 19 19 21 24 26 28 31 33 39 35 37 31 31 32 34 35 34 35 37 40 42 42 43 42 43 46 44 44 41 31 27 25 35 39
29 27 29 31 26 18 20 18 18 20 20 23 26 29 32 34 37 40 36 35 32 32 33 34 35 36 38 39 40 39 41 43 40 40 40 40 41 36 31 32 34 30 34

GFSSE_700_spd_018.txt.gz
Wind_Speed
12 22 27 28 27 26 24 22 20 17 15 11 7 5 5 7 7 7 9 10 12 12 12 12 13 13 12 11 10 10 12 11 10 8 6 4 3 7 9 6 5 5 6
11 25 25 24 25 26 24 21 19 18 15 11 7 5 6 7 8 9 10 11 11 11 12 12 12 11 11 11 10 12 13 12 11 8 6 5 6 8 7 8 7 7 7
19 22 21 26 24 24 25 22 20 17 15 11 8 6 7 8 9 10 10 11 11 11 9 10 11 12 12 13 13 14 13 13 12 9 8 6 7 8 8 8 7 7 7
22 22 29 30 28 29 26 25 22 17 15 11 8 8 9 10 11 11 10 9 8 8 9 10 11 12 13 14 14 14 13 13 12 12 10 11 8 7 8 9 8 7 7
24 27 31 30 33 33 28 24 22 18 15 10 8 10 10 11 11 9 8 8 8 8 9 9 10 11 12 13 14 14 15 16 15 14 13 12 10 9 7 7 8 8 7
27 30 31 36 34 32 28 24 21 17 12 8 10 11 11 12 11 9 8 8 7 7 8 9 9 10 11 12 13 17 17 15 14 13 9 8 8 9 9 9 9 9 8
30 36 39 36 34 30 28 27 21 19 16 10 12 11 13 11 9 7 6 5 5 6 7 8 9 9 9 10 12 14 16 17 16 16 14 9 8 9 9 9 9 10 10
39 35 35 35 33 30 34 29 28 22 13 15 14 14 13 11 9 7 4 1 2 4 7 8 10 10 11 11 11 15 18 18 16 14 15 14 14 12 10 10 11 12 12
26 27 32 36 35 40 43 30 21 10 12 16 15 14 13 10 8 6 3 4 3 5 9 12 13 14 15 15 12 14 18 20 20 16 14 15 15 16 17 16 14 15 15
23 18 18 19 14 23 33 25 16 10 13 15 13 13 11 11 8 8 6 6 6 9 12 14 16 18 23 20 18 15 20 23 22 20 19 18 19 19 20 21 19 18 18
9 21 23 9 22 28 16 13 12 14 14 15 14 13 10 11 11 9 8 9 10 12 15 17 20 27 22 22 21 18 19 24 20 19 21 23 25 25 23 23 23 23 22
21 20 21 31 29 21 12 9 12 12 13 13 12 14 13 10 7 6 7 10 11 13 17 20 25 27 25 27 22 19 21 26 26 26 25 26 27 28 28 25 23 23 24
18 21 23 21 18 16 15 17 16 14 14 13 13 12 9 8 10 10 11 15 16 18 21 22 25 24 24 21 22 25 28 28 28 29 29 28 28 29 28 28 26 23 23
16 16 18 18 18 19 17 14 13 11 11 9 8 7 9 11 12 13 14 16 19 21 23 23 22 22 23 24 26 28 28 28 29 30 32 32 31 32 33 29 30 30 26
13 16 18 19 18 17 15 12 11 9 6 3 5 8 10 11 12 15 18 20 21 20 20 20 22 20 21 25 27 30 31 31 29 30 31 31 32 33 34 36 33 33 34
12 14 15 17 14 15 13 11 9 6 4 5 9 13 16 15 19 21 16 15 17 18 19 20 20 22 24 26 30 31 31 31 30 30 31 33 34 34 34 35 36 37 37
11 13 15 14 13 12 9 6 5 3 7 6 9 14 15 15 15 14 14 14 16 19 22 24 26 30 31 32 33 33 31 31 32 32 31 31 31 32 34 36 39 43 43
7 12 11 10 8 6 5 3 2 4 3 6 12 16 12 11 13 14 13 16 19 23 27 29 27 27 31 34 32 28 29 30 30 29 29 30 32 33 34 38 40 44 47
11 10 8 8 6 3 2 3 4 6 5 8 10 9 11 11 12 13 14 16 21 23 23 26 29 31 31 28 27 27 28 30 29 29 29 31 33 34 36 39 42 46 49
9 7 6 5 6 6 5 7 7 8 8 10 10 12 13 13 14 14 16 18 17 20 25 26 27 27 27 27 27 27 27 29 30 31 31 33 34 37 39 41 44 47 49
12 11 10 10 10 10 9 10 9 8 11 12 10 12 13 14 16 15 20 18 20 25 30 28 27 26 28 29 28 28 27 30 32 34 35 36 38 37 38 40 43 47 51
11 12 14 15 15 14 14 15 12 12 14 12 11 11 12 16 18 18 22 24 30 31 31 30 27 28 29 30 30 30 31 33 34 36 38 39 39 38 38 39 42 46 51
16 17 17 15 15 19 22 20 15 17 14 12 12 13 13 15 16 21 25 31 32 31 34 32 30 30 31 33 32 33 36 38 40 41 43 44 44 43 40 37 39 42 45
15 18 19 19 20 22 25 23 17 16 14 11 12 13 17 19 22 26 29 34 34 33 33 34 35 33 33 34 35 36 39 42 43 45 45 46 44 43 40 39 35 33 33
20 22 24 27 23 25 23 20 17 17 15 15 15 18 21 24 26 29 32 37 37 35 33 34 37 37 36 37 38 39 40 41 42 44 47 45 44 40 37 34 29 30 32
23 23 23 29 25 27 27 17 20 18 18 19 21 25 29 31 33 35 37 39 41 38 37 35 37 37 38 38 39 41 41 41 41 42 44 42 41 35 35 29 29 31 33

GFSSE_700_spd_021.txt.gz
Wind_Speed
17 22 26 28 29 28 26 24 22 18 13 10 7 4 4 6 6 5 6 7 8 7 8 9 8 10 12 12 12 11 11 10 9 7 8 7 8 10 9 6 5 5 6
10 16 25 26 28 25 25 23 21 16 15 12 7 6 6 7 7 8 8 8 8 8 10 10 10 10 12 12 12 12 12 12 11 8 8 8 8 9 9 9 8 7 6
15 19 27 27 27 27 26 26 24 21 17 13 10 8 8 8 9 10 9 8 8 8 8 9 10 11 12 12 13 13 13 11 9 9 9 8 8 8 8 8 8 8 8
20 24 28 29 30 29 29 27 23 21 18 14 10 9 10 9 10 10 8 7 7 8 9 11 12 14 15 16 16 14 13 13 12 10 8 9 8 7 7 8 9 9 9
22 29 31 32 33 33 30 26 25 22 17 13 11 10 9 10 11 10 8 7 7 8 9 10 13 15 16 17 17 16 16 15 14 14 12 11 11 10 9 7 8 8 9
23 31 33 34 34 32 29 27 23 20 16 12 13 12 12 13 13 10 8 6 5 5 7 9 11 14 15 15 18 18 18 17 17 16 14 11 11 11 11 11 10 10 10
29 34 34 33 33 31 30 28 22 19 16 16 12 14 14 13 12 9 7 4 2 3 6 10 12 13 15 18 17 17 17 18 17 16 14 12 11 12 11 12 12 12 12
37 34 33 37 35 33 33 28 25 21 19 18 16 16 15 13 11 10 7 4 1 3 6 8 11 13 15 19 18 17 16 17 20 21 19 17 14 13 13 13 14 15 15
20 24 28 37 39 37 41 31 28 26 23 16 17 17 16 14 11 8 6 4 5 7 8 11 14 16 21 20 17 18 17 19 21 23 24 22 18 18 17 16 18 17 17
16 22 26 31 29 42 41 35 30 25 18 18 17 17 15 12 12 12 7 5 8 10 12 14 14 18 22 22 23 21 18 17 20 23 23 24 24 23 23 23 22 22 22
14 16 20 17 22 15 32 31 27 18 19 18 15 15 15 12 8 6 7 8 9 11 14 15 18 21 21 20 19 15 16 18 20 21 20 21 23 24 24 24 24 24 24
18 15 11 11 28 37 32 26 24 23 19 17 17 15 13 8 7 10 9 9 12 14 15 19 22 21 18 15 15 17 20 22 24 26 27 27 26 25 22 23 22 21 22
14 21 29 34 28 25 24 21 19 17 16 15 13 12 9 10 10 10 10 12 14 16 18 21 20 20 19 17 17 18 20 23 25 27 28 27 26 27 25 23 21 23 22
22 18 19 20 20 22 21 18 16 16 14 11 10 9 9 9 10 11 13 14 17 18 18 19 18 18 20 22 24 25 27 27 26 27 27 26 26 27 28 24 22 20 21
19 19 20 20 20 21 19 16 14 12 11 11 9 6 9 12 13 14 16 18 16 14 15 16 18 19 22 25 27 28 29 30 28 25 25 25 25 25 27 28 26 23 21
19 21 22 22 20 19 17 16 14 12 10 7 5 8 10 12 13 14 11 10 11 13 14 17 20 23 25 26 27 31 33 31 28 27 27 26 26 25 25 26 27 28 27
17 20 19 18 17 16 15 13 9 8 6 4 5 10 13 12 11 11 10 10 12 14 17 21 25 27 28 30 32 33 34 32 31 30 29 27 26 28 28 29 31 32 34
18 19 17 16 15 14 12 9 4 2 2 4 7 10 11 12 13 13 13 13 15 18 21 22 25 29 31 32 32 32 32 32 32 31 29 28 29 29 31 32 34 36 38
15 13 11 10 10 9 8 6 1 2 3 6 8 8 10 12 13 14 15 15 18 22 20 22 25 29 31 31 31 31 33 34 34 33 31 32 32 34 36 38 39 41 43
13 10 6 5 6 6 5 3 2 2 5 8 9 8 11 11 12 15 16 18 21 26 26 28 32 32 32 30 31 33 35 36 35 35 35 36 37 37 38 40 42 45 47
12 11 8 7 5 5 5 4 4 5 8 11 11 11 12 13 14 16 16 19 25 27 28 30 31 33 33 33 34 35 36 37 36 37 37 38 38 39 40 42 44 46 48
10 10 10 11 10 9 10 11 11 11 13 14 12 12 11 12 15 16 19 24 27 28 30 28 29 32 33 33 33 36 36 36 37 39 40 41 40 39 39 38 40 43 45
13 13 11 11 12 13 15 19 18 16 16 12 11 12 15 15 16 19 21 24 28 30 31 34 37 33 35 34 34 36 37 38 39 42 43 45 45 43 43 41 40 42 42
5 13 14 15 15 16 18 20 19 21 17 14 13 14 15 18 20 22 25 30 35 35 36 36 41 38 38 37 38 38 38 40 41 44 44 44 43 42 40 40 37 35 31
10 12 14 15 18 19 22 21 20 17 19 19 18 18 21 24 27 30 33 37 40 40 41 38 42 42 37 39 41 42 41 41 42 43 44 42 42 39 37 35 30 29 29
19 18 19 20 20 20 24 22 18 16 19 23 21 23 27 31 34 37 41 43 44 47 43 47 48 40 39 42 42 43 43 42 41 41 42 41 40 37 32 28 29 32 31

GFSSE_700_spd_024.txt.gz
Wind_Speed
18 22 23 24 24 24 24 22 20 17 13 10 6 4 6 6 5 5 5 6 7 7 9 11 11 12 12 12 12 12 11 10 8 7 7 6 7 7 7 6 5 4 3
12 20 25 24 25 26 23 22 19 18 14 10 5 5 8 8 7 6 5 7 7 7 8 10 12 13 14 14 14 14 14 13 11 10 9 8 7 8 7 7 7 6 6
17 21 28 28 28 26 25 24 22 15 15 8 8 6 10 10 10 9 7 6 5 8 10 13 14 15 15 16 15 14 13 13 13 13 12 10 8 8 9 8 7 7 7
21 23 28 29 29 29 29 26 23 24 13 14 10 11 11 12 12 10 8 7 7 9 11 13 15 15 16 17 19 20 18 17 15 14 13 13 12 12 11 11 10 8 8
20 24 31 32 33 32 29 27 25 21 13 13 11 13 13 14 13 10 8 8 8 10 12 14 15 17 18 19 19 20 20 18 17 17 15 14 14 13 12 12 11 11 11
20 27 32 34 33 31 31 29 25 13 18 16 15 16 16 14 12 10 8 7 7 9 13 14 18 18 19 20 19 19 19 17 16 16 17 17 15 13 12 12 11 11 10
17 29 31 31 32 33 32 27 19 21 19 18 17 16 15 12 10 9 7 6 8 9 10 14 16 16 15 20 18 16 16 15 16 19 19 17 17 15 14 14 14 15 13
17 31 33 35 36 34 31 28 25 21 23 20 18 15 14 13 10 8 6 4 5 8 10 12 14 14 19 21 19 18 17 17 16 18 19 20 19 18 18 18 17 16 17
17 33 34 32 35 39 40 32 28 27 23 20 17 16 16 13 10 7 3 2 5 8 10 12 12 17 20 21 18 18 14 13 15 17 20 19 18 18 18 18 19 18 17
29 26 25 26 27 40 41 35 34 29 25 24 21 18 16 15 11 6 1 3 6 8 9 12 15 18 19 16 17 15 13 11 14 16 18 20 20 19 20 20 18 17 18
13 13 27 27 38 42 44 39 36 27 25 20 19 18 15 10 5 6 5 5 8 9 12 14 16 18 16 14 14 14 13 13 14 17 19 20 22 21 19 19 19 18 16
10 9 19 20 23 23 28 44 27 31 26 20 18 14 11 9 9 6 6 8 9 12 13 16 16 14 13 14 14 15 16 17 19 21 21 21 21 22 19 18 19 18 16
13 17 17 18 26 18 27 26 27 23 24 21 16 12 11 10 7 7 8 9 13 15 16 15 14 13 14 17 20 22 22 23 24 25 24 23 22 22 20 18 17 16 16
21 30 35 30 39 44 44 32 25 22 17 14 12 10 9 7 8 8 10 12 15 15 12 13 14 17 20 23 25 25 25 26 27 28 25 24 23 24 22 20 17 16 15
19 19 20 23 29 27 27 23 20 18 15 13 11 8 7 7 8 11 13 15 11 10 10 13 16 20 23 26 28 29 30 30 28 25 25 25 26 24 26 24 21 18 16
15 20 24 24 23 22 22 20 19 17 15 12 9 7 6 7 9 10 8 7 6 8 11 15 18 21 25 28 30 32 33 31 29 27 26 27 27 27 27 28 29 27 25
22 22 21 21 21 20 19 17 15 14 12 8 6 5 4 6 7 7 6 7 7 9 14 17 19 21 25 29 31 34 35 34 33 33 32 30 29 30 30 31 32 33 34
20 19 19 19 19 19 17 14 13 12 8 5 4 3 5 7 8 7 7 8 10 14 19 22 23 25 29 33 34 35 36 36 36 37 37 36 35 34 35 36 37 37 37
18 17 15 15 15 15 14 13 11 9 6 3 3 4 5 8 8 9 10 12 14 17 20 24 26 28 30 32 34 35 36 36 37 38 39 38 37 38 39 40 42 42 43
17 16 14 13 12 12 11 10 9 7 6 4 4 5 6 8 9 10 12 14 17 19 26 25 27 28 29 31 33 36 37 37 37 38 39 39 40 40 42 43 45 46 47
15 14 11 9 7 6 4 4 6 6 6 6 7 7 7 9 11 13 14 16 20 22 24 26 27 27 31 31 33 36 36 36 38 39 41 42 43 44 45 46 47 48 49
8 8 9 8 6 5 5 7 8 11 11 11 11 9 10 12 13 15 16 17 20 23 26 29 32 35 35 34 35 37 34 36 40 42 42 44 46 47 49 49 48 48 48
7 7 7 9 9 10 11 11 14 15 15 13 13 12 12 16 17 18 18 20 24 28 32 35 38 39 41 39 41 35 37 39 42 43 45 47 49 49 50 49 48 47 48
4 11 12 12 13 15 14 14 15 15 15 17 17 18 17 18 21 23 24 26 31 34 38 41 42 42 42 46 42 38 39 42 44 46 46 48 49 47 46 44 42 41 42
10 8 11 13 14 13 13 14 14 18 18 18 22 25 22 23 25 27 29 33 37 41 45 47 50 46 43 49 44 44 43 41 42 44 48 47 46 43 42 40 38 37 36
15 16 15 17 18 18 17 14 16 18 17 18 20 23 25 26 28 32 35 39 42 45 48 52 50 53 46 46 46 44 41 40 42 42 44 43 42 39 38 36 33 35 36

GFSSE_700_spd_027.txt.gz
Wind_Speed
16 19 20 23 22 20 18 16 16 14 11 9 5 3 3 5 7 9 11 12 12 12 12 12 14 14 14 14 14 13 13 11 9 8 8 9 8 6 6 5 4 3 2
17 21 22 23 23 22 20 19 18 15 13 10 6 5 6 7 10 10 12 12 12 12 14 15 14 14 14 15 15 15 14 14 14 13 12 11 10 9 8 6 6 5 4
18 23 26 25 25 25 23 22 21 19 15 9 7 7 9 9 11 10 12 12 13 14 14 12 13 16 17 18 18 18 17 16 16 15 14 13 12 11 11 10 8 7 7
19 25 27 27 27 27 26 24 24 22 16 13 8 10 11 11 11 10 11 12 12 13 12 14 15 16 17 17 17 17 17 17 16 18 17 16 15 14 13 12 11 9 9
20 25 28 28 28 28 27 26 25 22 18 13 11 13 14 12 11 11 11 11 12 11 13 16 16 16 18 18 17 15 15 15 14 14 15 15 16 16 14 13 12 11 10
21 24 27 28 30 29 28 27 25 21 15 15 14 12 14 13 12 11 11 10 10 12 13 15 16 16 18 19 18 14 13 11 11 12 14 14 14 13 13 13 13 13 12
20 23 28 31 34 33 30 27 24 23 19 16 15 16 17 15 11 10 9 9 10 12 13 14 14 16 17 19 16 15 15 12 12 12 13 13 13 13 13 13 14 13 12
20 26 34 38 37 33 34 32 24 23 19 17 20 19 16 13 12 8 7 8 9 10 11 12 13 14 17 17 15 16 15 12 12 13 15 15 15 14 14 13 13 13 12
14 27 36 40 38 38 37 33 28 23 22 23 21 16 14 15 11 8 5 6 6 7 9 11 12 13 15 16 15 13 13 12 12 13 15 15 15 15 15 15 15 14 14
20 21 34 43 38 30 21 31 28 28 27 25 20 21 19 15 10 7 4 2 5 7 8 12 13 14 14 13 12 12 12 11 11 13 15 17 16 15 17 17 17 17 17
20 20 18 22 24 36 41 37 35 36 29 26 26 22 17 12 8 5 1 1 5 8 10 11 14 13 12 11 11 13 14 15 15 16 18 19 19 16 17 19 19 18 18
16 20 19 21 27 34 32 49 42 35 30 29 23 18 15 12 8 4 4 4 6 10 11 14 13 12 11 12 16 18 18 18 20 22 23 22 20 18 15 17 18 19 20
13 17 17 18 30 37 35 36 42 28 29 24 20 17 14 11 8 7 6 7 9 11 14 12 11 12 14 17 20 22 22 23 24 25 25 23 21 21 19 18 17 17 17
7 9 12 21 12 19 23 30 33 27 26 24 20 17 14 10 7 6 8 9 11 14 10 9 11 14 17 19 22 23 23 24 25 25 25 24 24 24 23 22 20 18 19
27 22 23 28 36 37 35 35 33 23 21 19 17 14 11 8 7 9 10 11 10 7 8 9 13 15 17 19 21 24 26 26 25 26 26 26 26 26 26 26 25 24 23
20 26 32 34 34 31 31 29 25 25 22 19 16 13 8 7 9 10 8 5 5 6 7 11 15 18 20 23 27 28 27 27 26 26 27 28 28 27 28 28 28 29 29
18 25 24 26 25 25 27 26 24 22 19 16 13 10 7 5 3 3 2 3 4 6 9 13 18 22 24 25 26 26 27 27 28 29 29 29 30 30 30 31 32 33 34
21 23 23 22 23 22 21 22 21 20 18 14 10 6 4 2 2 2 2 3 6 9 11 13 20 20 22 23 26 27 28 30 31 31 30 31 32 33 35 36 37 39 40
21 21 21 21 21 20 19 18 18 17 15 11 8 5 5 3 3 4 5 6 9 12 14 18 18 20 23 27 31 32 29 33 35 33 31 34 37 38 38 39 41 43 45
20 19 19 19 19 18 17 16 15 14 13 11 8 6 6 5 5 6 8 9 11 14 16 18 20 23 25 29 32 33 32 39 37 33 34 38 40 41 41 43 45 47 49
17 16 15 16 16 15 13 13 13 12 11 10 10 9 8 8 8 9 11 11 13 15 18 20 24 27 30 33 37 39 38 39 36 37 36 38 41 42 43 46 48 50 52
15 14 13 11 10 10 10 12 12 13 12 14 11 10 12 13 13 13 13 14 16 19 22 26 30 33 35 38 44 41 41 40 40 40 38 40 44 43 44 47 50 51 53
15 15 14 13 13 12 12 13 12 14 14 14 14 13 15 16 18 17 16 17 19 23 27 31 34 36 42 45 42 40 42 42 39 38 35 42 44 43 45 48 51 52 52
9 13 12 12 12 12 13 14 14 13 16 14 17 19 18 18 20 21 22 23 25 28 32 35 36 39 45 49 41 39 39 35 36 40 40 39 42 43 45 47 47 48 47
12 9 12 14 14 14 16 17 16 14 15 17 20 21 23 24 25 25 26 28 30 32 37 42 47 37 41 40 43 42 35 37 37 38 39 41 41 40 41 41 42 43 42
19 19 17 14 15 16 17 18 17 13 15 16 20 19 23 22 25 27 27 33 32 32 34 32 38 34 39 41 37 37 37 37 38 38 38 37 38 38 39 38 37 37 38

GFSSE_700_spd_030.txt.gz
Wind_Speed
12 13 18 22 21 19 18 17 15 13 10 7 5 3 5 8 11 14 14 15 14 14 15 15 15 14 14 15 15 15 14 14 13 13 12 11 10 8 7 6 4 3 3
16 15 18 22 21 19 20 19 17 15 13 9 6 4 5 9 12 14 15 14 15 16 15 15 15 16 17 18 17 17 16 15 14 13 11 10 10 8 8 7 6 5 4
17 17 22 22 22 22 21 19 18 17 15 11 7 4 6 10 13 16 15 15 16 14 15 15 15 15 15 15 14 14 14 13 13 13 12 12 11 10 9 8 7 6 6
16 19 18 23 24 24 22 20 19 18 17 13 8 5 8 11 14 16 15 15 15 16 15 15 15 15 14 13 12 10 9 9 9 10 12 11 10 9 9 9 9 7 6
18 22 20 24 26 24 22 21 21 20 18 15 11 10 11 14 15 15 15 14 15 14 14 14 12 13 13 12 11 9 9 9 9 11 10 11 11 10 9 9 8 8 8
18 23 25 27 27 27 26 24 23 21 18 16 14 14 14 15 15 14 14 13 13 12 11 11 10 12 12 14 13 12 11 9 9 9 10 11 11 11 11 10 9 9 8
14 18 25 28 30 32 30 29 23 22 20 17 17 18 16 17 15 14 13 12 10 9 9 11 10 11 13 15 13 13 11 8 7 8 9 10 11 12 12 12 12 11 10
19 26 29 32 34 36 35 30 28 25 21 19 17 18 18 17 14 14 12 9 7 7 8 10 11 12 15 13 12 11 12 12 12 12 12 12 13 13 13 14 13 13 13
22 27 33 37 39 36 41 39 32 27 26 21 19 21 19 15 15 13 10 7 5 5 8 10 11 13 12 11 12 13 13 13 12 12 14 15 15 15 14 14 15 15 15
20 25 30 35 36 35 39 39 33 30 25 23 23 20 15 15 14 11 7 4 2 5 8 11 12 13 11 11 12 13 13 11 13 14 14 16 15 15 16 16 16 17 17
19 21 25 28 38 40 43 39 42 32 30 30 26 20 24 14 11 7 4 1 2 5 9 10 12 10 9 9 11 12 13 13 14 16 18 18 17 16 15 15 16 17 18
18 16 17 25 34 37 24 27 39 39 37 31 27 34 20 16 11 7 3 4 4 6 9 11 9 7 8 10 11 14 15 16 17 18 18 19 18 17 17 17 17 17 18
22 14 15 26 29 29 33 43 46 41 41 35 32 25 18 14 11 9 7 5 6 8 11 8 7 6 7 11 14 17 18 20 22 20 19 19 19 19 18 17 17 17 18
15 15 19 14 21 36 42 54 46 47 40 29 23 18 16 14 12 8 7 8 8 11 9 5 5 7 10 14 16 20 21 21 20 20 21 22 22 23 23 22 20 19 19
9 14 16 10 8 23 18 24 32 37 39 28 20 18 17 15 12 11 9 9 11 9 5 5 7 10 15 17 19 19 18 18 19 21 23 23 23 24 24 25 24 23 23
22 19 14 15 14 33 41 36 41 28 25 22 19 17 16 13 11 10 10 11 9 7 4 5 9 14 15 16 16 18 19 19 19 22 25 24 24 24 26 27 28 28 27
24 29 30 35 35 32 34 29 23 22 23 21 19 17 15 12 10 10 10 9 8 6 4 6 9 14 15 16 17 20 22 20 21 26 29 28 26 25 29 30 30 30 32
22 27 27 26 23 23 23 23 22 22 21 20 19 16 12 11 11 10 9 9 6 5 6 9 12 14 16 18 21 23 23 25 25 31 28 27 26 32 32 33 35 35 36
19 21 20 21 23 22 22 22 22 21 21 19 17 14 12 11 10 9 8 7 6 7 8 10 12 16 18 22 25 28 32 34 33 32 31 30 31 32 33 35 36 38 39
17 18 18 19 19 20 21 23 23 22 20 18 16 14 12 12 10 10 7 8 9 9 10 12 15 19 22 26 30 34 37 36 34 34 36 36 36 35 34 36 39 40 39
19 19 18 18 18 19 19 18 19 18 18 17 15 14 14 14 14 11 10 11 11 11 13 16 19 23 26 30 35 38 41 38 35 33 34 34 34 34 33 39 38 40 45
18 17 18 17 17 17 16 16 15 15 16 16 17 16 16 16 17 16 16 15 15 16 18 21 24 27 30 34 36 37 40 42 39 35 31 32 33 36 38 39 40 42 43
17 17 17 18 18 17 17 17 17 18 18 19 20 19 17 16 19 21 21 21 21 21 22 24 26 30 34 39 42 33 35 33 39 41 34 33 35 36 38 41 43 44 45
16 17 17 17 17 17 18 18 18 18 18 18 19 21 19 23 22 23 25 26 27 27 26 27 28 28 30 36 35 30 31 30 29 31 39 40 36 36 39 40 41 43 44
17 17 17 18 18 18 18 18 18 19 20 23 22 24 25 25 28 28 29 30 29 29 28 28 28 33 30 31 34 35 29 31 30 30 31 33 41 41 40 39 38 37 39
21 20 19 20 21 21 20 19 19 20 24 23 22 23 26 24 26 27 26 28 31 31 31 35 31 37 28 40 37 36 31 33 32 33 34 35 37 37 37 35 35 36 37

GFSSE_700_spd_033.txt.gz
Wind_Speed
10 13 15 20 22 21 19 17 15 13 10 7 6 7 9 10 12 14 16 15 15 16 16 15 16 15 15 14 14 13 13 12 11 10 10 10 9 7 6 5 4 3 3
13 13 16 21 22 21 19 18 16 14 11 8 7 7 10 10 13 15 15 16 16 17 17 17 16 15 14 14 14 14 13 13 11 11 10 10 10 9 9 8 7 5 4
16 16 19 21 22 22 21 20 18 16 13 10 8 10 12 13 13 14 16 18 17 17 16 16 14 14 13 13 12 12 11 11 11 11 12 10 9 9 8 7 6 6 5
19 18 21 22 22 23 23 21 19 17 14 12 10 13 16 15 15 16 18 18 17 16 16 15 13 13 12 11 9 9 9 8 8 9 7 8 7 7 7 7 6 6 5
25 20 21 18 22 24 23 21 20 18 16 14 13 16 18 17 16 17 17 17 16 15 14 12 12 13 13 11 10 9 7 7 4 6 7 8 8 8 7 7 7 7 7
19 18 20 22 25 25 24 23 22 21 18 15 16 19 20 18 17 17 17 16 14 12 12 11 11 12 13 12 11 10 9 9 13 8 11 9 9 10 10 11 11 11 10
19 16 19 25 27 26 26 25 24 21 19 18 19 20 20 19 17 17 15 13 11 10 10 10 10 11 12 11 11 12 12 11 11 10 12 13 13 13 12 12 12 12 12
17 20 23 25 28 29 28 27 25 25 23 22 23 22 21 20 18 15 12 11 9 8 9 10 11 11 11 12 12 12 10 11 11 11 12 13 14 14 13 13 13 13 12
24 22 30 34 31 34 33 32 32 27 26 27 25 22 19 18 17 16 11 8 6 6 8 9 11 10 11 11 9 9 10 10 10 9 13 14 14 14 13 13 13 14 14
22 21 25 30 33 35 36 37 31 31 31 30 27 22 21 18 16 13 9 6 4 4 7 9 10 10 9 7 9 10 10 10 11 12 12 13 13 12 12 13 13 14 13
18 22 25 29 33 35 38 33 33 33 34 32 28 27 22 21 17 13 8 4 1 3 6 9 10 8 6 7 9 11 13 13 12 12 13 14 14 13 13 13 13 15 16
16 19 21 22 30 38 39 45 48 42 42 36 30 27 24 23 17 11 7 4 2 2 6 9 6 4 5 7 9 11 12 12 13 14 15 16 16 17 16 16 15 15 15
10 13 14 21 28 29 42 41 20 43 35 36 33 27 25 20 12 10 6 5 3 4 6 7 3 3 5 7 9 12 13 14 14 14 15 17 19 18 17 17 16 16 16
19 23 17 18 22 26 29 19 32 32 36 36 36 33 26 17 13 10 8 6 5 7 8 3 2 2 4 7 10 11 12 13 15 18 16 18 20 22 22 20 19 18 19
12 12 19 19 26 25 30 34 44 42 47 36 29 27 21 18 14 11 10 8 8 9 6 3 3 3 6 9 10 12 15 15 14 18 17 23 25 24 24 25 25 25 24
11 11 9 15 14 22 36 36 33 45 35 33 23 22 18 16 14 13 11 11 12 9 6 5 5 5 7 9 11 14 15 16 17 19 27 24 24 24 24 27 28 27 27
16 9 14 15 20 16 21 25 23 37 32 23 22 19 19 15 13 13 14 13 11 10 7 7 6 7 8 9 12 14 16 18 21 23 25 32 26 25 26 29 30 29 30
19 21 23 25 29 36 42 33 28 29 25 23 22 18 16 15 15 14 14 12 12 9 9 9 8 8 9 12 16 18 21 25 28 26 25 25 28 37 32 29 30 31 31
18 21 25 24 21 23 24 27 24 23 25 23 20 16 15 15 15 15 14 12 12 12 10 11 9 11 13 16 21 24 26 29 29 31 31 27 26 28 33 33 30 33 34
15 16 14 17 17 15 16 18 19 21 20 18 17 17 18 16 16 14 14 12 14 13 13 12 13 15 18 21 26 31 34 35 36 35 31 29 32 27 27 28 33 36 35
14 14 16 18 18 19 19 20 19 20 20 19 16 18 18 18 17 16 15 14 15 15 17 16 17 19 21 24 28 35 41 42 36 32 31 30 31 30 31 31 29 31 37
16 16 17 18 18 17 17 17 18 19 20 18 19 20 18 18 18 20 19 17 19 21 20 20 22 23 26 25 28 33 34 34 39 38 31 30 29 28 32 33 31 33 35
17 16 16 16 16 16 16 18 19 21 23 22 20 20 20 18 17 20 24 23 25 26 24 25 26 27 29 30 32 34 27 22 29 36 39 30 31 30 31 32 36 39 41
18 18 18 19 18 18 18 19 19 19 19 18 19 19 21 24 23 25 25 25 29 30 31 31 32 32 31 35 39 34 26 33 26 27 35 41 39 36 35 36 35 37 42
17 18 19 20 20 20 21 21 20 20 21 22 23 22 24 25 26 28 29 30 32 32 35 35 36 34 36 36 36 31 38 31 29 28 30 27 36 40 43 43 41 40 41
20 21 22 22 21 22 22 21 21 20 21 24 27 22 25 27 28 30 31 34 34 34 35 37 36 39 42 37 34 38 31 31 33 36 35 30 31 34 37 41 41 42 41

GFSSE_700_spd_036.txt.gz
Wind_Speed
16 16 19 21 22 22 21 20 18 15 13 11 11 12 11 13 15 16 16 16 16 17 16 15 15 15 14 13 12 11 10 9 9 10 10 9 10 9 8 7 6 5 4
9 9 14 20 22 23 22 21 19 16 14 12 11 11 13 15 14 15 15 17 18 17 17 16 15 14 13 13 12 11 11 11 10 10 11 10 10 9 8 8 7 6 5
8 6 9 17 21 22 23 22 20 17 15 13 11 12 14 15 15 14 17 16 17 16 15 15 15 14 13 11 10 10 10 9 8 7 12 11 10 10 9 9 8 7 7
21 11 12 15 20 22 23 23 21 18 16 14 13 15 16 17 15 16 16 16 16 16 15 15 14 12 10 9 9 8 9 8 7 11 12 10 9 9 9 8 9 8 8
23 17 18 16 16 22 24 23 21 19 17 15 15 17 17 17 17 17 16 17 16 15 14 12 11 11 10 10 10 10 9 6 6 10 9 9 9 8 8 8 8 7 7
21 21 23 16 21 26 24 24 22 20 19 17 18 19 19 19 18 17 17 15 14 13 12 10 10 11 12 12 13 13 12 8 13 12 10 9 9 8 8 8 8 9 9
13 24 23 21 15 17 25 25 23 21 19 19 22 22 21 20 19 18 16 14 12 11 10 10 10 11 12 13 13 12 12 8 9 12 10 10 10 9 9 8 8 8 8
42 30 33 31 30 28 27 25 23 22 24 20 23 24 22 22 21 18 15 13 11 10 10 10 11 11 11 12 11 10 8 6 8 13 11 12 12 13 13 13 12 11 10
15 36 32 29 31 31 28 27 25 25 25 26 26 26 24 23 19 17 14 11 8 8 8 9 9 9 10 10 10 9 8 6 8 14 13 13 12 12 13 13 12 12 12
10 12 9 18 29 31 30 30 30 31 30 29 26 29 26 20 19 17 13 10 7 6 8 9 8 8 8 9 9 8 8 7 11 11 12 13 14 14 13 13 13 13 12
16 18 18 22 20 30 35 35 34 32 28 30 33 31 24 24 21 17 13 9 6 4 6 8 6 6 7 9 8 8 7 9 13 12 13 14 13 14 14 14 14 14 14
12 14 13 18 29 19 25 26 39 37 35 37 35 31 31 25 20 13 10 4 2 3 5 7 3 5 5 6 6 8 10 9 13 12 12 13 13 14 15 15 14 13 13
10 10 9 12 23 30 29 28 30 46 47 43 42 37 25 20 17 13 7 5 2 1 4 4 2 2 4 7 8 8 8 10 13 12 11 11 12 14 15 15 15 15 16
9 8 15 12 19 19 32 36 37 52 49 42 39 31 22 22 15 14 10 5 4 4 5 2 0 3 3 4 4 8 10 12 11 9 11 16 19 18 19 19 19 19 19
11 18 18 17 19 18 37 34 38 30 35 44 38 28 25 20 18 16 9 8 7 6 5 2 1 2 1 2 4 6 9 10 16 14 16 19 21 23 21 22 22 22 21
11 12 9 16 20 23 26 31 23 23 34 32 37 29 24 22 20 17 10 9 8 8 7 5 6 5 3 4 5 7 9 12 18 25 20 20 21 22 21 25 27 27 25
12 8 12 19 15 25 22 32 27 36 37 31 36 29 25 22 18 13 13 11 11 11 9 8 8 7 7 7 8 9 11 16 18 22 29 27 27 24 24 25 26 26 27
9 11 17 18 16 21 20 25 26 20 31 32 27 25 23 22 16 16 14 13 13 11 11 11 11 10 10 11 11 13 18 21 24 26 27 32 31 29 25 25 23 26 27
18 19 22 22 21 24 24 17 33 37 34 29 26 23 21 18 17 15 15 14 13 12 14 13 14 13 12 14 15 17 20 25 27 28 26 21 23 30 31 29 26 26 29
20 19 20 21 21 20 23 26 31 30 22 21 20 19 19 17 17 16 15 14 12 15 16 16 16 16 17 17 20 24 25 26 28 31 25 24 25 21 27 30 30 30 29
13 13 12 11 13 15 17 18 22 22 20 20 19 17 20 19 15 15 16 13 15 17 18 19 20 19 22 23 23 26 30 33 32 31 28 32 29 27 25 26 27 31 32
11 13 13 12 13 14 15 17 18 18 18 18 17 16 19 17 13 15 17 17 18 22 24 23 21 24 27 26 28 29 27 32 33 33 34 32 29 29 30 30 28 28 31
12 12 12 12 13 14 16 17 19 19 21 21 18 16 17 16 17 16 18 22 21 24 29 28 27 29 31 33 31 32 31 31 35 35 36 34 31 28 29 31 34 34 34
13 13 13 13 12 13 14 17 16 17 18 16 14 15 18 19 21 23 23 22 23 26 31 32 32 32 35 38 38 36 36 37 40 34 36 35 37 38 37 34 33 33 35
14 14 15 15 15 16 17 17 20 18 17 18 20 18 19 19 22 23 26 27 28 32 32 39 36 36 37 38 40 42 42 41 31 30 29 29 38 39 40 42 40 38 37
19 19 19 18 18 19 18 19 19 18 20 22 22 24 22 22 24 26 30 28 30 32 34 34 38 36 38 40 49 48 48 38 32 32 33 36 32 32 35 39 42 44 44

GFSSE_700_spd_039.txt.gz
Wind_Speed
20 17 18 23 27 23 23 20 19 16 14 13 13 14 15 15 15 15 16 16 15 15 14 15 15 14 13 11 9 8 8 7 8 9 10 10 10 9 8 8 6 5 5
18 24 27 27 28 27 26 25 22 19 17 15 14 13 15 16 15 15 15 15 15 15 15 16 16 14 12 10 9 8 8 9 10 10 12 11 11 11 10 10 9 8 7
22 7 28 29 30 29 28 26 22 20 18 17 16 15 16 17 16 16 15 16 16 16 15 15 13 12 10 9 7 6 7 11 11 10 12 10 10 10 9 9 8 8 7
22 28 18 22 27 28 27 25 23 21 19 18 17 17 17 17 16 16 17 16 16 15 15 13 12 10 8 7 5 4 7 10 11 10 10 9 8 7 6 7 6 6 6
13 17 20 19 29 30 28 26 25 23 21 18 17 17 18 17 18 17 17 17 16 14 13 12 11 9 8 7 6 7 14 12 12 12 11 10 9 8 7 6 6 6 6
10 15 22 24 33 32 30 27 27 25 22 20 20 20 20 20 19 19 19 17 14 12 11 10 10 10 10 10 8 12 18 11 11 12 11 10 8 8 7 6 6 6 6
23 20 18 30 33 34 31 29 27 25 23 20 21 21 21 21 21 20 18 16 13 11 9 8 9 11 12 12 9 8 15 14 11 11 10 11 11 11 11 10 9 8 7
14 14 34 44 37 35 33 24 24 24 25 24 23 23 23 23 21 19 17 15 13 11 10 10 10 12 13 12 9 6 12 15 8 9 11 11 12 12 12 12 12 11 11
16 14 25 44 40 24 19 34 30 25 25 24 26 25 25 24 22 19 17 15 12 11 9 9 10 12 12 10 10 5 11 12 8 9 10 11 11 11 11 12 12 12 12
9 13 16 38 34 29 33 32 29 28 25 26 28 29 28 25 22 19 17 14 11 9 9 9 10 11 10 10 9 6 7 7 8 10 11 11 10 11 13 13 13 13 12
4 5 1 15 30 36 34 30 27 29 31 32 32 31 30 28 23 18 15 13 11 8 9 8 9 9 9 10 8 1 5 6 9 9 9 11 12 14 14 14 14 12 12
4 7 14 9 16 19 23 26 31 31 35 34 31 31 32 30 26 22 16 10 8 7 6 6 6 8 7 6 2 1 8 8 8 9 11 11 11 12 12 12 11 10 9
5 8 11 12 15 18 13 16 25 36 38 37 32 36 33 29 25 15 9 7 3 2 3 5 6 7 6 4 3 3 7 6 8 10 11 11 10 11 14 12 14 15 15
10 9 11 8 12 22 25 35 37 39 46 40 44 38 32 31 23 15 12 12 5 2 1 3 4 4 3 3 3 3 6 9 12 13 13 12 13 14 16 14 15 16 15
12 12 14 15 12 16 27 37 34 37 46 47 46 41 37 35 23 17 17 10 6 5 2 3 5 3 2 2 0 3 7 7 9 12 14 13 14 17 17 17 16 17 16
10 11 10 21 15 16 30 21 34 42 52 50 39 40 37 28 24 22 13 9 9 7 6 6 5 3 4 3 2 3 7 11 11 13 16 20 20 20 19 19 20 17 15
12 10 17 14 18 21 18 31 27 37 46 26 39 37 32 27 23 21 14 15 12 10 6 5 7 8 7 7 4 5 8 14 17 17 20 22 18 17 18 19 20 22 24
10 17 15 17 15 15 18 17 19 22 26 27 42 42 32 27 27 18 17 13 10 9 8 9 9 11 10 8 7 10 13 16 18 23 25 23 19 19 18 18 20 22 23
12 8 15 18 18 18 13 11 21 13 17 17 30 34 33 30 24 20 17 13 13 10 11 10 10 12 12 13 12 16 19 21 20 19 25 26 25 26 21 20 20 23 23
19 20 19 18 20 17 14 18 19 22 33 38 38 33 28 25 21 19 16 14 12 12 12 11 13 15 15 18 19 22 24 27 25 26 23 25 27 31 26 25 25 23 24
12 12 15 18 19 22 24 27 30 33 35 32 27 23 22 20 19 18 17 13 10 12 12 14 16 18 18 22 26 28 30 29 30 33 31 26 23 26 29 28 27 28 28
8 11 12 14 16 17 21 23 27 27 23 22 22 22 20 17 17 18 18 14 12 14 16 18 20 21 23 27 29 31 32 34 35 33 32 30 31 29 27 29 30 29 31
8 8 9 12 15 16 19 21 22 20 21 22 23 19 19 18 16 17 18 17 15 18 19 22 23 26 28 32 34 33 35 38 40 37 34 35 29 30 30 33 35 33 30
11 11 11 11 13 16 17 18 19 18 18 18 19 19 18 19 19 19 20 18 18 20 23 24 27 34 30 37 39 41 38 39 43 44 44 39 31 32 31 34 37 35 35
15 12 10 10 10 12 13 14 14 14 16 18 19 18 21 20 19 19 20 22 23 22 26 30 34 31 26 35 40 39 34 38 45 51 48 35 30 32 34 37 40 40 37
17 17 17 17 17 16 15 15 15 13 16 18 18 17 18 19 19 22 22 24 25 24 25 29 35 30 29 26 26 30 38 41 42 40 40 30 30 33 38 37 38 40 40

GFSSE_700_spd_042.txt.gz
Wind_Speed
13 21 26 28 25 30 23 25 22 21 19 19 19 16 15 14 14 14 15 14 13 13 13 13 12 11 11 11 10 9 9 8 8 9 10 10 9 9 8 8 8 7 6
16 16 21 28 30 32 31 30 26 21 19 18 16 14 14 15 16 15 15 15 14 14 14 13 12 11 10 10 9 9 9 9 9 9 11 10 10 9 9 9 8 8 8
16 22 23 27 39 35 35 31 26 21 19 18 17 16 16 17 16 16 15 14 14 13 12 11 10 8 8 8 9 10 8 10 9 9 10 9 9 9 9 9 9 9 8
13 21 24 26 34 35 32 29 26 24 22 20 19 18 17 17 16 15 15 14 14 12 11 10 8 6 5 6 9 11 9 8 8 9 9 8 8 7 7 7 6 6 6
16 13 19 29 33 38 35 31 27 25 24 22 20 18 18 18 18 17 17 15 14 12 10 8 6 4 5 8 9 11 13 11 12 12 11 9 9 7 6 5 6 6 6
9 6 11 19 33 37 38 38 27 25 24 22 21 20 19 19 18 19 18 16 14 11 9 7 6 3 5 10 13 14 15 15 14 12 11 10 9 8 7 7 6 6 6
10 12 10 16 39 35 43 29 29 26 25 25 24 22 22 22 22 21 19 16 13 11 9 8 6 5 9 12 15 14 13 13 12 11 10 10 9 10 9 9 9 8 8
17 17 18 29 28 41 47 41 32 29 28 27 25 23 24 24 23 21 19 16 13 11 9 9 10 7 10 12 17 16 11 11 9 9 9 9 9 10 9 9 9 10 9
12 14 19 30 34 27 38 48 39 27 26 26 27 26 26 25 24 22 19 17 14 12 10 10 11 8 5 13 16 15 11 10 7 7 7 10 10 10 11 11 11 12 11
10 9 17 27 46 41 41 38 37 31 24 26 27 28 28 28 25 23 20 17 14 11 11 11 11 10 6 7 13 12 8 6 6 7 8 10 10 10 11 12 12 13 14
12 8 5 9 37 47 32 34 30 28 32 31 31 31 31 29 27 24 21 18 13 8 8 10 10 9 8 8 8 8 7 7 7 8 9 10 9 11 13 12 12 11 10
10 11 1 5 17 29 22 33 28 37 35 34 32 33 31 30 28 25 21 15 15 10 9 10 11 10 7 4 4 6 5 6 8 9 8 8 8 9 11 10 9 9 9
6 12 8 3 8 19 21 11 35 36 34 36 36 33 33 32 27 21 17 15 11 6 6 7 9 9 6 2 4 6 5 7 8 8 8 8 7 9 10 9 8 10 8
9 10 10 13 15 18 19 19 26 36 30 40 38 35 35 29 26 19 15 15 13 3 3 6 8 7 6 6 5 5 5 5 6 8 10 12 11 10 11 11 11 11 11
12 12 19 13 16 23 20 24 20 35 30 41 38 38 34 30 26 21 19 18 10 6 3 5 8 8 7 3 2 2 2 3 7 10 11 14 15 14 13 13 12 12 10
13 17 17 18 16 23 10 20 35 36 38 42 40 38 35 35 27 26 22 19 10 7 5 6 7 7 4 2 4 3 3 5 7 9 12 15 15 13 14 16 15 14 14
15 16 16 20 22 9 22 19 24 29 39 38 43 41 41 36 32 28 23 17 10 10 7 8 10 8 5 5 6 7 7 11 12 12 14 15 16 15 18 19 16 17 18
13 21 10 16 20 15 25 9 32 27 39 46 46 45 42 36 32 24 23 15 12 11 9 11 10 8 8 8 9 11 11 14 16 17 19 19 18 19 22 20 20 20 21
3 16 26 26 26 14 17 27 23 21 30 47 42 45 43 36 30 34 24 17 16 12 10 11 9 10 9 9 12 14 16 19 21 22 25 24 21 21 20 19 21 22 22
6 7 18 22 22 21 19 22 21 26 24 42 42 31 40 36 33 31 22 18 13 10 11 10 11 11 9 11 14 18 21 24 28 29 30 30 29 27 24 24 23 22 23
8 11 10 11 16 22 26 30 31 26 28 32 36 40 42 35 35 26 21 18 12 11 13 12 12 12 12 15 21 24 28 30 30 31 33 35 37 34 30 27 24 23 26
4 9 10 14 15 18 24 27 26 26 28 31 32 37 35 35 29 25 23 16 15 15 14 15 14 14 17 21 27 29 31 34 34 35 34 37 39 39 36 28 27 28 28
8 8 11 12 13 17 22 27 29 29 30 29 29 28 31 29 25 24 22 21 18 18 17 16 15 18 22 25 29 31 36 38 38 38 39 37 40 44 37 26 30 30 28
11 12 12 14 16 17 18 20 22 23 21 20 21 24 24 23 21 20 23 23 20 20 18 17 18 21 20 30 32 25 35 36 37 39 35 36 40 41 34 30 34 33 34
15 13 13 14 17 17 18 17 17 19 22 22 23 22 22 23 23 22 24 25 26 24 22 22 21 21 23 27 17 19 25 28 26 30 30 29 38 32 32 30 35 36 38
18 18 18 18 18 18 19 18 17 17 20 24 24 22 22 23 25 27 27 27 29 27 25 22 22 25 23 25 23 23 25 26 32 28 31 26 30 25 26 31 35 37 40

GFSSE_700_spd_045.txt.gz
Wind_Speed
19 22 19 21 21 17 17 24 29 25 26 23 20 15 12 11 12 12 12 11 10 9 8 8 9 9 10 10 11 10 9 9 9 10 11 11 11 11 11 10 10 8 8
17 16 18 23 23 26 28 16 20 18 23 22 19 17 14 12 13 13 12 11 10 9 8 9 10 10 10 10 9 9 8 8 9 10 11 11 11 12 12 12 11 10 10
12 13 14 21 17 23 27 35 35 31 23 24 22 19 15 15 14 13 13 12 12 11 10 9 9 10 9 8 7 7 8 8 9 11 10 10 9 11 10 9 9 8 8
10 10 16 24 18 17 23 36 35 29 26 24 23 22 18 16 15 14 15 14 13 12 11 10 10 9 8 6 5 7 8 8 7 8 8 9 8 8 8 8 7 8 8
11 13 18 24 26 22 37 38 31 28 27 27 25 23 19 19 17 17 17 16 14 12 10 9 10 9 9 9 7 6 8 9 10 11 10 9 8 7 7 6 6 6 7
11 10 20 25 31 24 20 36 33 30 31 28 27 25 23 21 20 18 16 14 13 11 9 9 10 9 9 10 13 13 13 13 13 11 10 9 9 9 8 8 8 8 7
13 15 13 17 18 21 16 36 35 39 29 30 30 27 24 22 21 20 17 15 13 11 9 9 9 9 13 14 16 15 14 13 12 10 10 10 10 10 10 10 9 9 10
11 13 14 15 12 22 23 40 35 37 32 32 30 28 26 24 22 20 18 16 13 10 8 8 9 11 15 14 14 15 12 12 11 9 9 10 11 11 12 11 12 11 10
11 13 16 20 26 21 22 32 39 32 32 32 30 29 27 25 24 22 19 17 13 10 8 9 10 12 16 14 13 13 12 11 9 8 8 10 11 12 11 11 10 9 9
8 12 15 20 27 28 25 34 38 42 32 31 31 29 28 27 25 23 21 18 15 11 6 6 11 13 17 14 12 11 10 9 8 7 9 10 10 10 9 9 10 10 11
7 10 13 12 26 32 32 35 39 32 36 35 33 33 31 30 28 25 22 20 17 13 9 8 8 11 16 13 10 10 10 9 7 8 8 8 7 7 8 9 9 9 9
10 18 11 5 32 50 47 44 40 39 43 40 33 32 31 30 29 26 23 19 15 10 7 9 10 10 11 9 8 10 10 9 8 8 7 5 4 5 8 6 7 7 6
14 15 12 6 7 28 40 42 38 46 38 35 38 35 33 32 29 24 20 16 15 11 9 11 10 10 10 7 7 9 8 8 8 7 6 7 6 6 8 11 13 11 10
17 16 12 5 6 14 14 28 33 37 40 38 34 35 34 31 26 24 19 20 15 9 9 11 10 10 7 6 7 7 8 6 5 5 5 7 9 9 10 10 11 11 10
11 13 15 11 11 12 19 16 23 35 38 25 38 36 34 30 27 22 20 20 15 13 7 9 9 8 6 7 6 6 4 3 1 4 6 9 12 12 12 12 12 11 11
15 14 16 15 16 16 20 20 21 36 32 37 39 37 32 29 27 23 21 18 16 14 9 9 10 10 8 9 6 5 4 4 2 4 6 9 12 13 13 15 16 14 15
20 16 15 15 17 23 23 19 22 38 36 39 39 37 33 33 27 25 22 17 21 14 9 7 10 10 10 9 6 6 6 7 6 7 9 11 14 16 16 19 19 15 15
20 21 14 17 19 17 14 23 24 40 42 40 39 38 37 35 28 28 25 21 24 13 9 9 10 11 10 7 6 7 9 11 11 12 13 15 17 20 20 21 21 21 20
8 13 18 16 23 25 14 12 19 36 40 42 44 41 40 35 32 31 26 24 24 15 11 11 10 12 10 9 10 12 13 15 16 17 18 20 21 22 23 26 25 25 24
1 12 23 16 19 24 16 17 23 39 40 46 41 43 39 36 34 34 28 28 22 15 13 12 11 11 12 15 15 16 18 20 21 22 24 26 26 27 27 29 27 27 23
7 3 5 17 23 23 23 19 23 28 35 45 43 44 38 36 38 32 31 30 22 18 15 14 13 13 14 16 18 21 22 24 26 28 30 30 29 30 30 27 28 26 24
4 5 5 7 11 21 22 24 24 30 30 36 45 45 39 40 39 37 33 32 25 20 16 15 14 14 16 16 20 24 27 27 29 32 34 33 32 34 26 27 27 26 25
1 3 6 7 9 12 21 26 28 29 30 35 35 36 38 33 38 37 35 30 25 20 19 17 17 18 17 18 18 24 28 30 26 23 24 24 24 28 29 31 32 27 26
4 3 4 6 11 15 19 22 23 22 22 26 28 30 35 39 40 37 35 30 27 24 21 20 21 21 19 17 23 23 22 22 24 25 24 25 30 33 28 29 31 28 26
9 7 7 7 9 10 14 18 17 18 18 22 25 26 29 30 33 33 31 32 29 27 24 26 26 23 22 23 22 23 24 23 26 29 28 29 25 28 29 30 31 27 26
14 13 12 10 10 10 10 11 11 13 15 17 18 20 22 22 25 27 30 28 28 27 29 30 29 27 27 26 25 28 27 26 26 29 32 28 34 34 33 30 30 30 31

GFSSE_700_spd_048.txt.gz
Wind_Speed
17 18 13 12 17 20 18 18 22 18 26 25 26 24 17 13 11 11 11 12 11 10 9 9 9 9 9 10 10 10 11 11 12 13 13 13 14 14 13 13 12 10 10
12 12 13 20 19 20 18 18 17 10 29 28 26 25 22 16 14 12 12 11 10 9 9 9 10 10 9 9 8 8 10 10 11 13 13 12 13 13 13 13 12 12 12
16 17 23 24 22 19 19 18 23 17 29 25 26 26 23 18 15 13 12 12 11 11 12 11 11 10 9 9 9 9 9 10 10 11 11 11 10 11 11 11 10 10 9
15 18 19 21 18 20 18 21 17 18 29 21 24 24 22 19 18 17 15 14 13 12 12 12 10 9 8 8 8 9 9 10 10 10 11 10 10 11 11 10 9 9 9
13 18 20 21 22 19 15 16 18 23 29 29 24 24 22 22 20 18 17 15 14 13 12 11 10 8 7 8 9 9 9 9 10 11 11 11 9 10 10 9 9 9 9
18 17 19 23 24 14 15 20 21 29 25 26 25 26 25 22 21 19 18 16 15 14 13 11 9 8 8 8 9 10 12 13 13 11 11 11 10 10 9 9 9 9 8
16 20 22 26 27 24 24 26 34 38 27 35 27 27 26 25 23 21 20 17 15 14 12 11 11 10 10 11 13 13 14 13 13 12 11 11 10 10 10 11 11 10 10
17 21 19 27 30 28 28 29 17 37 31 30 29 29 28 26 25 23 20 17 15 14 12 10 10 12 13 14 15 15 14 13 13 11 11 11 12 13 13 12 12 11 11
16 20 22 27 29 27 27 19 23 41 35 36 31 31 29 28 25 22 20 17 15 13 12 12 13 14 14 16 16 15 13 12 12 11 12 13 14 12 11 11 10 10 9
14 16 17 22 27 25 20 16 27 41 39 34 34 33 30 29 26 24 21 17 14 13 12 12 14 15 14 15 15 12 11 10 11 11 11 12 12 10 9 9 9 10 10
17 14 16 17 18 27 19 23 29 38 37 42 37 36 34 31 27 23 18 15 14 14 13 13 13 15 14 14 11 10 11 10 11 10 10 10 9 8 8 9 10 10 9
13 14 15 13 12 25 33 28 28 40 46 42 39 37 33 30 26 22 18 15 15 14 11 10 10 15 13 10 10 10 9 9 9 9 8 7 6 7 7 9 8 6 5
12 15 18 9 8 19 43 42 33 45 40 43 39 36 34 32 27 22 17 14 11 12 9 5 11 15 11 8 9 10 9 9 9 8 8 7 6 4 4 5 5 6 8
9 16 14 11 9 7 37 33 39 48 44 46 41 38 34 31 26 21 18 13 11 10 7 8 10 12 9 9 9 10 10 9 8 6 6 7 7 5 6 6 8 9 9
11 11 9 9 5 11 28 44 37 41 40 43 47 44 36 31 26 22 20 17 12 9 5 9 10 11 9 8 10 11 10 7 5 3 4 5 5 6 7 8 10 13 14
11 12 10 8 10 16 22 28 30 32 42 46 40 38 34 28 26 24 22 19 13 10 7 8 9 9 8 8 8 8 7 5 2 1 2 4 6 7 9 10 12 13 13
16 16 14 17 18 11 15 17 26 32 37 28 37 36 33 29 24 23 22 20 15 13 10 9 10 10 9 8 7 7 7 5 4 4 5 7 10 12 13 13 15 15 15
21 21 18 13 18 15 18 23 22 33 35 29 38 38 34 29 29 25 24 19 15 16 13 11 10 10 9 9 9 9 8 8 9 9 9 12 15 17 17 18 19 20 20
16 21 18 13 12 22 21 13 29 37 35 35 34 36 34 33 30 26 21 21 20 21 15 12 9 10 11 12 13 11 11 13 12 13 15 17 19 22 22 21 22 23 24
4 14 22 12 16 20 19 14 20 37 39 39 43 38 37 35 33 26 25 23 25 21 20 14 12 13 14 15 13 13 14 16 17 18 20 21 23 26 27 25 25 24 26
7 4 12 26 19 22 24 22 21 30 35 38 42 43 41 38 34 29 28 27 26 23 18 17 17 16 17 14 14 14 16 19 23 24 23 22 22 23 26 26 30 24 26
6 6 4 18 23 21 24 24 23 30 29 39 39 42 43 40 35 35 36 29 28 27 22 19 20 16 16 16 15 17 17 19 19 22 23 20 24 21 20 21 25 29 28
5 4 3 4 16 26 23 27 18 29 31 34 39 42 40 40 41 36 26 31 34 29 25 22 21 18 18 18 17 20 21 22 23 18 19 21 23 21 23 23 25 29 30
1 4 5 5 4 10 20 27 24 26 28 30 30 34 41 38 39 36 35 39 37 32 28 24 23 23 22 21 21 20 20 22 25 26 20 21 23 26 24 22 23 30 26
5 3 1 5 7 7 10 12 14 14 19 26 27 31 37 35 33 36 35 37 37 34 31 29 28 27 27 26 25 24 27 27 27 26 26 27 27 26 28 29 35 30 30
10 7 5 4 5 7 10 12 12 12 14 17 18 20 24 29 32 33 35 35 34 35 31 32 31 33 33 32 30 30 27 29 31 32 29 28 30 32 30 36 31 29 33

GFSSE_700_spd_051.txt.gz
Wind_Speed
14 13 14 13 6 8 14 26 17 15 14 18 24 15 13 13 9 8 8 12 13 11 10 11 11 12 11 10 11 11 11 12 12 13 14 13 13 13 13 12 11 11 10
18 15 17 16 13 13 18 20 16 19 12 19 25 19 16 14 13 10 10 11 11 11 11 12 11 10 9 9 9 10 11 11 12 13 13 13 14 14 14 13 13 12 12
16 20 20 21 19 19 16 18 18 20 18 22 27 29 19 19 16 13 13 13 12 11 12 12 11 10 9 9 9 9 10 11 12 13 13 12 13 13 12 11 10 10 10
18 21 24 19 20 18 19 14 21 18 21 21 24 28 21 21 19 16 14 14 13 13 13 12 9 8 8 8 8 9 10 10 10 10 10 10 10 11 10 9 9 10 10
17 18 19 17 21 18 21 19 19 18 23 23 22 28 23 21 20 16 15 14 14 15 13 10 9 8 8 8 8 9 9 10 11 12 12 11 10 11 10 10 9 9 9
17 21 21 18 21 19 22 16 17 19 21 32 30 28 20 21 20 18 16 15 13 12 11 10 9 7 7 8 8 8 9 12 12 12 11 10 10 10 9 9 9 9 9
18 23 26 24 26 25 24 24 24 22 25 34 30 26 22 21 22 19 17 16 16 13 11 9 8 7 8 9 10 11 13 13 12 12 11 10 10 10 10 10 10 11 11
22 25 29 28 30 34 30 25 28 24 26 28 34 29 24 24 22 20 19 18 16 14 11 10 9 9 11 12 14 13 13 12 12 11 11 12 13 13 12 12 12 12 11
24 27 32 31 31 37 31 27 34 24 31 33 34 32 26 25 24 22 21 19 16 14 13 12 12 12 13 13 14 13 12 11 11 10 12 13 13 12 12 11 11 11 10
22 25 30 36 40 36 35 31 31 29 29 43 34 35 29 27 25 24 22 19 16 14 13 12 14 14 14 14 14 13 12 11 10 11 12 13 11 11 11 11 10 10 10
22 19 24 23 25 28 32 35 29 30 32 35 41 33 30 29 28 25 22 19 17 16 16 15 13 13 13 13 13 12 12 12 12 12 12 11 11 10 10 9 9 9 8
16 22 25 26 22 18 21 26 21 31 38 38 34 32 31 29 27 25 23 20 18 17 15 14 11 11 13 12 11 12 13 11 11 11 9 8 7 7 6 7 6 5 5
15 21 22 22 21 16 22 30 28 33 36 38 33 34 32 32 29 25 23 22 20 16 14 15 12 11 11 11 12 13 13 11 11 11 10 9 7 5 5 4 3 3 4
13 13 14 15 11 16 23 40 37 43 39 37 36 37 35 31 27 24 21 21 17 16 14 12 5 14 11 12 14 12 13 13 11 10 10 9 8 6 5 3 2 3 4
9 11 12 14 13 20 16 42 45 45 41 40 43 38 35 30 26 23 22 20 17 14 11 4 10 13 12 11 12 13 12 11 10 8 7 7 6 3 2 4 6 7 7
13 11 12 10 12 9 25 41 40 37 46 49 44 36 32 28 23 23 21 20 20 14 11 7 9 12 11 11 11 10 11 9 7 5 4 3 1 2 5 8 8 8 10
13 15 14 12 9 5 23 30 30 30 43 50 51 44 36 31 26 24 22 20 17 14 8 5 7 10 11 11 12 11 11 10 9 5 4 3 5 8 12 14 15 14 14
13 17 14 16 14 16 15 32 29 45 42 44 43 43 35 33 27 22 22 18 16 12 7 8 8 14 14 14 13 12 13 12 8 8 6 7 10 13 15 18 19 19 20
9 19 19 16 12 13 19 18 29 33 26 33 46 43 39 33 28 23 22 20 17 12 8 12 9 13 16 15 15 14 13 12 11 9 10 12 14 16 18 22 23 22 21
4 16 16 17 16 10 19 23 19 26 31 25 42 43 39 35 30 27 27 25 19 16 14 16 14 14 17 19 18 16 14 14 11 13 16 17 17 19 22 25 25 25 24
5 5 24 18 14 21 25 18 26 30 32 34 40 42 40 36 33 31 31 28 24 20 18 22 19 15 17 17 17 16 16 14 11 14 20 20 19 21 22 20 20 24 22
3 2 5 24 19 18 30 19 26 14 38 33 37 43 42 41 37 36 33 29 27 25 23 21 20 16 18 18 19 18 18 16 12 16 17 18 19 20 20 18 23 25 23
3 2 4 7 23 19 24 24 23 20 37 37 40 45 48 46 42 40 37 31 31 29 25 21 23 20 21 23 22 22 20 19 18 19 18 15 18 20 21 23 27 20 23
3 4 3 5 8 28 28 23 33 20 24 29 23 33 47 48 47 42 43 37 34 32 28 25 26 25 25 25 26 23 23 22 20 23 21 22 20 22 24 22 26 24 26
6 5 4 5 7 8 18 27 29 28 21 23 25 24 37 43 36 40 40 38 35 32 31 31 28 27 26 28 28 28 28 28 29 29 29 26 27 25 26 21 29 27 27
11 8 6 6 8 7 7 10 17 22 23 24 25 28 35 40 35 33 32 36 37 33 34 34 32 33 31 33 34 34 34 34 36 35 33 29 29 30 26 29 31 31 30

GFSSE_700_spd_054.txt.gz
Wind_Speed
13 13 15 12 13 14 21 22 14 16 12 16 13 16 12 6 5 2 6 11 13 12 11 11 12 11 10 9 9 10 9 10 10 10 10 11 11 11 11 10 9 8 8
16 18 16 18 18 16 19 14 15 18 13 19 14 21 12 15 7 4 9 13 12 11 10 11 11 11 10 9 9 10 11 11 12 12 12 13 13 13 12 12 12 12 12
11 18 18 21 22 21 17 15 6 18 19 18 15 18 16 17 10 7 8 13 13 12 13 12 12 10 10 11 11 11 12 11 12 13 13 13 14 13 13 12 11 11 11
12 18 22 25 26 23 24 18 18 17 22 19 16 17 16 16 13 9 10 13 12 11 11 11 11 10 9 9 10 11 12 12 12 12 11 10 11 11 10 10 9 10 9
14 17 24 26 28 24 26 22 22 24 22 22 19 19 16 15 19 10 13 13 13 13 12 12 11 9 8 8 9 9 10 11 11 11 10 10 9 10 9 9 8 9 8
18 18 23 26 28 27 26 25 22 20 20 23 21 22 15 16 20 15 15 15 14 14 13 10 8 8 7 8 8 9 8 9 10 10 9 9 9 9 9 9 8 8 8
20 19 24 27 28 28 31 27 23 23 23 23 24 25 16 17 19 17 17 16 16 15 13 10 9 7 7 8 8 8 10 11 11 10 10 9 8 9 10 10 10 10 10
22 22 26 28 29 32 31 31 27 23 25 26 26 28 20 17 20 19 17 19 16 15 12 9 8 7 7 9 10 12 12 13 12 11 10 9 12 12 12 12 11 10 10
26 27 28 30 34 32 34 34 28 28 30 27 29 30 22 19 20 19 20 19 17 13 9 9 8 8 10 12 13 13 13 13 12 11 12 12 13 12 12 11 10 10 10
25 27 31 34 34 35 37 39 31 27 33 27 31 30 33 21 21 20 22 19 17 13 12 10 10 13 14 15 15 14 13 12 13 13 13 12 12 12 11 10 11 10 9
23 26 27 40 40 39 40 32 34 31 38 32 31 31 34 24 24 26 22 20 17 15 13 13 13 13 14 15 15 15 14 14 13 13 13 12 12 11 10 9 9 9 8
17 21 22 24 17 42 38 39 35 38 30 33 34 37 30 27 30 25 24 21 18 16 16 15 14 13 14 13 15 16 15 14 14 13 11 10 9 8 7 6 6 6 4
16 15 21 18 20 26 39 40 43 29 34 29 33 37 45 33 29 28 25 22 21 20 19 18 16 14 13 13 13 15 15 14 14 12 10 9 8 5 4 5 3 2 1
8 13 16 22 21 18 16 21 32 26 33 30 32 36 32 32 31 28 26 24 22 22 19 16 12 14 12 13 14 14 14 14 14 13 11 10 9 7 5 3 2 1 2
11 14 17 20 22 18 16 22 32 37 32 34 37 37 35 34 30 27 25 24 23 21 20 17 11 11 12 13 15 15 15 14 14 12 11 9 8 6 3 0 2 4 6
9 12 14 17 18 18 19 23 31 43 38 40 37 35 37 34 29 27 25 25 24 23 20 17 8 12 13 15 15 16 17 14 12 10 8 8 6 4 2 3 5 9 10
9 12 14 15 16 13 16 19 37 41 36 39 41 39 36 31 30 29 25 25 24 23 20 16 12 13 13 14 16 16 15 14 11 8 8 7 7 5 7 8 10 12 14
8 12 18 16 14 11 17 13 28 40 36 38 42 39 38 37 33 32 29 27 24 20 18 13 11 12 14 15 15 16 15 14 11 11 9 9 8 11 11 13 16 19 20
10 11 17 12 14 11 16 13 24 31 40 42 48 45 45 45 38 29 29 27 23 20 16 12 12 12 14 15 17 17 17 15 13 11 11 11 13 15 16 17 20 23 24
9 7 15 16 14 10 9 15 18 34 31 41 43 56 50 42 34 32 31 27 24 20 14 12 12 12 14 17 19 19 18 15 14 13 12 15 17 18 18 22 22 22 20
6 4 10 15 17 18 18 20 20 27 32 35 40 37 42 38 38 34 32 29 26 22 18 15 16 14 15 16 20 20 19 20 16 14 14 14 18 22 22 22 22 22 23
5 3 3 13 16 19 14 18 19 21 20 22 34 42 44 44 38 35 33 30 29 24 24 22 19 18 16 16 18 20 21 21 19 17 17 17 19 18 20 23 22 25 25
3 3 3 5 21 16 22 21 19 26 29 36 33 48 50 46 42 37 33 32 30 27 28 25 22 19 17 16 19 21 23 22 18 19 20 21 21 16 18 20 23 23 23
4 2 2 2 13 18 19 29 21 28 24 37 36 43 50 49 46 40 37 35 32 32 32 29 28 22 21 20 21 21 22 23 22 20 26 23 25 25 21 21 23 23 22
8 5 4 2 4 12 23 21 19 32 18 23 37 41 45 48 46 45 44 42 40 38 34 31 30 26 25 23 24 23 25 28 29 30 31 34 33 31 30 25 26 26 27
13 9 7 7 6 7 9 17 22 23 27 20 25 34 36 47 49 49 46 46 42 41 42 35 35 32 30 29 29 29 30 31 33 35 37 37 44 42 40 33 31 30 30

GFSSE_700_spd_057.txt.gz
Wind_Speed
18 11 15 16 12 12 16 18 19 13 10 10 9 6 5 5 6 7 7 10 11 12 10 10 11 10 10 9 9 10 10 10 10 9 10 11 11 10 8 7 6 5 5
14 11 14 17 18 17 18 17 16 19 16 13 11 10 9 5 6 6 7 10 10 12 11 11 11 10 9 10 10 10 10 10 9 9 9 9 9 8 7 7 7 7 7
13 9 15 17 20 21 26 24 17 13 14 15 14 13 11 7 6 6 6 8 12 11 10 9 10 9 8 8 10 10 11 11 11 10 9 9 10 11 10 10 9 9 9
15 16 17 18 22 25 25 23 20 21 17 22 17 15 13 13 8 7 8 9 11 11 11 11 9 8 8 9 9 11 11 11 11 10 9 10 11 11 10 9 8 8 9
19 18 19 20 25 29 26 27 26 25 22 24 20 16 14 12 9 8 9 10 15 11 11 11 10 9 9 10 10 11 11 10 9 8 9 9 9 10 10 10 9 9 9
19 19 19 22 26 32 30 31 28 29 24 23 22 17 16 14 9 5 12 11 10 12 12 11 10 10 10 10 10 10 10 10 11 10 10 10 9 10 9 8 8 8 9
19 21 21 23 28 33 35 32 33 30 26 25 21 19 19 14 11 8 11 12 14 14 12 12 11 9 9 9 10 10 10 12 12 10 10 10 10 10 10 9 9 10 9
19 21 23 20 29 37 37 36 31 29 27 25 23 20 22 17 12 10 12 15 15 13 13 11 9 10 10 11 11 12 13 14 12 11 10 9 10 10 11 11 11 10 10
20 23 24 25 28 36 36 36 25 29 28 26 25 23 17 28 13 14 16 16 15 15 13 10 10 10 10 11 12 14 14 13 13 11 11 10 12 12 11 11 11 10 10
22 23 29 30 30 34 33 37 31 33 31 26 24 21 21 21 23 17 17 18 17 13 11 10 10 11 11 13 14 15 14 13 14 12 12 12 12 12 11 11 11 11 10
23 22 29 31 32 30 32 35 32 25 27 25 25 23 26 23 24 20 20 19 16 14 11 11 10 11 12 13 15 16 16 16 15 14 14 14 12 11 11 11 11 10 9
15 17 22 26 27 33 38 35 35 32 24 26 28 28 29 35 29 25 23 21 18 16 14 13 13 12 12 14 15 15 15 17 16 15 13 12 11 10 9 9 8 7 5
13 15 18 20 26 29 47 37 32 31 29 31 30 29 31 26 33 29 26 24 21 18 16 16 15 15 14 15 15 16 15 15 15 14 12 11 9 8 8 7 5 4 2
13 11 11 16 17 16 20 45 38 27 28 33 30 27 33 36 35 29 28 25 22 20 19 18 17 16 16 17 16 16 17 14 14 13 13 12 10 9 8 6 3 1 1
14 14 15 13 17 10 9 25 34 41 31 29 32 32 31 39 33 31 27 25 23 22 21 18 17 15 16 17 17 17 15 14 13 13 12 11 10 7 6 4 2 2 3
12 13 16 17 18 19 18 20 15 28 28 37 31 35 35 36 35 30 28 25 24 24 22 21 18 16 15 16 16 16 15 15 14 13 11 10 8 8 5 4 5 6 8
11 13 16 15 16 17 15 17 19 31 32 33 33 36 36 39 35 32 29 26 27 23 24 22 19 16 15 16 17 17 17 15 13 13 11 11 10 9 8 9 9 11 13
10 15 16 17 16 17 19 16 25 31 41 39 37 31 43 41 34 30 30 28 26 26 25 23 19 15 15 16 17 18 17 16 14 11 12 12 11 11 12 13 13 15 16
13 13 13 14 18 18 13 19 12 27 40 37 43 45 45 38 32 32 32 28 27 27 26 21 19 15 15 17 18 19 18 16 15 16 14 12 13 17 15 16 20 18 18
12 10 11 16 18 11 14 7 8 21 43 42 39 46 40 39 36 37 37 31 26 27 24 21 18 15 14 16 17 18 18 18 17 17 16 16 15 16 21 26 23 21 21
10 8 5 14 16 15 9 6 14 35 35 31 39 46 45 46 47 47 38 36 28 27 24 19 17 16 14 14 19 18 19 19 18 19 18 17 17 16 17 23 20 21 19
8 7 6 10 14 14 10 11 12 20 25 33 35 40 51 50 47 42 41 37 28 30 27 22 20 17 17 16 15 16 19 21 21 21 20 20 20 19 20 18 16 19 22
7 9 4 6 12 16 15 16 17 20 33 33 32 30 42 52 51 48 44 35 35 32 30 24 23 18 23 19 17 16 12 15 16 20 22 23 23 24 25 22 18 20 20
8 9 5 3 8 17 16 20 24 20 25 24 23 24 32 49 48 44 41 37 39 34 34 29 27 25 22 25 20 19 18 18 14 17 23 23 23 25 25 25 28 33 28
11 8 7 3 4 14 21 20 25 20 20 19 23 25 37 42 48 48 47 42 41 39 38 34 33 31 26 28 26 22 21 21 23 27 28 28 31 29 29 29 30 35 35
11 11 8 6 3 6 14 17 25 21 21 21 24 34 33 38 40 41 48 45 44 42 40 38 35 34 31 34 30 27 24 24 24 25 27 28 30 34 39 36 38 41 45

GFSSE_700_spd_060.txt.gz
Wind_Speed
8 15 11 15 13 12 14 16 16 17 13 12 13 12 8 8 8 7 11 11 12 13 12 11 11 10 10 9 9 9 9 9 9 10 10 10 9 7 6 7 6 6 5
11 11 10 12 17 17 16 15 18 17 11 12 14 11 8 8 8 6 8 12 12 12 9 9 10 10 9 9 9 9 9 9 10 9 8 8 10 10 9 10 8 7 7
17 12 10 11 17 21 21 22 23 17 13 14 17 13 10 10 9 6 7 11 13 11 10 9 10 10 9 9 10 11 11 11 10 9 9 10 10 11 11 10 10 9 9
21 14 12 13 18 22 23 25 26 24 21 17 13 14 12 11 9 7 5 9 13 12 10 10 9 9 10 11 12 11 10 11 11 12 11 11 12 12 11 11 9 9 8
19 22 16 16 21 25 25 27 24 24 23 20 16 16 14 13 9 7 5 6 12 12 11 12 9 9 11 11 11 9 10 9 10 12 12 12 11 11 12 11 10 10 10
17 23 20 18 21 27 31 31 28 25 26 25 20 19 16 14 12 7 6 6 11 14 12 11 11 10 11 11 12 12 12 12 12 11 12 10 11 11 11 11 11 10 10
15 22 21 21 20 25 32 35 33 31 32 28 24 23 20 20 14 10 8 10 12 12 11 14 12 11 11 12 12 12 12 11 11 12 11 11 10 9 9 9 9 9 10
16 20 23 23 23 27 33 38 36 36 35 33 26 25 20 17 15 13 12 10 12 15 14 12 11 12 13 13 14 14 11 13 12 12 12 11 10 10 10 10 10 11 10
20 21 24 23 24 25 33 41 36 30 27 32 28 24 22 20 19 12 14 16 15 13 14 13 12 12 13 13 13 13 13 11 13 13 11 11 11 12 12 12 11 11 11
20 20 23 24 24 27 29 40 41 36 29 29 31 25 21 19 21 15 14 18 16 15 15 14 12 12 13 14 14 13 12 12 13 12 13 13 13 12 12 12 12 12 11
15 16 21 26 27 30 30 32 40 31 36 26 29 24 23 22 26 17 14 14 17 17 15 13 13 13 14 17 17 16 16 14 12 14 14 13 13 12 12 13 13 12 11
9 11 16 19 25 28 30 29 28 26 34 27 29 28 28 24 26 31 23 20 20 19 16 15 15 15 16 17 17 16 15 15 14 15 14 13 13 12 12 12 11 10 9
8 9 11 14 19 21 24 23 27 27 27 27 33 32 26 26 27 25 26 26 22 20 18 16 16 16 16 15 17 18 15 15 16 15 15 14 12 11 11 11 9 8 5
8 8 12 8 18 16 19 27 29 26 22 25 27 25 23 18 25 31 27 25 23 20 18 18 18 18 19 18 18 15 15 14 16 14 13 13 11 10 11 10 8 5 3
10 10 11 11 15 14 15 19 19 28 23 25 29 28 24 24 22 34 32 27 24 20 20 19 18 18 18 18 16 17 16 14 15 14 13 11 11 11 10 8 6 4 1
13 12 13 15 16 18 13 8 12 18 21 23 30 31 25 23 32 33 32 27 22 22 22 20 18 16 17 17 18 19 19 14 15 15 13 12 12 11 9 6 4 3 5
13 14 15 15 19 19 16 13 14 16 13 22 28 26 23 27 30 36 32 27 25 24 23 23 20 18 18 17 18 18 16 14 16 15 14 13 11 10 8 6 6 7 9
13 14 16 16 16 13 12 13 17 21 19 23 28 30 34 35 36 36 29 28 28 26 25 25 21 20 19 17 16 16 16 16 13 14 14 13 13 12 10 10 10 11 14
14 15 16 11 13 19 20 22 21 23 25 30 32 27 28 39 42 37 31 31 30 23 27 27 23 20 18 15 16 17 17 17 14 13 15 16 14 14 14 13 14 15 16
11 15 13 9 12 17 19 16 18 19 21 22 33 28 39 39 45 37 40 35 35 33 30 27 24 21 18 16 16 18 18 18 16 16 16 16 18 20 16 16 16 17 19
8 12 10 8 13 16 17 12 15 7 14 26 37 39 33 44 47 43 38 39 38 33 29 25 24 20 18 17 18 18 19 19 18 17 17 18 19 18 21 21 15 15 15
8 10 10 8 11 12 13 10 5 11 17 35 35 32 31 44 48 51 46 39 35 32 29 25 24 21 20 17 17 18 18 20 20 18 19 19 20 22 19 22 20 16 16
8 8 8 8 7 12 15 14 10 15 26 36 36 30 34 49 53 52 46 33 36 34 35 33 25 22 20 18 16 18 18 19 16 16 16 20 21 23 22 22 22 22 23
8 6 8 8 8 8 16 15 14 14 20 24 26 21 26 37 48 47 44 37 39 43 41 34 26 27 23 20 21 20 18 17 15 20 19 19 21 21 21 22 24 24 26
8 6 5 7 8 7 10 15 16 18 15 19 21 21 23 29 42 44 45 43 43 40 43 32 32 30 28 24 20 24 23 21 22 22 22 22 24 25 26 26 27 29 30
8 5 5 6 6 7 7 13 16 18 20 20 26 26 22 26 35 44 46 48 46 46 43 37 36 34 30 29 28 27 31 28 25 27 28 28 31 30 29 30 28 31 33

GFSSE_700_spd_063.txt.gz
Wind_Speed
5 7 8 13 10 12 17 18 18 19 18 16 15 14 14 13 14 14 16 15 14 12 12 11 11 11 11 10 9 9 8 8 8 9 11 13 13 10 10 11 9 7 5
6 9 9 10 12 13 15 18 19 20 18 15 15 17 15 14 13 14 14 14 13 12 11 10 11 11 11 11 10 9 10 10 9 9 10 12 12 11 11 10 8 6 6
14 16 14 12 13 18 21 20 21 23 20 15 17 16 13 14 12 12 13 15 15 14 12 12 12 10 10 11 12 12 11 10 10 11 12 13 14 13 12 10 9 8 8
26 21 19 16 15 20 23 25 28 28 25 19 19 17 13 14 13 13 13 15 15 15 13 13 12 11 11 11 13 13 13 14 14 14 13 13 12 12 12 12 11 10 10
28 25 21 18 18 20 23 26 28 28 26 22 20 19 18 17 13 13 13 15 16 16 14 13 13 12 11 11 11 13 15 15 15 14 13 11 11 11 11 10 9 9 9
21 25 20 20 19 21 25 27 28 28 25 26 25 22 23 19 15 15 12 15 16 16 15 14 14 14 14 14 14 15 15 14 12 12 13 12 11 11 12 11 10 9 8
20 23 22 20 19 23 28 30 31 31 29 29 27 24 25 21 20 17 15 15 17 16 17 16 15 15 15 14 15 14 10 10 12 13 13 12 12 12 10 10 9 8 8
24 25 23 21 22 22 28 30 33 33 31 30 31 25 24 24 22 21 15 14 16 17 17 16 16 14 15 15 13 11 8 10 14 14 12 12 11 10 10 10 10 10 10
29 27 26 24 23 23 26 32 35 35 34 32 33 30 30 27 22 22 17 16 18 18 19 18 16 17 14 13 12 12 10 11 13 12 12 10 10 11 11 12 13 12 11
29 24 25 24 23 24 26 31 38 42 34 29 32 27 29 23 18 21 20 21 20 21 20 18 17 14 14 15 16 14 11 13 14 12 11 11 12 13 12 12 11 12 11
22 9 18 20 23 26 26 29 32 36 37 38 33 27 27 21 20 25 21 22 22 21 20 17 16 16 16 18 16 14 14 14 13 12 13 14 14 13 12 13 14 14 13
16 6 10 14 20 26 27 25 26 27 30 29 34 24 30 28 22 24 26 23 24 26 22 19 18 18 19 19 19 15 15 14 14 14 15 14 14 14 15 15 15 14 13
11 6 7 9 17 19 21 21 26 23 26 19 24 35 37 32 24 26 25 25 24 22 22 21 20 21 20 20 19 15 13 16 16 15 14 14 14 14 14 14 12 10 8
10 11 9 9 7 12 16 18 20 21 21 23 30 35 36 29 26 33 30 23 24 21 19 19 22 23 22 22 19 14 13 15 16 16 15 13 13 13 13 12 10 8 6
12 11 14 12 10 10 12 18 18 24 20 16 32 37 30 23 11 28 26 32 29 24 22 23 24 24 23 22 19 16 13 16 17 16 15 14 12 12 12 11 10 7 6
14 13 15 13 13 15 12 12 8 13 19 14 18 29 26 23 19 19 27 31 28 26 25 24 24 23 22 20 20 17 13 17 18 17 16 14 13 12 12 11 9 6 4
12 14 15 16 14 15 16 13 6 11 17 19 23 23 23 26 23 23 27 36 28 27 26 26 24 23 22 20 20 16 15 13 17 18 17 16 13 12 11 9 8 6 5
10 13 15 15 10 9 15 19 17 15 17 11 20 22 30 28 26 27 30 39 29 27 25 25 25 24 20 19 18 16 13 13 16 17 17 16 16 15 13 10 8 8 9
10 11 14 13 8 10 14 17 17 18 18 20 13 26 28 27 22 27 36 37 32 28 27 27 26 21 20 20 20 17 16 15 16 16 16 16 15 13 13 12 11 12 14
10 8 12 13 8 12 18 18 17 20 22 27 22 30 34 31 31 30 37 32 29 26 29 30 28 23 21 20 20 19 19 17 17 18 18 16 15 15 15 13 12 12 13
10 7 10 10 9 11 16 18 17 23 26 22 27 31 28 29 33 37 41 40 40 35 33 31 28 25 24 22 21 20 21 20 18 16 18 17 19 18 16 16 13 11 10
9 7 8 9 9 10 14 16 16 16 15 24 28 30 34 29 38 41 42 43 42 36 39 33 32 29 25 22 20 20 20 20 20 19 18 19 18 20 19 18 15 14 14
8 7 6 9 8 9 11 12 14 10 18 24 22 34 28 32 40 40 45 43 38 43 34 31 31 31 27 21 20 17 17 19 18 20 21 21 20 23 24 20 19 18 18
6 8 5 7 8 8 7 8 13 10 2 10 27 37 32 29 33 47 43 48 44 40 34 33 32 35 39 23 23 19 17 18 19 22 24 23 21 22 21 21 23 20 21
6 7 6 5 7 7 5 6 12 11 7 10 21 31 14 20 37 48 49 49 49 37 38 35 36 40 30 23 24 21 20 21 20 21 22 18 21 19 17 20 22 24 24
10 6 7 3 5 6 6 4 7 10 11 12 20 31 23 21 30 40 36 46 49 43 43 42 36 37 34 29 27 27 24 24 24 23 25 25 26 27 28 28 29 25 25

GFSSE_700_spd_066.txt.gz
Wind_Speed
3 3 6 9 13 8 14 17 18 19 21 21 19 18 18 18 18 18 17 16 13 12 12 13 13 13 15 13 14 13 10 8 9 14 15 13 12 11 11 10 10 9 9
5 5 8 9 11 10 15 19 20 22 23 21 19 18 18 18 19 19 19 17 15 14 14 13 14 14 14 13 13 13 12 10 10 10 12 13 13 12 12 12 9 7 6
11 14 15 14 12 14 17 19 22 23 24 22 21 20 19 17 16 17 18 17 16 15 14 13 14 14 13 13 13 12 11 11 12 12 13 14 12 11 11 10 8 7 6
23 23 24 22 18 17 19 22 25 26 27 23 23 22 19 16 15 14 16 18 17 17 16 15 16 15 14 13 12 11 11 12 12 11 12 13 12 10 10 9 9 8 7
18 20 20 19 20 19 21 25 28 28 30 28 25 24 21 19 18 16 17 19 19 19 19 17 16 15 15 13 11 11 11 12 12 13 12 11 10 11 10 10 9 8 8
20 23 23 19 20 21 23 27 29 30 31 31 26 26 24 23 21 18 18 21 22 22 20 20 18 16 17 17 15 13 10 10 11 12 13 12 12 10 10 9 8 7 7
24 27 25 23 21 23 25 28 31 31 33 32 29 27 24 26 25 21 18 21 23 21 21 20 19 19 16 15 13 11 11 12 14 12 12 11 10 10 9 9 8 9 8
28 30 29 25 24 24 25 30 34 36 36 34 32 31 29 28 25 21 20 21 23 22 20 20 20 18 16 17 13 12 13 13 12 12 12 12 10 9 9 9 10 10 9
30 29 31 29 27 26 27 30 31 38 42 32 36 36 36 28 27 24 19 20 21 22 20 20 18 18 18 14 12 14 14 14 12 12 13 11 10 10 10 10 10 10 11
28 30 27 23 27 27 27 30 32 32 23 29 34 29 32 36 33 31 26 28 20 23 22 20 19 19 16 15 15 14 13 14 12 14 13 11 10 10 11 12 12 12 12
26 21 14 15 20 24 26 28 30 34 33 31 32 29 28 29 32 31 24 26 30 23 24 22 20 20 20 16 14 10 13 13 14 15 13 12 12 12 13 14 13 13 12
22 14 10 11 16 21 24 26 27 27 29 37 36 31 29 25 26 26 25 27 27 28 27 23 23 23 19 16 12 13 15 15 17 15 14 14 13 13 14 13 14 14 14
17 14 9 9 10 17 20 25 29 28 26 23 29 36 32 30 30 28 27 28 30 29 28 27 26 23 22 14 14 15 16 17 16 15 15 14 14 14 14 16 16 15 13
14 12 12 12 11 13 13 17 20 26 27 24 24 23 25 39 29 28 30 29 31 32 29 28 25 25 20 17 17 17 17 15 16 17 16 15 15 14 14 15 14 12 10
14 11 13 13 13 13 12 13 17 21 22 23 22 24 37 38 29 27 27 29 30 28 25 25 26 26 20 18 17 18 17 20 19 18 17 16 15 14 13 13 12 11 9
14 15 14 12 14 15 13 13 13 19 21 23 20 20 39 42 32 29 31 29 28 27 26 25 25 25 24 22 19 19 19 20 20 19 18 17 15 14 13 13 11 10 8
15 16 15 13 15 16 15 16 12 11 13 14 17 37 37 29 22 20 33 38 40 32 27 28 28 27 26 24 21 17 18 18 20 19 19 17 15 14 13 12 11 9 7
14 15 14 12 12 10 13 16 15 9 15 16 17 27 34 25 26 22 28 29 32 34 32 30 30 28 27 24 19 17 16 16 20 20 20 19 17 15 14 13 11 8 7
15 15 14 12 8 7 11 15 18 15 16 18 19 24 31 32 27 26 27 28 33 33 32 30 29 28 26 23 21 17 16 17 18 19 19 18 17 16 14 13 10 9 9
15 14 15 11 7 4 11 15 18 21 20 19 19 23 26 29 30 29 28 33 37 35 32 32 30 29 26 25 22 20 19 17 16 18 17 17 16 16 15 13 11 11 11
13 13 14 12 8 3 9 14 18 19 23 22 26 23 22 34 32 29 27 36 41 42 34 34 35 32 30 27 25 23 21 20 20 19 20 18 18 18 17 16 14 13 12
12 12 11 12 8 5 9 13 18 19 21 24 28 24 30 34 28 27 31 37 43 41 36 34 33 34 28 27 26 26 25 24 23 22 24 23 22 22 20 19 17 15 15
10 11 10 11 7 6 6 12 15 19 20 26 32 33 31 37 30 29 34 43 45 40 40 35 33 33 31 33 30 28 28 21 18 23 24 23 24 23 22 22 19 19 19
10 11 10 11 7 5 2 11 12 13 11 17 29 31 29 33 34 31 38 45 46 41 40 40 38 34 32 34 33 29 29 16 21 22 23 23 24 26 23 23 23 22 20
11 12 11 10 8 5 4 3 11 12 10 21 29 36 38 38 31 32 43 46 46 47 45 43 40 38 33 32 36 39 25 20 21 19 20 21 25 26 22 22 23 21 19
12 12 12 9 8 6 5 2 3 7 9 12 23 30 31 29 28 36 44 45 42 43 45 41 46 29 28 33 38 33 22 23 19 21 21 20 23 20 21 23 25 24 26

GFSSE_700_spd_069.txt.gz
Wind_Speed
9 10 8 8 8 9 8 13 17 20 22 22 23 23 23 21 18 17 16 15 15 14 13 15 15 13 13 14 15 14 11 10 11 15 13 13 12 11 12 12 11 9 9
10 8 7 8 11 11 10 15 18 20 22 24 24 23 22 21 19 17 16 15 15 14 14 15 15 15 15 15 16 14 11 9 13 17 15 15 11 11 11 10 10 7 7
8 9 11 13 15 14 14 15 19 21 23 25 25 23 22 20 19 17 16 16 15 15 15 15 15 15 16 14 14 13 11 11 10 12 12 11 11 9 10 10 7 6 6
18 20 18 18 19 21 19 20 21 22 25 26 25 24 23 21 19 17 17 17 17 17 17 17 16 16 16 16 15 15 14 12 11 11 10 11 10 8 9 8 7 7 8
16 15 15 16 15 17 22 23 25 25 28 29 28 26 24 22 20 19 18 18 20 20 20 19 18 18 18 16 15 14 11 11 12 11 10 9 9 9 9 9 8 8 8
13 17 20 20 18 17 22 25 27 28 30 31 32 31 29 25 22 21 20 21 22 22 21 21 22 21 18 15 14 12 11 9 8 9 10 10 10 9 10 9 9 8 7
19 23 24 23 21 20 22 27 29 31 32 34 34 33 31 27 25 23 22 21 23 23 24 24 24 23 18 14 12 10 10 10 9 8 10 12 11 10 10 9 8 7 7
22 26 30 26 24 24 23 25 28 31 35 37 38 39 36 30 27 27 23 22 24 25 27 26 25 20 16 15 12 12 10 9 10 12 12 12 10 10 8 9 8 7 6
22 27 31 31 28 22 22 23 27 31 39 45 45 35 29 38 31 28 24 22 24 26 25 24 20 17 17 16 14 12 12 11 12 13 13 12 12 10 10 9 8 8 9
24 29 30 29 24 20 23 25 27 32 34 39 36 41 36 37 39 28 30 22 22 24 24 23 20 19 16 15 15 14 13 12 14 14 15 13 11 10 10 10 10 10 11
24 27 27 21 17 15 18 24 26 29 33 36 30 23 39 36 30 31 25 22 21 22 25 25 23 20 18 17 15 15 14 13 15 15 15 12 12 12 12 12 12 12 12
22 26 22 17 14 12 14 19 23 26 31 30 28 30 30 31 31 33 28 26 22 21 25 25 24 21 19 16 17 15 15 17 16 16 14 12 12 12 13 13 13 13 13
22 24 18 16 13 13 13 17 21 25 26 28 28 31 22 35 32 31 31 33 29 31 27 28 25 21 20 18 14 17 18 17 16 17 14 14 14 13 12 13 13 14 14
22 20 17 14 14 16 16 15 20 24 27 27 27 28 29 26 31 28 30 28 31 34 32 27 24 23 20 19 18 18 17 16 17 16 16 15 15 14 14 14 15 15 13
20 19 20 16 15 17 18 16 16 17 21 26 27 28 27 25 27 33 33 33 32 30 27 27 26 23 21 21 20 19 17 18 18 17 17 17 16 14 14 15 15 13 11
19 19 20 17 17 18 18 18 17 14 19 23 26 29 29 28 21 33 31 32 30 31 29 27 24 22 23 22 21 18 18 19 19 19 19 18 16 15 15 15 15 12 10
19 19 19 17 17 20 19 19 18 13 16 24 26 30 29 30 26 32 29 31 31 31 30 30 29 26 26 22 19 20 19 20 22 20 20 19 16 15 14 15 14 12 10
16 20 20 17 17 20 18 17 18 14 9 11 21 32 34 36 36 30 29 32 31 31 32 31 30 27 25 26 23 22 19 21 21 21 22 20 17 14 14 15 13 12 9
17 20 20 16 16 18 15 14 17 14 8 13 9 17 28 39 34 26 29 31 32 32 31 28 30 27 24 24 22 21 17 18 21 22 21 20 19 18 17 16 15 13 9
19 19 18 14 15 15 15 15 17 16 11 13 9 23 26 28 29 28 32 35 36 34 35 39 29 28 26 25 24 23 20 19 20 21 20 20 19 18 17 16 14 13 10
13 16 16 13 13 12 15 12 17 17 17 16 16 16 16 27 23 27 31 29 27 30 31 29 33 32 32 29 28 28 25 22 20 20 21 21 19 18 18 17 15 14 13
12 15 14 12 11 11 12 13 15 15 15 19 16 17 21 26 27 32 31 37 33 35 34 33 34 35 33 32 31 28 25 27 25 24 24 24 21 22 20 18 17 17 17
11 12 13 11 9 9 12 12 14 18 21 23 25 31 22 29 29 29 31 31 33 35 37 35 35 36 35 34 33 29 28 29 26 26 25 24 24 22 22 22 21 21 21
10 9 10 11 9 8 9 8 12 13 16 16 19 21 33 25 30 38 33 31 34 38 41 39 34 35 33 33 33 29 26 30 34 26 25 24 24 26 25 24 25 25 24
11 11 10 10 8 7 6 4 11 13 13 12 15 23 28 39 27 35 29 35 39 40 37 41 39 37 37 36 34 33 34 36 27 32 28 22 25 25 24 23 23 23 22
16 13 10 11 8 5 5 2 6 13 13 13 14 17 33 36 31 34 32 31 38 42 42 40 39 39 39 33 32 35 34 35 36 33 19 21 21 21 22 23 26 26 21

GFSSE_700_spd_075.txt.gz
Wind_Speed
11 14 13 13 13 11 10 10 9 10 9 11 14 16 16 16 16 14 11 9 11 12 12 12 12 12 11 11 10 10 11 9 10 13 12 12 12 11 11 11 11 11 11
16 13 13 13 12 11 10 10 10 9 10 12 15 16 18 18 18 17 16 12 12 11 11 13 14 14 11 11 9 9 12 11 11 14 14 14 14 12 13 12 11 10 11
13 12 13 12 12 14 15 16 13 12 12 14 15 17 19 20 20 19 17 16 14 13 12 13 14 15 14 12 12 13 10 8 12 14 15 14 12 13 13 12 10 10 10
12 13 14 15 12 11 12 12 13 16 15 16 16 17 19 20 21 18 18 15 18 15 14 12 12 14 14 15 15 14 10 8 15 16 15 13 12 12 12 12 11 11 10
13 12 8 9 10 11 11 9 11 16 18 18 19 18 21 22 22 21 18 22 19 17 15 13 14 14 15 16 16 14 11 12 15 16 13 12 12 9 11 12 9 9 9
7 7 10 12 13 15 14 12 11 15 19 21 21 22 23 23 23 21 22 23 21 18 15 16 16 16 16 16 16 14 14 13 13 15 14 13 12 10 9 10 10 9 8
10 12 13 13 14 15 17 15 14 16 21 22 24 25 27 27 25 24 25 23 22 19 16 18 18 17 16 16 16 16 15 14 14 14 14 13 13 12 11 11 11 11 10
14 12 15 16 16 17 18 16 16 18 22 24 25 27 29 30 27 28 26 25 22 20 19 18 18 17 16 16 16 16 17 16 16 15 14 14 13 11 11 10 10 10 10
12 11 13 18 18 20 19 16 18 21 25 25 26 26 31 29 29 28 26 26 24 22 21 20 20 17 17 16 17 18 17 17 17 15 14 13 12 12 11 10 10 10 10
8 11 15 18 18 21 18 16 17 23 24 26 30 30 30 35 30 26 30 35 29 23 22 22 20 17 17 19 19 19 17 17 15 16 14 14 13 12 11 10 11 10 10
10 12 15 17 18 20 17 14 16 21 24 27 30 32 29 23 19 31 31 34 33 31 23 19 18 19 20 21 21 18 18 17 16 16 15 15 13 12 11 11 10 11 11
11 13 14 15 19 18 16 14 14 19 23 25 29 32 30 32 28 31 35 33 32 34 25 21 19 20 22 22 21 20 19 16 16 15 14 15 13 12 11 12 12 13 13
12 13 15 14 18 17 17 15 13 14 21 24 27 30 31 32 26 20 34 24 30 33 29 25 24 24 22 21 19 19 18 16 14 13 16 15 12 12 12 13 14 14 14
12 12 14 14 17 17 18 17 15 15 17 22 25 28 28 25 24 20 23 20 30 31 30 26 25 23 23 22 21 19 17 15 13 14 14 12 13 13 14 14 14 14 15
11 11 14 13 16 16 17 16 16 18 19 18 23 23 24 24 24 21 19 16 27 30 30 27 25 23 22 23 23 21 18 15 15 15 13 15 14 15 15 14 15 15 16
10 11 14 12 14 17 17 16 16 18 22 19 20 25 25 25 25 24 23 19 28 32 32 27 26 24 23 23 22 21 18 17 14 11 15 14 15 15 15 15 16 17 15
11 12 13 13 16 18 18 16 16 20 22 20 20 21 23 24 23 26 23 19 28 36 30 30 27 25 25 22 21 20 17 16 12 14 17 17 16 15 16 18 18 18 16
15 15 15 14 17 20 18 17 17 19 18 19 19 19 22 23 25 25 21 17 26 31 31 31 29 26 24 22 22 22 18 16 15 18 19 18 18 18 18 18 18 17 16
17 19 17 16 17 19 18 17 17 16 16 18 17 17 21 29 23 26 23 18 31 31 32 30 28 26 24 23 22 20 18 17 15 18 19 19 19 20 20 19 18 18 17
20 21 21 16 17 18 17 16 15 13 16 19 17 17 22 31 29 30 26 21 28 36 33 31 29 27 24 22 23 23 20 18 19 22 21 21 21 22 22 23 22 21 20
23 20 19 17 18 18 16 15 13 9 14 17 14 13 16 26 34 30 32 28 33 36 31 30 30 27 26 27 25 26 23 22 22 24 21 22 22 23 23 24 24 23 22
19 19 16 18 18 16 14 13 12 9 14 16 15 14 12 14 32 35 27 33 38 35 35 31 30 28 27 25 25 26 27 27 28 24 23 21 23 25 24 25 25 24 22
18 14 15 17 18 15 13 12 12 10 17 18 18 15 8 3 22 28 25 36 35 32 31 30 28 26 24 23 24 28 29 29 24 24 24 27 24 25 26 26 26 25 24
19 17 17 18 16 14 12 10 9 8 13 15 16 15 12 4 7 30 29 34 36 34 34 34 32 32 31 35 36 31 26 26 26 27 25 24 28 29 29 29 27 28 25
17 20 18 16 13 11 10 7 7 7 12 16 16 17 13 15 13 13 18 18 31 37 36 36 37 34 31 27 25 26 31 32 32 30 27 25 26 23 23 32 30 28 28
20 21 19 18 13 11 9 6 5 5 10 14 16 17 16 16 21 22 22 23 21 32 38 40 39 37 32 29 30 28 30 30 28 28 28 27 24 27 33 33 30 34 30

GFSSE_700_spd_081.txt.gz
Wind_Speed
8 5 6 7 12 16 14 14 12 11 12 9 10 11 12 11 11 10 9 8 5 6 9 9 10 10 10 10 9 8 7 7 7 7 7 8 10 10 9 9 8 8 8
8 7 6 7 10 13 14 15 13 13 13 11 12 14 13 12 11 10 11 9 5 4 6 8 10 11 10 10 9 9 8 9 9 9 9 11 11 10 9 8 8 8 9
8 7 6 6 9 13 14 14 14 15 15 15 15 16 16 14 13 14 12 10 7 5 7 9 11 12 12 11 10 9 9 10 10 11 12 12 11 10 10 10 9 8 10
9 7 6 7 10 14 17 19 18 18 17 18 18 17 17 16 15 16 14 12 10 9 9 9 10 11 13 12 9 7 9 9 10 12 12 11 10 10 9 9 9 9 8
9 7 6 8 9 12 11 12 12 12 14 18 20 19 19 20 18 18 18 15 13 11 12 12 10 11 12 12 10 11 11 10 12 13 13 11 10 10 10 8 9 9 8
8 7 7 8 10 13 14 13 13 12 14 17 21 21 21 22 21 21 22 18 16 14 13 14 11 10 10 11 11 14 10 11 13 15 12 10 9 12 11 9 9 6 6
9 8 8 8 11 14 13 12 13 14 15 18 21 22 23 24 23 25 24 21 19 19 16 17 14 13 11 10 12 15 12 12 15 15 13 10 12 12 9 11 10 10 10
11 9 8 7 8 11 12 12 13 14 17 19 21 22 23 25 25 27 26 25 23 21 20 19 17 13 11 11 13 15 14 12 11 15 16 14 15 15 13 13 12 11 10
14 11 8 7 9 11 13 12 14 16 17 21 22 25 23 26 32 27 30 27 26 25 22 20 18 14 12 13 15 16 14 17 19 14 23 21 20 18 16 13 12 12 12
17 15 10 9 9 10 11 13 15 15 16 18 22 25 25 27 26 26 18 22 31 33 23 21 20 15 13 15 15 16 16 18 12 22 23 18 20 17 16 14 13 12 12
20 18 14 12 10 12 11 12 13 13 14 15 20 24 27 29 28 24 27 25 28 23 19 23 20 18 17 16 16 18 17 19 21 9 24 14 17 16 15 15 13 13 14
23 21 17 14 12 13 13 11 12 12 12 13 16 20 25 26 28 27 23 21 17 29 32 29 19 20 19 20 23 21 19 16 16 17 18 14 15 17 15 14 14 14 14
26 24 20 15 14 14 13 12 12 13 14 12 13 16 22 25 26 26 27 19 17 24 27 27 25 25 23 20 23 20 21 26 14 21 14 14 17 16 16 15 15 14 15
29 25 23 18 15 15 15 12 13 12 14 13 14 16 21 25 28 27 25 22 24 23 25 27 38 24 24 23 22 23 23 20 19 23 15 18 17 16 16 15 15 14 14
27 28 27 22 17 18 16 12 13 13 14 15 15 18 21 26 27 26 30 26 26 25 25 27 34 30 26 26 24 26 25 21 20 22 15 18 18 17 17 16 15 15 15
28 28 28 24 20 19 17 13 14 15 15 16 17 19 21 24 29 30 28 30 23 26 22 26 29 36 29 27 23 26 24 24 17 19 17 17 18 17 18 18 17 16 16
28 29 30 27 22 21 19 16 14 15 17 16 20 21 22 23 24 24 31 32 28 25 24 27 32 35 31 29 25 25 25 21 19 18 17 18 19 19 19 19 17 17 17
27 32 33 28 24 23 21 17 15 15 18 19 22 22 24 26 26 26 25 23 24 24 21 31 33 32 31 29 28 27 24 21 20 19 18 19 19 20 20 17 16 18 19
28 32 32 28 26 23 22 18 16 17 18 21 22 21 24 27 25 24 24 30 30 26 21 35 32 31 31 32 28 25 23 22 19 19 20 19 21 19 19 16 17 20 21
28 32 31 30 28 24 22 19 17 18 18 21 22 20 23 24 22 26 28 28 30 25 22 35 31 32 31 30 26 26 23 22 20 20 21 20 21 20 19 15 19 21 23
31 32 31 31 28 24 22 20 18 18 20 21 21 20 22 22 24 25 28 28 33 35 25 39 32 33 31 31 31 28 24 24 22 21 20 21 21 17 14 16 18 23 25
36 34 33 31 27 24 22 21 19 21 21 20 20 19 20 18 22 21 31 29 32 34 32 33 39 35 33 34 33 29 26 23 23 20 20 21 21 19 18 17 19 24 25
37 37 35 32 27 25 22 22 19 23 20 19 18 21 18 15 14 16 20 26 34 37 29 29 40 40 40 35 30 29 27 24 21 23 22 23 24 21 20 21 22 22 24
35 36 33 30 28 25 22 20 20 23 18 18 17 20 20 20 18 21 24 29 40 32 31 33 26 35 34 34 31 28 24 14 18 24 24 23 24 23 21 20 19 21 23
38 37 32 28 26 24 21 18 20 21 16 18 18 21 20 21 19 23 17 22 37 31 35 37 36 35 33 32 32 30 26 22 18 14 17 26 25 24 24 26 26 27 30
40 40 33 28 26 25 20 18 18 18 15 16 16 19 20 20 21 17 13 22 30 32 35 34 35 34 33 34 32 29 29 24 23 24 16 19 20 23 23 24 27 28 30

GFSSE_700_spd_084.txt.gz
Wind_Speed
11 10 9 6 4 5 12 13 13 13 13 12 10 10 10 11 11 11 9 6 7 5 8 10 10 10 10 10 9 8 7 7 6 6 7 9 10 11 11 9 8 8 8
9 13 10 7 5 5 10 13 14 14 14 14 12 11 12 12 12 11 9 8 7 5 7 9 10 9 9 9 9 9 8 7 7 7 8 9 11 10 8 8 8 8 9
16 16 11 9 6 8 7 10 14 15 15 15 16 14 14 14 13 12 11 9 7 6 8 9 9 10 9 10 9 7 7 8 9 9 10 11 11 10 9 8 9 8 9
16 15 11 9 6 7 9 10 13 17 20 19 18 17 16 15 15 15 14 12 10 10 10 10 10 10 11 10 8 7 8 9 9 10 11 11 10 10 9 8 7 9 9
15 15 13 8 6 6 9 11 10 11 13 17 20 21 17 16 17 17 17 16 13 11 11 12 12 11 11 11 9 8 11 13 12 13 13 11 11 10 10 9 9 8 7
16 13 10 6 5 7 10 13 13 13 13 16 20 21 19 18 18 20 20 19 17 15 15 14 13 10 10 10 10 12 12 10 12 12 14 12 10 9 9 8 9 9 7
16 11 8 6 4 6 9 11 11 14 15 16 19 22 21 20 21 22 22 21 21 20 18 15 15 11 10 9 11 15 13 10 13 14 13 12 10 10 11 10 11 7 6
16 12 9 6 5 7 9 11 11 13 16 17 19 22 21 22 21 24 23 24 29 24 21 19 18 13 11 11 14 16 14 12 13 15 15 12 11 13 11 11 11 9 8
18 15 11 10 7 6 9 10 11 13 16 17 20 22 21 24 26 27 29 37 25 20 25 21 20 15 13 14 16 17 15 13 16 16 16 15 14 15 14 13 12 12 10
21 18 15 13 10 9 10 10 12 15 16 16 18 21 23 26 25 26 32 25 17 20 24 21 20 17 15 15 17 18 16 18 19 16 18 21 18 17 15 15 14 12 12
27 25 19 17 13 12 10 10 13 15 15 15 16 19 22 26 25 24 25 22 23 22 27 25 20 21 18 17 17 16 17 19 21 27 23 19 19 19 17 16 14 13 11
31 29 24 21 16 14 10 11 14 15 14 13 13 15 18 21 24 24 24 24 23 21 29 25 23 20 21 19 19 19 19 18 21 23 21 17 17 18 17 16 15 13 12
32 31 29 23 20 17 13 12 15 16 14 13 13 12 14 17 20 21 23 23 22 14 15 20 20 18 20 23 21 21 22 21 25 18 20 12 16 16 16 15 15 14 13
27 33 33 26 23 18 15 13 16 17 15 14 13 12 15 16 17 19 21 22 20 15 14 18 21 17 25 26 22 24 23 21 22 24 21 15 16 15 15 16 15 14 13
28 32 36 29 26 19 16 13 16 18 15 15 14 13 16 19 18 19 22 22 24 18 20 16 26 24 30 28 26 27 26 24 31 25 15 16 16 16 17 17 15 15 15
27 31 34 32 28 22 17 15 15 17 18 16 16 16 17 19 20 21 23 23 25 23 21 19 25 26 33 35 31 28 26 27 29 24 15 15 17 18 18 17 16 17 16
29 32 35 37 28 23 21 19 18 18 18 18 18 18 19 20 21 22 22 24 21 24 25 23 21 24 37 33 30 28 30 30 26 20 16 16 17 17 18 17 17 16 17
29 28 38 36 28 24 25 22 21 20 19 19 19 20 20 20 22 24 22 21 24 25 25 21 23 26 36 35 29 29 30 25 22 21 18 18 17 17 17 18 18 19 18
29 30 37 37 30 27 28 24 22 21 20 20 19 19 20 20 24 25 23 25 23 22 25 24 24 25 35 35 32 29 26 23 23 23 19 16 17 17 17 18 17 17 19
29 33 36 37 30 27 32 25 23 22 21 21 19 19 19 18 25 26 26 25 23 28 29 20 23 32 31 29 28 26 25 25 22 21 19 15 17 17 17 17 17 17 17
31 35 40 35 30 30 32 26 23 22 23 21 21 21 21 21 24 25 26 24 23 26 29 19 31 38 33 35 35 29 26 25 24 22 19 18 20 19 18 18 18 17 17
36 36 41 32 31 31 29 24 24 23 24 21 24 22 22 21 26 24 23 22 23 27 27 25 33 34 32 30 31 32 28 26 24 20 20 19 19 18 19 19 17 16 16
34 34 38 33 30 30 28 25 24 24 24 22 24 23 17 15 18 19 19 20 23 26 26 31 27 39 29 33 34 30 28 27 22 23 21 20 20 17 18 18 16 16 15
33 38 40 33 32 29 28 27 24 23 21 23 23 20 14 15 17 18 18 17 16 30 30 36 31 37 31 35 30 29 25 21 22 20 21 21 20 21 20 19 18 17 17
37 34 36 34 35 30 29 26 24 22 20 23 21 16 14 18 22 18 20 18 24 25 30 33 35 36 43 34 32 30 27 23 21 21 17 18 21 20 20 21 21 19 18
39 33 33 34 32 26 25 24 23 21 20 21 19 12 14 18 22 22 22 20 22 24 32 35 35 30 37 31 33 31 25 25 19 17 10 15 14 15 19 21 23 24 25

GFSSE_700_spd_087.txt.gz
Wind_Speed
13 13 12 12 11 10 10 7 11 13 13 13 12 11 10 11 12 13 11 9 6 8 7 8 10 10 10 9 10 8 10 10 8 8 7 6 8 9 10 11 10 10 9
10 11 11 11 11 11 10 7 12 14 14 14 13 13 12 11 12 12 13 11 8 8 8 10 12 12 11 10 9 8 10 10 9 8 6 7 9 11 11 11 11 10 10
11 10 11 10 11 10 7 8 8 14 15 15 14 16 14 12 12 14 15 13 10 9 8 10 12 12 11 11 11 11 10 9 9 8 8 11 13 13 11 11 11 10 10
12 10 10 11 12 10 8 7 10 11 15 17 18 17 17 13 13 16 17 15 12 11 11 12 12 13 12 12 12 11 11 12 12 11 12 15 14 13 12 11 10 10 10
12 11 12 13 13 8 8 8 12 11 13 14 17 19 19 16 15 17 18 16 15 15 14 14 13 14 14 14 13 12 12 12 13 14 14 15 14 13 12 11 10 11 10
17 16 16 16 13 8 8 8 13 15 13 14 15 18 19 19 18 19 19 18 18 17 18 17 15 15 14 14 14 14 12 13 13 15 15 15 14 13 12 11 12 10 9
22 24 20 18 14 10 8 8 12 13 12 14 16 17 19 21 21 21 21 20 19 20 21 18 16 16 15 14 15 14 14 13 13 14 16 15 14 13 12 11 11 11 9
23 22 18 17 15 11 9 9 11 13 11 14 16 18 19 22 23 24 22 22 22 23 26 19 20 19 14 15 15 16 16 12 12 16 15 14 13 13 13 13 13 10 8
22 20 18 17 14 12 9 9 10 11 12 16 17 17 20 22 24 27 25 26 27 27 35 21 23 22 18 16 15 17 17 14 13 14 17 16 14 15 14 12 12 11 9
21 21 20 17 16 14 11 10 10 12 13 16 17 16 18 20 24 25 27 26 28 21 26 23 26 23 19 18 16 17 17 18 20 18 17 16 16 16 14 12 12 11 10
31 24 22 20 19 17 14 11 10 12 13 15 16 16 17 17 22 24 25 24 25 29 20 20 27 26 23 20 18 18 18 18 16 18 18 19 17 17 16 15 12 12 11
33 31 27 24 24 20 17 13 12 12 14 15 17 16 15 16 20 21 24 22 23 24 21 18 30 28 23 21 20 20 21 23 20 21 20 18 17 20 19 17 13 12 13
33 35 25 30 29 25 19 15 13 12 14 15 16 17 16 15 17 18 21 21 22 18 14 16 25 24 20 19 21 21 23 24 26 26 30 25 18 20 17 16 14 14 14
41 43 35 31 33 28 22 18 16 14 13 16 17 16 15 15 15 16 17 18 18 17 15 11 18 25 16 16 22 22 26 26 24 23 23 20 18 18 17 16 15 15 16
30 39 40 29 31 31 26 19 18 15 13 15 17 18 16 15 17 18 16 18 17 16 13 13 14 19 16 21 22 25 28 26 24 27 22 14 17 17 17 17 16 16 17
26 39 33 30 26 31 27 20 19 16 14 15 17 19 18 17 18 18 17 18 18 18 18 15 20 22 24 20 28 29 30 29 28 28 18 13 16 17 17 17 17 18 16
28 28 34 34 32 26 30 22 22 18 16 16 17 19 20 21 20 19 19 20 17 17 22 22 25 21 26 28 29 33 33 31 32 26 16 13 15 18 17 16 17 17 16
41 36 36 34 36 29 28 26 25 20 19 19 19 20 21 23 21 21 21 20 17 21 20 26 24 25 26 26 33 34 34 33 31 25 19 18 15 17 17 18 18 18 17
31 36 38 39 30 32 28 28 27 22 22 21 20 20 22 23 22 21 20 20 17 20 23 26 24 25 22 26 31 33 35 32 28 24 20 17 17 18 18 18 17 16 16
35 43 37 42 30 29 31 28 29 26 23 21 20 21 22 22 21 22 20 21 19 22 24 22 25 26 27 28 39 35 33 32 27 23 17 18 18 19 19 18 17 16 16
32 44 38 41 34 33 28 29 30 27 22 21 22 21 24 22 22 23 22 23 23 23 23 25 27 27 28 39 42 38 36 33 25 24 21 20 20 20 19 18 18 18 17
34 40 38 37 36 32 28 30 28 27 23 23 24 22 26 23 22 22 24 24 24 24 25 23 26 22 29 34 38 38 34 32 30 27 23 19 20 20 20 19 18 17 16
33 40 37 38 35 34 31 29 30 28 25 25 23 25 26 23 20 21 26 25 21 23 24 23 29 24 40 35 37 36 34 32 27 24 21 20 19 20 20 18 18 18 18
28 34 35 34 32 34 33 30 28 26 23 24 23 25 23 21 17 17 20 21 22 21 20 26 30 30 44 36 43 39 30 18 16 19 22 21 21 20 19 19 19 18 18
26 32 36 35 33 37 33 29 27 25 25 25 22 23 20 19 17 18 18 20 19 17 18 25 30 39 32 38 41 35 29 23 27 17 17 19 20 17 17 17 18 17 17
29 31 32 30 31 33 34 29 26 26 25 24 20 20 18 16 17 18 19 20 22 21 24 25 33 39 34 39 31 35 32 32 31 22 20 18 15 16 17 19 19 19 18

GFSSE_700_spd_090.txt.gz
Wind_Speed
11 15 15 13 11 10 10 10 9 10 13 13 13 13 12 12 13 15 14 13 11 11 11 10 11 12 12 12 14 14 11 11 10 11 9 7 7 9 9 8 8 8 9
12 17 15 12 10 10 13 10 8 11 13 15 15 14 14 12 13 14 15 14 14 13 11 10 11 13 12 13 16 15 12 12 11 10 9 10 11 11 10 9 9 9 10
16 14 14 12 9 9 13 9 8 10 12 16 17 16 16 14 13 15 16 16 14 11 11 11 14 15 15 14 14 12 13 13 11 10 10 11 12 12 11 11 11 10 11
14 15 13 12 10 10 14 11 9 10 11 13 17 18 18 17 14 16 18 17 14 12 13 14 15 16 16 16 15 15 15 13 12 12 10 11 13 13 12 12 12 12 11
13 17 15 13 11 10 14 14 12 10 14 13 14 17 20 19 17 17 18 18 17 16 16 15 16 17 17 18 18 18 16 14 13 13 12 14 14 14 14 14 13 12 11
16 17 16 15 14 13 13 12 13 12 14 13 14 16 19 20 20 19 20 20 19 18 18 17 18 18 18 19 19 18 14 13 12 13 16 17 16 15 14 12 12 12 11
19 18 18 20 17 15 13 13 14 13 11 12 12 16 19 20 21 22 22 21 20 20 21 19 18 17 19 19 18 17 16 12 14 15 16 17 17 16 15 13 13 12 11
19 24 24 23 18 17 14 12 12 12 12 11 13 16 18 20 22 24 25 24 24 25 25 22 26 24 21 18 18 17 16 16 17 18 19 18 18 18 16 15 14 13 11
25 22 23 21 18 17 14 12 11 11 12 10 12 16 17 20 22 24 27 25 25 25 23 23 33 30 26 23 20 18 18 18 18 19 20 20 18 17 15 14 14 13 9
24 27 23 22 20 18 16 14 12 10 12 11 11 15 17 19 20 22 24 23 25 24 26 24 26 38 31 25 19 19 20 20 18 22 21 19 17 16 15 14 12 11 11
23 22 26 22 25 22 20 16 14 12 11 13 11 13 16 18 20 20 22 22 25 25 27 31 29 21 29 26 23 20 21 21 20 21 21 20 19 18 17 14 11 12 11
28 23 24 25 27 26 23 19 16 13 12 13 12 13 17 17 18 19 21 24 24 24 24 26 30 26 31 28 24 23 23 22 22 21 20 19 18 18 17 16 13 13 12
28 27 27 30 30 31 27 23 18 15 14 14 12 13 16 17 18 18 19 22 22 21 22 23 25 23 29 27 25 25 25 25 22 22 21 19 20 18 20 19 15 14 14
31 30 27 29 29 34 32 28 23 18 16 13 13 12 15 17 18 17 19 20 20 18 19 20 21 17 31 28 26 24 25 25 24 24 25 22 24 20 20 19 16 16 15
35 31 30 37 41 39 35 33 27 21 18 14 12 12 15 17 17 18 18 18 18 17 17 16 13 7 32 26 26 26 26 25 26 28 28 24 27 23 20 19 17 16 15
33 37 37 40 38 33 27 35 30 24 20 15 12 11 14 16 17 17 19 19 18 17 16 16 17 14 16 16 22 25 27 26 27 28 25 23 20 20 19 19 18 17 16
30 32 36 33 35 30 25 25 32 26 22 17 15 13 15 16 18 18 19 20 20 18 18 21 19 20 22 19 25 29 29 29 29 31 24 19 16 20 20 20 18 17 16
37 38 38 33 30 29 31 25 29 29 25 21 18 15 17 17 19 20 20 21 20 20 20 22 23 24 24 25 28 27 31 32 32 32 23 19 17 19 20 19 18 17 17
46 48 44 38 34 32 30 29 27 31 28 24 21 18 18 19 20 21 19 21 23 22 21 25 26 27 25 24 31 30 37 35 32 32 26 22 21 19 20 19 18 16 16
39 54 48 40 39 38 34 31 33 30 30 28 23 20 19 20 22 21 20 21 23 24 23 27 27 30 28 26 28 29 42 36 33 30 26 24 23 21 20 20 19 18 16
32 35 42 42 36 39 37 31 31 31 30 28 24 21 21 21 22 23 23 25 25 24 23 25 28 29 30 29 32 24 38 38 34 33 28 24 22 20 20 21 20 18 17
34 35 39 42 36 41 37 34 24 30 27 29 26 24 23 22 24 25 26 26 27 24 23 26 27 29 28 28 31 37 42 37 33 34 27 26 23 21 21 21 20 20 18
33 36 44 41 37 41 37 32 27 26 29 31 31 25 22 23 24 25 27 25 26 25 25 27 26 25 27 29 33 47 51 46 40 34 30 27 24 23 22 21 21 20 19
38 34 38 39 39 41 35 35 28 25 31 30 24 22 23 22 24 26 25 23 26 26 25 25 23 26 28 30 32 48 47 40 34 30 28 26 24 23 21 21 20 20 19
39 31 30 34 39 35 34 35 27 26 29 27 28 24 21 21 23 24 21 21 26 27 25 20 22 25 23 30 40 43 44 39 29 19 21 25 24 21 18 19 18 18 18
35 27 21 34 36 33 34 29 29 29 29 30 29 23 19 20 22 21 20 21 23 25 25 22 17 22 32 38 38 41 36 40 34 28 23 21 20 19 18 19 21 21 20

GFSSE_700_spd_093.txt.gz
Wind_Speed
13 13 17 15 12 9 5 6 10 10 10 12 14 14 15 17 15 15 14 13 13 13 11 9 9 11 12 12 12 14 13 12 10 10 10 7 7 9 10 9 9 8 7
12 13 17 17 13 9 7 4 9 10 11 12 15 16 17 16 14 15 14 15 14 13 13 11 12 13 13 12 12 13 11 12 12 11 10 7 9 11 10 9 8 7 7
12 14 17 16 14 12 9 4 8 12 12 11 14 16 18 17 16 14 14 15 14 14 13 13 14 14 14 13 14 16 15 13 13 11 10 9 10 11 10 9 8 8 8
10 13 16 16 15 13 10 6 5 13 14 12 13 15 18 17 17 15 15 16 16 14 13 14 15 15 15 15 17 17 15 15 13 11 11 11 12 12 11 10 10 9 10
11 15 18 18 17 15 11 8 6 11 12 12 13 13 16 17 18 17 17 16 17 16 15 16 16 16 17 18 18 17 16 15 12 12 12 12 13 13 11 10 11 11 11
15 15 20 19 16 14 12 9 8 8 11 10 10 10 14 17 18 18 19 18 19 18 18 18 16 19 19 18 17 18 17 15 15 15 14 15 14 13 12 13 13 12 11
14 18 19 17 15 14 12 11 10 9 9 10 12 11 14 17 18 20 21 20 19 19 20 20 20 20 19 18 19 20 18 17 15 14 16 18 17 15 15 14 14 13 12
16 18 19 19 19 19 18 15 13 11 8 9 11 12 14 15 17 20 22 22 22 23 22 22 22 22 24 26 24 22 21 17 16 17 18 19 19 17 16 15 14 13 12
21 20 21 21 21 21 18 17 15 13 11 10 10 12 13 13 15 19 21 23 23 22 22 22 22 26 22 25 30 20 20 19 20 19 20 20 19 18 17 15 14 13 11
25 24 22 22 21 21 20 19 18 15 13 11 10 11 11 13 15 16 18 21 22 22 23 24 22 27 22 27 32 31 20 22 22 21 21 20 20 17 16 16 14 13 11
25 26 24 25 21 20 22 23 20 18 15 13 12 12 12 12 14 15 17 20 21 23 25 27 27 31 24 24 27 31 23 24 22 21 21 20 20 17 17 15 13 12 11
27 27 25 24 22 20 21 25 22 19 17 14 14 13 12 12 14 14 16 19 22 24 28 28 25 29 31 29 22 32 25 25 24 24 23 22 21 20 19 16 14 13 12
24 25 23 24 25 24 23 26 26 22 20 17 16 14 13 12 13 14 16 18 22 24 25 24 25 25 27 27 26 33 27 27 25 24 21 21 21 21 21 20 19 16 15
26 25 24 24 27 28 28 30 29 26 23 20 17 15 13 12 12 13 15 18 20 22 22 22 23 22 25 27 25 36 29 28 26 24 22 23 23 23 20 21 21 19 17
33 32 28 26 27 28 30 27 31 32 28 23 19 15 14 12 10 12 14 18 21 20 20 20 20 18 21 23 33 31 29 27 26 24 24 23 22 21 20 16 19 18 17
39 36 33 29 28 31 34 35 35 35 32 27 22 17 16 11 9 11 13 17 19 19 19 19 19 17 15 17 29 30 28 26 27 26 25 22 24 21 23 22 22 19 17
38 37 38 32 29 33 33 31 30 28 34 29 24 19 18 12 9 11 15 17 18 19 19 20 20 19 16 16 33 32 29 26 26 25 24 21 24 24 22 23 22 19 17
48 45 40 35 34 35 33 30 27 22 29 31 27 22 20 15 11 13 15 17 18 20 20 22 23 21 21 19 17 20 27 26 26 27 27 27 23 21 21 23 22 19 18
36 41 47 40 36 32 33 32 28 28 26 32 30 26 23 19 14 15 15 17 18 20 21 23 26 26 25 25 23 22 21 23 23 31 29 26 26 21 22 22 22 21 20
30 37 39 48 40 38 35 35 31 29 30 30 34 30 25 21 18 17 17 18 19 20 21 25 27 26 28 27 23 22 24 26 27 29 33 28 27 23 24 22 22 22 20
36 36 37 44 48 44 41 42 39 41 36 35 34 33 27 23 20 19 20 21 19 20 20 25 27 29 30 29 28 28 28 30 30 38 36 29 27 25 24 23 22 22 20
40 37 35 38 43 43 42 38 40 41 35 37 31 29 28 25 22 21 22 23 21 22 22 27 29 31 31 33 32 30 33 31 35 43 37 32 28 26 26 24 23 22 21
38 43 38 36 37 37 41 41 36 37 35 35 29 27 30 25 23 21 24 25 23 22 23 28 27 29 29 32 33 34 35 38 38 39 39 35 32 27 26 24 22 23 22
35 43 45 34 36 38 39 40 37 36 34 22 29 28 28 25 23 22 25 25 24 20 24 28 28 29 29 30 33 33 34 34 44 43 41 36 29 27 26 23 22 23 22
34 36 42 35 33 34 39 36 37 35 36 32 28 26 28 27 23 23 25 25 22 21 27 28 28 28 29 29 31 33 34 39 43 56 45 37 30 28 28 25 23 23 22
28 28 39 38 32 34 35 36 37 35 35 28 27 28 30 28 24 23 25 23 22 22 27 27 26 26 26 30 30 32 40 44 46 52 41 26 24 29 25 24 23 23 23

GFSSE_700_spd_096.txt.gz
Wind_Speed
10 18 15 14 12 9 7 4 1 3 8 13 12 12 15 15 15 12 11 11 11 12 11 10 8 9 10 11 11 11 12 12 10 9 7 7 5 7 9 9 8 8 8
12 14 15 17 16 11 8 5 2 2 6 11 12 12 13 16 18 14 11 11 11 14 14 12 9 9 10 12 12 12 12 12 11 10 9 7 6 8 9 9 9 9 8
10 17 17 20 17 13 9 6 4 2 3 7 11 12 12 13 16 14 12 11 11 13 13 13 11 11 13 13 13 12 13 10 11 10 10 8 8 9 10 10 10 9 9
12 19 19 20 17 14 11 9 6 3 0 6 9 10 10 12 14 15 14 12 12 13 14 13 13 14 15 14 14 15 13 13 12 12 11 10 10 11 12 11 10 9 9
9 15 18 18 17 15 13 11 8 5 2 5 6 7 9 11 13 15 15 14 13 13 14 14 16 16 16 16 16 15 15 14 13 13 12 11 11 12 13 11 11 11 11
12 13 16 19 19 16 14 12 11 9 5 5 6 7 8 12 14 15 15 15 15 15 15 15 16 15 16 17 17 15 14 14 14 13 13 12 13 14 14 12 12 11 11
14 14 16 20 19 16 14 12 12 11 8 7 8 9 9 12 15 16 16 16 17 17 18 17 18 16 17 18 18 18 18 16 16 15 15 16 16 16 15 13 12 12 12
15 15 16 19 17 15 15 14 15 15 12 9 10 9 10 11 13 15 16 17 19 19 18 17 18 18 18 19 20 18 19 22 21 17 17 17 18 17 14 13 13 13 13
17 17 18 18 18 18 18 20 20 17 15 12 12 11 10 11 11 14 15 16 18 19 19 20 20 21 21 21 25 22 26 25 23 19 19 21 20 17 16 15 15 14 13
18 20 21 19 18 16 17 18 18 18 18 15 14 13 12 13 12 13 15 15 17 19 20 21 23 24 22 23 28 21 28 28 33 22 21 21 20 18 17 16 15 14 13
22 23 23 22 20 18 19 19 19 19 20 19 16 16 14 13 13 12 13 15 17 20 21 23 25 24 24 23 22 21 19 30 32 23 22 21 20 19 19 18 16 16 14
25 25 24 24 23 22 22 22 20 19 20 21 19 17 16 15 14 12 14 15 18 22 22 24 24 25 26 28 27 26 13 26 26 24 23 23 23 22 20 19 18 17 16
22 25 24 22 25 26 26 25 25 23 22 22 21 20 18 16 15 13 13 13 18 20 21 24 25 23 25 25 24 22 18 21 27 25 24 23 24 23 23 21 20 19 16
29 28 25 26 26 25 27 30 27 25 23 24 23 23 21 18 16 13 12 13 16 18 20 22 23 23 24 23 23 24 24 19 31 28 27 26 24 25 24 22 21 19 18
32 31 33 31 30 28 29 30 29 29 29 27 26 25 22 20 17 15 12 12 15 16 17 19 22 23 24 23 24 28 26 30 32 27 27 26 25 25 24 23 21 21 22
32 33 36 38 35 33 31 29 29 28 26 29 31 27 25 22 19 15 11 10 13 15 16 18 22 24 24 21 19 13 29 36 31 29 29 26 28 24 23 22 18 17 19
40 38 39 39 39 40 35 31 32 30 29 31 35 32 28 24 20 17 12 10 12 15 17 20 22 25 24 22 16 15 29 32 30 30 29 27 26 25 21 20 20 19 18
32 36 43 44 43 43 41 35 34 32 30 29 33 35 30 25 23 20 15 12 12 14 18 20 23 24 23 20 14 24 23 29 30 29 27 27 27 26 26 23 25 24 22
29 28 28 34 47 44 43 41 38 35 31 28 29 35 32 27 25 22 18 14 13 14 17 20 22 25 23 21 18 17 15 30 29 28 26 26 25 22 22 22 23 24 21
33 33 33 30 36 43 45 43 39 37 32 28 30 34 34 30 26 24 22 17 14 14 17 19 21 25 24 23 22 20 23 14 25 30 27 26 27 26 25 22 23 23 21
40 37 37 37 34 36 47 47 45 45 36 29 31 33 35 33 28 26 24 21 17 16 16 19 21 26 26 27 27 26 25 22 24 30 19 22 29 29 25 24 23 22 22
47 43 37 40 37 33 35 49 48 44 38 34 34 34 37 36 31 27 26 22 20 19 19 21 24 26 29 28 30 26 28 28 27 27 29 25 28 33 29 26 24 23 22
45 47 44 39 40 35 35 38 47 42 39 40 38 39 39 39 30 28 26 24 22 21 22 23 25 26 29 29 32 30 33 34 30 25 35 32 35 40 31 27 24 24 24
32 37 43 39 40 36 32 35 43 45 43 37 35 43 41 34 32 28 27 25 23 22 24 25 25 28 29 31 31 32 36 33 32 30 29 35 45 41 34 30 26 25 24
29 29 34 34 38 41 35 30 34 37 42 35 36 30 18 19 23 29 27 25 24 24 24 24 24 27 29 28 30 31 33 32 34 32 35 38 44 35 35 31 29 25 24
20 25 25 28 31 36 39 30 32 36 35 35 34 29 27 23 27 30 27 25 24 25 25 23 24 27 28 29 31 33 33 32 34 32 35 37 43 43 39 28 28 25 25

GFSSE_700_spd_099.txt.gz
Wind_Speed
5 10 17 14 12 9 5 3 4 5 5 6 9 9 8 9 11 11 9 9 9 9 8 8 8 6 7 8 9 9 9 10 9 8 6 6 5 4 7 8 8 8 8
8 9 15 15 15 13 7 5 4 5 3 4 5 9 9 9 11 11 9 8 9 9 10 10 9 8 8 9 10 9 9 10 9 9 8 7 5 6 9 9 10 9 8
9 12 15 17 18 15 10 6 4 3 2 2 3 5 7 10 11 11 9 8 8 9 10 10 11 11 10 10 11 11 10 11 10 10 9 8 7 8 9 10 10 9 9
10 12 18 19 18 16 12 8 6 5 3 2 0 1 3 7 10 12 11 9 8 9 10 11 12 13 12 10 11 10 12 12 10 9 9 10 8 8 11 11 11 10 10
6 8 15 20 17 17 14 11 9 7 6 4 2 3 4 5 10 12 13 11 9 10 10 11 13 13 12 12 12 11 13 12 11 12 12 11 10 10 13 12 12 11 12
8 8 11 14 16 18 15 12 11 9 8 6 6 6 6 6 9 12 13 12 11 12 11 11 12 13 13 13 13 13 13 13 12 12 13 13 11 12 14 14 12 12 13
11 12 14 15 18 20 16 12 11 10 11 12 10 9 9 9 10 11 13 13 13 14 13 13 13 13 13 14 15 14 16 15 13 14 13 13 12 13 15 14 13 13 13
15 16 18 17 22 21 16 14 13 14 15 15 13 11 11 10 11 11 12 12 15 14 14 13 13 14 14 15 16 17 18 17 16 15 17 16 16 16 17 16 15 14 14
19 22 21 22 23 21 18 17 16 17 17 16 16 14 13 11 12 12 13 13 15 16 16 15 16 16 16 16 15 18 21 18 19 23 19 17 18 19 19 17 17 16 15
23 25 25 25 23 20 18 19 19 17 17 17 18 17 16 14 14 14 14 15 15 17 18 17 18 20 19 18 17 17 20 29 27 26 26 20 20 21 21 19 18 16 15
25 26 27 26 24 22 20 21 20 19 19 19 19 19 17 16 15 15 15 16 16 18 19 18 19 21 20 19 21 20 18 17 20 28 33 23 23 25 21 20 19 18 17
25 27 28 28 24 23 23 22 22 23 20 19 21 20 17 18 17 16 17 17 17 19 19 19 20 22 20 21 22 21 19 20 17 18 34 25 25 25 22 21 20 19 18
28 29 30 30 26 26 25 27 27 25 22 21 24 21 18 20 20 19 18 17 17 18 18 19 21 23 20 20 22 18 19 23 18 16 31 28 26 25 23 22 21 21 20
32 29 29 31 29 29 29 31 30 28 27 25 24 24 22 21 21 21 20 19 18 17 18 19 21 22 21 21 21 21 22 21 20 14 32 29 29 26 25 25 24 23 21
34 35 33 34 33 29 30 31 31 30 29 27 26 26 25 23 23 22 21 20 19 17 17 18 19 22 21 22 21 23 22 23 25 18 35 31 29 29 28 27 26 24 21
31 31 32 32 35 38 34 32 29 29 31 30 29 29 28 27 27 25 21 20 18 17 17 18 20 23 22 22 21 22 22 24 25 30 39 31 27 28 30 28 26 23 21
37 38 38 38 39 42 40 39 36 32 32 32 31 30 31 32 31 27 22 20 18 18 19 20 21 23 24 23 22 21 21 22 25 35 37 32 29 29 27 29 26 22 18
30 35 40 43 44 43 46 44 40 40 35 33 31 31 31 35 34 30 25 22 19 19 19 21 22 22 24 23 21 22 19 17 12 32 31 33 29 28 29 24 20 21 19
33 32 32 36 41 47 49 46 49 44 43 36 35 32 30 33 37 32 28 24 22 20 18 19 21 22 23 21 21 21 17 16 17 28 32 32 31 28 28 26 25 22 23
36 38 36 36 36 37 43 53 49 50 48 45 41 33 30 33 38 35 31 27 24 22 19 18 19 20 22 22 23 20 17 16 16 28 28 32 30 28 30 28 26 23 22
37 39 42 40 39 39 39 38 54 53 50 48 46 36 32 32 37 39 34 30 27 24 21 18 20 21 24 24 25 23 23 20 18 28 28 31 29 30 28 28 25 25 22
36 37 43 45 44 44 44 43 41 51 53 51 47 39 33 33 39 41 36 32 29 26 24 21 20 22 25 27 27 26 26 28 26 20 26 33 28 26 28 28 27 25 24
37 35 37 42 45 46 44 44 40 43 51 54 49 42 39 38 36 38 38 35 32 29 26 24 21 23 25 26 25 31 29 32 28 28 27 22 24 25 25 33 31 28 26
31 33 34 36 42 44 45 41 42 39 43 52 51 47 46 44 41 43 46 37 34 31 28 25 23 24 25 29 27 31 30 29 29 28 27 29 27 30 35 35 34 32 28
30 37 35 32 32 37 47 43 40 40 41 44 49 46 42 42 41 45 55 37 32 33 28 25 24 25 27 30 30 29 28 33 30 33 31 28 26 34 33 39 45 36 30
28 21 22 28 33 35 41 42 40 38 36 38 43 44 39 40 36 40 48 40 37 32 29 25 25 25 26 29 30 30 31 29 30 31 29 29 27 33 37 43 46 36 33

GFSSE_700_spd_102.txt.gz
Wind_Speed
7 6 13 12 12 10 8 5 5 7 7 6 4 4 5 5 7 9 10 5 5 5 5 6 6 6 5 6 8 8 7 8 8 9 7 6 6 5 7 8 8 8 8
9 7 10 14 15 12 9 7 6 6 6 5 4 3 3 3 6 7 8 6 6 5 6 7 8 7 6 6 7 8 8 8 9 9 7 6 6 5 7 8 9 9 8
5 6 10 16 17 15 12 9 6 5 5 5 4 2 1 1 4 6 8 6 5 6 7 8 9 9 7 7 8 9 9 8 9 9 8 9 7 6 9 10 10 10 10
4 5 9 16 17 16 15 12 8 7 6 4 3 3 2 3 4 6 8 7 5 6 8 9 10 9 9 8 9 9 9 9 8 9 10 11 7 6 10 11 11 10 10
8 6 7 17 20 17 17 15 11 9 6 4 3 3 4 3 5 6 8 8 7 7 9 10 10 10 10 10 10 11 11 11 10 10 12 12 9 9 12 12 12 12 11
10 9 11 16 20 18 19 16 13 10 8 6 5 7 7 6 6 8 9 9 9 9 9 9 10 11 11 12 11 12 12 14 13 12 12 12 10 10 12 14 13 12 13
13 13 13 16 21 21 22 19 15 12 9 10 10 10 10 10 9 10 10 10 11 10 11 10 11 12 12 12 12 12 13 14 14 14 14 13 11 12 14 16 14 15 15
17 17 16 17 20 25 24 21 17 12 11 14 13 12 12 13 11 11 11 11 12 12 12 12 12 13 12 12 13 13 14 16 17 17 15 14 13 13 16 17 17 17 16
22 20 20 21 22 26 25 22 20 16 16 15 16 15 15 15 14 13 13 12 13 13 14 14 15 15 13 14 14 14 15 16 19 21 18 15 20 18 19 20 19 18 18
26 23 25 26 26 28 27 25 22 21 20 19 18 17 18 17 16 14 14 14 14 14 14 15 16 17 16 17 16 16 17 18 19 20 26 25 21 19 22 22 20 20 19
33 29 29 30 30 30 28 26 23 23 22 21 20 19 20 20 16 15 15 15 16 16 16 16 17 19 19 19 18 20 19 21 22 20 19 30 28 20 25 24 23 21 19
33 32 31 31 32 31 31 27 25 26 25 23 21 20 21 20 18 17 14 16 18 17 17 18 18 20 20 19 20 22 21 20 20 20 17 22 29 23 27 29 25 23 21
31 32 33 33 33 33 33 29 28 26 27 26 23 21 23 21 19 20 17 17 18 18 18 18 18 20 21 20 21 23 21 21 20 20 20 21 30 26 28 30 26 24 23
29 33 35 37 37 36 36 33 33 34 31 28 26 24 24 23 21 22 20 19 19 20 20 20 19 21 22 22 23 23 22 22 23 22 22 22 35 28 27 31 26 25 24
29 33 36 36 37 38 38 36 35 34 33 32 31 28 27 26 25 24 22 22 20 21 21 21 20 21 22 22 24 25 24 23 24 23 22 21 36 29 29 26 27 27 26
32 34 38 41 38 39 40 37 35 36 33 35 34 31 30 29 28 28 25 24 22 22 20 21 21 23 23 24 25 25 24 24 23 26 23 23 37 32 34 32 30 29 26
35 35 35 37 43 45 42 40 39 39 38 38 36 36 35 32 31 31 30 28 25 23 21 21 22 25 25 25 26 26 26 23 24 24 25 30 42 39 40 34 33 29 26
27 34 40 42 42 45 46 45 44 43 43 40 38 37 38 36 35 35 35 32 29 27 23 21 21 24 26 25 26 26 24 24 24 24 22 29 37 41 45 40 32 29 27
28 29 31 37 43 49 47 49 50 51 50 47 43 40 38 39 38 36 38 35 32 30 25 23 21 23 25 25 27 26 24 24 24 23 26 30 36 43 25 27 30 28 25
29 31 33 34 39 41 46 51 52 53 58 54 51 45 40 43 39 38 38 38 35 32 29 25 22 21 23 24 27 27 27 24 23 24 27 33 41 33 33 26 22 23 23
31 34 36 37 38 44 47 49 50 54 58 57 56 52 54 51 41 39 38 37 37 34 31 27 24 23 23 24 28 28 28 25 26 25 19 20 26 31 32 28 28 27 26
32 37 38 38 42 42 52 53 51 48 47 55 58 56 56 52 45 40 39 37 38 35 34 30 27 25 23 25 29 27 32 26 29 24 17 18 30 31 30 30 27 26 25
29 35 40 39 46 49 46 56 55 50 49 48 52 60 56 56 47 41 40 38 39 37 35 33 30 27 25 26 28 31 34 31 28 27 23 21 26 33 36 30 31 30 29
32 34 35 39 40 42 43 50 57 54 52 48 40 44 57 58 52 43 40 42 42 40 37 35 32 30 28 28 30 32 33 33 27 28 24 23 22 20 23 30 30 30 33
35 35 33 36 38 42 38 43 53 53 48 41 41 40 51 58 51 48 50 56 39 32 40 39 35 31 30 31 32 34 33 33 35 31 26 25 29 25 23 27 26 29 35
31 38 39 30 27 29 35 38 43 49 44 40 40 41 41 51 53 50 47 49 41 40 54 41 37 33 33 34 33 33 35 32 33 30 33 27 28 29 25 25 31 32 33

GFSSE_700_spd_105.txt.gz
Wind_Speed
11 7 9 11 10 13 11 5 2 5 7 7 7 7 6 5 5 6 8 4 2 1 2 3 3 2 2 3 4 6 7 8 7 8 8 7 5 4 4 5 6 7 7
13 10 11 13 13 14 13 10 8 6 6 6 6 5 6 5 4 4 6 5 3 2 2 3 4 3 3 4 5 7 9 9 8 9 8 6 6 5 6 7 8 7 7
13 10 13 14 15 15 14 11 9 7 6 6 5 3 4 4 2 2 3 4 3 3 3 4 5 5 6 6 6 8 8 8 8 9 9 9 8 6 8 9 9 9 9
14 10 12 13 16 16 15 13 11 8 7 5 4 3 4 5 4 3 3 3 3 3 4 5 6 7 8 7 7 8 8 8 9 9 9 10 7 6 5 8 10 10 10
13 14 14 13 17 18 17 15 13 11 9 6 5 4 6 5 5 5 5 4 4 5 5 6 7 8 8 9 9 9 9 9 9 10 7 6 12 7 8 7 12 11 11
16 17 17 17 19 21 20 18 16 14 12 10 8 6 7 8 7 7 7 7 6 6 6 8 8 9 9 10 10 10 9 11 11 11 9 13 15 9 8 9 13 12 11
19 19 18 18 20 22 22 21 19 16 14 11 10 8 9 10 11 10 9 9 8 9 9 9 10 10 10 10 11 10 10 12 12 14 15 17 13 9 12 11 13 15 14
21 21 21 19 20 23 25 24 22 19 15 14 14 13 12 12 12 12 11 11 10 10 11 10 11 11 11 11 12 12 11 12 13 12 8 19 13 12 12 16 17 17 16
25 25 23 23 22 24 26 27 25 23 20 16 16 16 15 14 13 14 13 13 12 12 13 13 14 14 13 14 14 14 13 13 16 16 17 22 15 13 17 18 19 19 18
27 29 27 26 25 26 27 29 27 26 23 20 19 19 18 16 16 15 15 15 14 14 15 15 15 16 16 16 17 17 16 17 17 15 26 23 19 22 26 23 22 22 21
28 31 32 30 28 27 30 31 30 29 26 23 23 22 20 19 18 17 15 15 15 15 16 16 16 17 17 20 20 20 20 19 19 22 23 24 24 27 30 24 25 24 22
25 32 36 34 33 32 33 34 32 31 27 26 26 24 22 20 20 18 17 15 15 16 17 17 18 20 20 20 20 21 21 21 21 23 23 23 24 27 29 25 28 26 24
24 27 34 38 36 35 34 34 33 34 30 29 28 27 24 22 23 21 20 16 17 16 17 18 18 20 20 21 21 21 22 21 23 24 24 23 25 24 24 26 31 29 25
15 19 26 35 38 37 37 37 36 37 33 31 29 30 28 25 25 24 22 19 19 19 17 18 19 20 21 22 22 23 23 23 22 26 27 25 25 24 29 27 27 26 28
22 25 28 31 34 37 39 40 39 39 39 36 35 33 32 31 28 27 24 22 22 20 20 19 19 19 21 21 23 24 24 24 25 27 28 28 25 28 32 30 30 35 29
30 33 32 29 34 36 38 39 41 42 41 39 38 37 35 34 31 30 28 26 24 23 21 21 19 21 20 23 24 25 25 26 27 29 27 29 27 28 29 32 32 34 31
28 35 36 34 33 37 37 37 39 42 42 42 41 40 38 37 35 34 32 30 27 28 24 22 21 22 22 23 26 27 27 27 27 27 28 30 31 28 27 31 36 43 33
25 31 36 40 39 37 38 42 40 42 43 43 44 44 43 41 39 37 37 34 32 30 28 26 24 23 22 24 25 28 27 27 28 28 28 31 32 29 30 36 31 39 34
24 26 29 36 42 45 44 44 47 47 45 46 46 47 47 44 44 42 40 39 38 36 34 29 27 25 23 24 25 27 29 28 29 30 29 31 31 25 35 40 36 35 31
25 25 27 30 34 40 48 50 50 51 53 52 52 52 50 48 46 46 44 43 41 40 38 34 30 29 26 23 25 27 28 29 32 32 31 30 29 34 32 39 44 33 34
26 28 29 31 34 37 39 44 50 55 57 59 59 57 57 53 53 48 47 46 43 41 39 38 33 33 29 26 24 26 30 29 30 33 31 27 31 34 37 33 49 41 35
24 27 29 30 31 35 41 45 49 54 55 57 58 62 59 58 57 54 49 48 42 42 40 39 36 34 33 30 25 24 28 29 31 32 33 30 27 28 28 33 31 36 33
25 28 29 32 35 35 37 45 51 55 55 59 59 58 56 59 59 62 57 54 44 44 41 40 38 37 34 33 27 26 27 30 30 31 30 31 25 17 23 39 17 32 27
23 26 28 30 31 34 35 43 51 54 57 58 58 47 52 49 51 54 54 51 50 47 43 41 41 38 37 35 32 28 27 31 31 31 27 28 26 23 23 28 30 25 23
22 24 27 32 33 32 38 39 44 48 46 48 55 47 51 50 44 39 52 56 55 50 44 42 44 39 38 38 34 30 29 30 31 34 30 29 28 28 20 17 37 27 27
24 28 32 34 35 37 35 34 36 39 43 43 45 52 50 50 46 44 46 56 55 50 47 46 54 41 37 37 35 34 32 32 32 34 33 31 29 29 25 24 20 17 28

GFSSE_700_spd_108.txt.gz
Wind_Speed
13 8 13 14 12 13 12 6 3 1 5 7 8 7 7 7 6 5 6 4 3 4 5 4 3 2 1 0 2 3 5 5 6 6 6 6 6 4 4 4 5 5 5
15 11 15 15 14 13 14 10 7 2 5 5 6 5 6 5 4 3 4 4 2 2 4 4 4 4 2 1 3 4 5 6 8 8 8 7 6 6 6 5 5 6 5
18 14 17 17 16 14 15 13 10 8 7 6 6 5 4 4 3 1 1 2 2 1 3 4 5 5 5 4 4 5 5 7 9 10 11 9 8 6 6 6 8 7 8
16 16 17 17 17 16 17 16 13 11 10 9 7 5 3 5 4 3 1 2 2 1 2 4 4 5 6 6 5 6 6 7 8 10 12 12 11 7 7 6 5 6 7
14 18 17 17 18 19 19 18 16 13 12 10 8 6 3 6 5 4 2 4 3 3 3 4 5 6 6 7 7 6 6 7 8 10 13 12 18 9 8 7 9 9 9
18 21 19 21 21 21 21 21 19 17 15 12 9 7 5 7 6 6 4 5 5 5 5 5 5 6 7 8 9 8 8 8 9 11 14 14 18 9 7 6 10 9 9
18 21 20 23 22 23 23 23 22 19 17 14 13 11 8 8 9 8 7 7 6 6 6 7 7 7 8 9 9 9 9 9 10 11 15 18 9 3 8 7 7 9 11
21 24 24 24 25 26 26 26 24 23 20 18 16 14 12 11 11 10 10 9 8 7 8 9 9 9 9 9 11 11 10 11 12 12 14 18 8 5 10 9 7 10 14
21 27 26 26 25 25 26 28 27 26 23 21 19 15 15 14 14 12 12 12 10 9 9 10 12 12 12 12 13 14 13 13 14 14 15 18 13 13 13 13 12 16 17
24 26 29 28 25 26 27 28 29 28 26 24 22 18 18 17 17 15 14 13 12 11 10 10 12 15 16 15 15 17 17 17 15 17 16 21 17 13 14 17 17 19 21
25 27 29 32 29 29 29 29 30 30 29 28 25 21 21 20 19 17 15 15 14 12 12 12 13 14 16 18 17 18 19 18 17 19 22 18 17 20 21 23 21 27 24
17 26 29 32 34 32 31 31 32 32 31 29 28 25 23 22 21 19 18 17 16 14 13 14 14 16 16 17 18 19 18 17 18 21 23 21 23 24 22 24 23 32 25
18 25 26 33 35 38 35 35 33 33 32 31 31 28 26 25 23 22 21 19 18 16 15 14 15 16 17 17 18 19 20 19 20 21 22 25 23 21 23 23 27 31 27
19 10 20 30 34 38 40 39 37 35 34 34 33 32 29 29 27 25 24 21 20 19 18 17 16 15 17 18 18 18 21 21 23 22 24 25 25 23 23 24 22 29 32
16 20 23 22 24 33 36 37 37 37 37 36 37 36 32 31 30 30 26 26 24 22 20 19 18 17 17 18 19 19 18 22 23 24 24 24 25 23 23 23 24 32 31
24 26 31 29 28 29 33 34 36 38 39 40 40 40 37 35 34 32 32 29 28 27 24 22 21 19 18 19 19 20 20 21 23 26 27 27 28 23 25 24 27 34 31
30 31 35 29 30 31 31 34 35 36 39 39 42 43 41 39 37 35 34 34 32 32 29 25 24 22 22 21 20 20 21 22 24 27 28 29 29 25 26 27 27 32 26
25 30 29 30 33 33 34 34 35 36 37 40 40 43 45 41 38 39 39 39 35 33 34 30 27 26 24 24 22 22 21 23 25 27 29 29 30 28 27 27 28 28 31
25 28 26 28 33 36 37 37 37 38 39 40 39 41 48 45 43 43 44 44 38 36 40 34 31 30 28 27 25 23 22 23 26 28 30 31 31 30 28 26 26 28 37
24 23 26 27 29 32 36 39 40 42 42 42 43 45 45 48 48 48 48 49 46 44 43 42 35 34 32 29 29 27 25 23 27 29 31 33 31 31 29 26 34 30 35
21 23 24 26 28 29 31 34 38 43 46 49 50 49 49 51 52 51 50 50 53 52 47 46 38 37 35 33 33 32 27 26 26 27 30 30 31 29 29 29 31 36 38
19 21 23 24 26 27 30 32 34 38 43 49 51 56 59 57 57 53 56 55 56 52 55 48 43 41 37 35 36 34 30 27 25 27 28 29 27 28 29 30 31 33 34
21 21 23 25 27 29 31 33 35 38 41 44 49 53 55 58 59 63 58 60 61 56 44 47 38 40 35 34 38 36 32 31 26 25 27 28 26 25 27 30 27 23 30
17 19 20 21 22 26 29 31 35 37 39 42 48 51 54 55 61 60 57 53 60 56 51 49 34 39 35 34 38 37 32 33 29 28 26 26 26 26 25 25 24 24 28
14 16 18 20 23 25 28 29 33 36 37 39 43 48 52 57 59 65 59 54 49 56 54 52 48 49 37 38 39 34 32 33 32 32 30 26 26 24 23 26 25 22 29
14 17 21 22 24 27 30 32 33 35 35 35 36 39 45 46 57 52 53 54 45 43 47 49 52 51 41 41 39 47 34 33 33 32 32 31 26 24 26 22 23 18 25

GFSSE_700_spd_111.txt.gz
Wind_Speed
6 9 10 16 14 12 12 8 5 4 4 6 7 4 4 6 6 6 6 7 8 9 9 8 6 5 3 1 1 1 2 3 4 5 4 4 4 4 2 2 4 4 5
13 11 12 17 17 15 15 13 7 4 4 4 5 4 3 3 4 4 3 3 4 7 8 8 7 6 4 2 2 2 3 3 5 5 4 4 3 3 2 2 2 5 5
16 12 14 19 19 17 17 17 13 9 5 6 7 4 2 1 2 2 2 2 2 3 6 8 9 8 7 5 3 3 4 4 6 5 4 5 5 3 3 5 4 5 4
14 14 16 20 22 21 20 20 17 14 12 9 10 5 1 3 3 2 1 0 1 2 4 5 6 8 8 7 5 4 5 5 7 6 6 8 10 6 5 6 7 6 6
15 16 18 21 23 23 22 22 21 18 16 14 13 9 4 5 6 5 3 3 2 1 2 4 5 6 7 7 7 6 5 7 7 6 6 6 8 8 6 7 8 8 5
20 17 18 22 24 24 24 25 24 22 19 17 15 13 11 7 9 8 5 5 4 2 3 4 6 7 8 8 8 7 6 7 7 8 8 9 10 13 15 8 9 7 8
20 18 23 21 23 25 26 26 26 24 22 20 18 16 13 9 9 10 8 7 6 5 4 5 6 8 9 10 9 8 7 8 8 10 9 7 12 5 15 11 9 10 11
19 21 22 24 27 28 29 29 28 26 25 23 21 18 15 12 10 11 10 9 7 7 7 6 7 8 9 10 10 10 9 9 9 11 11 11 9 13 13 12 10 11 10
18 21 24 26 28 29 30 31 31 30 28 26 23 21 18 16 13 13 12 12 10 9 9 8 8 9 10 11 11 13 14 11 10 13 13 13 7 8 7 12 13 11 10
23 19 25 27 30 31 31 32 32 32 30 28 26 24 21 18 16 15 15 14 13 12 11 11 10 10 10 12 12 13 15 14 13 14 16 16 16 14 11 11 14 12 14
29 29 23 29 32 32 31 31 32 33 33 30 28 27 24 20 18 17 16 16 15 14 13 13 13 12 11 11 12 12 12 14 15 17 18 17 18 12 7 13 15 22 21
35 33 27 27 31 35 32 31 32 33 33 31 30 29 27 24 21 19 19 17 17 16 16 15 14 14 12 12 12 13 12 13 14 17 19 18 18 16 17 16 18 20 22
26 24 28 27 27 34 37 34 33 32 33 33 32 31 30 28 25 23 22 21 20 18 18 17 17 15 14 14 14 13 14 15 15 15 19 20 20 17 18 18 18 21 23
19 24 30 30 27 30 36 40 38 32 32 33 33 32 32 32 29 26 24 24 23 21 20 19 19 18 17 16 16 15 14 15 17 16 18 20 22 21 20 20 21 19 22
23 28 33 32 26 26 32 35 40 40 36 33 34 35 34 34 33 30 29 28 27 24 22 22 20 21 20 18 18 18 16 15 17 17 18 18 21 19 20 21 20 20 20
28 31 30 33 31 29 27 29 34 36 38 37 37 36 37 37 37 35 33 33 30 29 27 26 24 22 23 22 20 20 18 17 19 18 18 20 21 22 20 23 21 21 23
35 38 36 36 33 30 30 31 28 31 38 35 36 38 38 38 39 39 37 36 34 33 32 30 28 27 26 25 24 22 20 19 20 20 20 22 23 22 20 23 26 22 22
40 43 42 37 32 34 32 31 30 28 32 33 38 38 38 38 39 43 41 40 38 37 38 35 32 32 30 28 27 25 23 22 22 21 22 24 24 25 22 24 26 25 21
41 43 37 31 29 28 29 32 34 34 33 34 37 37 37 38 39 41 42 42 41 43 43 40 37 37 34 32 30 28 26 24 25 23 25 24 26 26 24 23 26 27 21
39 37 32 29 26 26 29 30 33 36 38 38 39 39 39 41 39 40 41 41 44 46 48 47 44 41 40 35 32 31 29 27 28 25 23 24 25 26 27 26 26 27 24
33 29 28 25 24 25 28 30 31 33 36 39 41 42 44 45 45 45 46 45 44 48 49 52 51 45 42 38 35 34 33 32 30 26 23 24 22 22 23 24 24 26 26
24 28 28 22 22 24 25 27 29 31 32 36 38 42 44 45 46 48 51 54 53 52 51 53 54 50 48 43 38 34 37 35 32 28 26 24 22 21 22 23 25 27 28
24 27 21 20 22 24 25 26 28 30 32 34 37 40 43 47 50 52 53 53 55 57 56 55 54 49 66 39 38 35 38 38 32 30 27 24 23 22 21 25 24 26 28
24 19 14 18 21 23 24 25 26 29 31 33 35 37 40 44 49 54 57 53 52 54 54 56 52 63 52 51 38 38 35 36 36 33 30 26 24 22 22 24 25 24 24
19 13 12 15 19 22 24 26 26 26 30 33 33 34 37 41 47 52 57 59 55 54 53 54 55 58 55 48 58 36 35 37 38 36 33 30 26 23 23 22 22 24 23
19 16 15 16 18 21 24 26 28 29 29 30 30 31 34 39 43 48 54 60 57 55 52 53 49 49 50 43 43 38 43 39 35 38 35 31 27 25 24 23 24 23 23

GFSSE_700_spd_114.txt.gz
Wind_Speed
11 13 15 15 15 14 13 9 6 5 3 2 2 1 0 1 2 3 3 3 5 7 8 8 7 7 6 5 5 5 4 3 1 0 0 2 2 4 4 2 1 1 3
12 13 11 16 17 17 16 14 9 6 6 4 1 2 0 1 2 2 3 3 5 7 9 9 9 8 6 5 4 3 3 1 1 1 2 2 0 2 2 1 2 4 3
13 13 14 17 21 20 19 19 15 10 8 8 7 4 2 3 3 3 2 3 4 6 8 9 9 8 7 5 3 3 3 3 2 2 3 3 2 3 3 6 6 5 3
12 13 14 18 23 24 23 23 21 18 14 11 12 9 5 4 6 5 4 2 2 4 6 8 8 8 8 6 5 4 4 4 3 4 6 5 4 5 6 7 7 6 5
14 11 14 19 24 26 25 25 24 22 20 17 16 14 9 6 8 7 6 5 3 3 5 7 8 9 9 9 7 7 6 6 6 5 5 5 2 7 5 5 9 8 7
19 21 19 20 24 27 27 27 27 26 23 21 19 18 14 9 10 10 8 7 6 5 5 6 7 8 9 9 9 9 9 8 7 5 6 6 6 6 13 10 12 8 6
20 22 21 22 23 26 29 29 29 28 26 24 22 20 18 14 11 12 12 10 8 7 6 6 6 7 8 9 10 10 10 10 9 6 6 7 8 7 16 15 12 10 9
19 19 20 23 25 24 29 31 31 31 29 27 25 23 21 18 15 13 14 13 11 10 9 8 7 7 9 9 11 11 12 12 12 9 8 7 9 6 7 15 12 12 11
20 19 19 24 26 28 29 32 33 33 32 30 29 26 24 22 19 16 14 14 12 12 11 10 9 9 9 10 11 12 13 14 13 11 9 9 9 6 7 15 16 15 12
31 25 21 25 27 31 31 31 33 34 34 33 31 29 27 25 22 19 16 16 15 14 14 12 12 11 10 10 11 12 13 15 16 13 12 13 13 11 9 12 21 19 15
36 34 31 27 27 31 34 33 33 34 35 35 34 32 30 28 25 21 18 17 17 17 17 16 14 13 11 10 11 12 13 15 17 16 15 15 14 14 10 11 18 17 18
39 38 38 34 30 31 35 36 35 35 37 36 36 33 32 29 27 24 21 19 18 19 19 19 17 15 12 12 12 13 13 14 17 18 16 17 16 16 15 12 15 14 18
33 34 32 27 28 30 32 36 36 35 36 37 37 36 33 32 31 29 25 23 22 21 20 20 20 18 15 14 15 15 15 15 17 19 18 17 16 15 16 16 15 16 17
38 33 35 34 29 27 30 33 36 36 34 33 36 37 36 34 33 32 30 27 25 25 23 22 22 21 19 17 16 17 17 16 17 19 19 19 19 16 17 16 18 18 18
42 38 36 34 32 29 27 29 33 36 37 34 31 35 37 36 35 34 34 32 30 27 27 25 24 24 22 21 19 18 18 20 19 19 19 18 19 18 19 17 16 20 19
43 32 38 35 36 34 29 24 26 32 36 38 38 34 35 37 37 37 37 36 35 32 30 29 27 26 25 23 23 22 20 20 22 21 20 19 19 19 19 20 15 20 21
43 42 38 36 35 36 34 31 30 26 33 39 42 39 37 37 39 41 41 41 38 37 33 33 32 31 29 29 26 25 25 22 22 22 22 20 20 20 20 19 20 20 20
42 41 41 37 35 35 37 34 32 30 31 33 37 38 38 41 41 40 42 41 38 38 37 35 35 36 33 32 30 27 28 27 24 23 23 22 22 22 21 21 22 21 22
40 41 41 38 37 37 37 39 39 38 32 31 33 37 38 38 40 41 41 41 39 47 43 40 39 39 38 35 33 31 31 30 29 27 26 24 22 24 22 23 22 22 23
41 42 41 40 40 39 43 41 36 38 37 35 35 36 37 39 40 41 44 42 40 41 42 44 43 42 42 40 38 36 35 33 31 30 29 28 24 22 23 24 25 24 23
43 44 41 38 36 35 35 36 31 32 36 37 38 38 39 41 42 43 44 45 46 43 44 44 45 45 46 45 44 42 42 40 37 33 31 30 29 24 22 22 23 23 23
44 42 37 35 34 33 33 33 32 29 30 34 37 39 40 42 45 47 48 47 47 48 48 48 47 46 48 47 48 47 50 46 42 35 33 31 29 28 25 22 23 23 23
40 31 27 29 32 33 30 29 28 29 29 31 34 36 39 43 44 47 47 48 50 52 54 53 52 48 46 49 50 48 62 46 40 34 32 31 29 30 28 24 23 22 24
26 21 22 25 27 25 25 25 26 27 29 31 33 35 36 39 43 46 49 50 52 53 56 56 52 52 50 52 54 56 28 30 33 35 32 31 33 33 29 25 24 22 23
20 22 18 21 28 24 23 24 24 26 27 29 31 33 36 37 40 42 45 48 51 54 56 55 55 55 52 54 55 47 50 42 47 40 31 33 35 34 31 28 26 23 24
21 20 17 20 31 27 28 30 31 28 27 28 30 30 31 33 35 40 43 46 50 54 57 54 53 52 52 52 55 59 49 41 38 39 46 38 35 35 33 32 28 26 23

GFSSE_700_spd_117.txt.gz
Wind_Speed
9 9 11 12 12 14 14 10 8 6 3 2 3 4 4 4 4 2 2 4 6 7 6 7 7 6 6 6 7 6 6 5 4 3 3 2 1 2 3 3 2 2 2
12 14 13 14 15 16 17 15 12 9 7 5 4 3 4 5 5 4 2 3 4 6 7 7 8 7 6 6 5 6 6 5 4 4 5 2 2 3 3 3 2 2 2
9 11 13 13 18 20 20 19 16 13 11 8 8 7 6 7 6 6 4 3 3 5 7 7 8 8 8 8 6 6 5 4 3 4 3 2 3 3 5 4 4 4 3
8 10 12 14 17 22 22 22 21 17 14 12 11 11 9 8 8 7 6 5 4 4 6 7 8 9 10 10 8 7 7 5 2 4 3 3 4 4 5 5 5 6 4
10 10 10 14 17 23 25 25 24 23 20 17 14 15 12 10 9 9 8 7 5 5 5 7 8 9 10 10 9 9 7 4 3 4 4 3 4 7 6 6 7 7 6
16 16 17 18 20 24 28 28 27 26 25 22 20 18 16 15 11 10 11 9 8 7 6 6 8 9 10 10 11 11 9 5 4 5 6 6 5 6 7 7 8 7 8
21 20 18 19 20 22 29 30 29 29 28 26 24 22 21 19 16 12 13 12 10 10 8 7 7 8 10 10 11 12 11 8 6 6 6 8 6 6 11 14 8 9 10
22 18 19 18 20 21 23 31 32 30 30 29 27 26 24 23 21 16 14 14 14 12 11 10 8 8 10 10 12 13 13 11 8 8 8 8 7 6 7 10 13 11 12
25 24 22 20 19 24 26 26 31 33 32 32 31 29 28 26 24 21 17 15 15 15 14 11 11 10 10 10 12 14 15 14 11 10 9 11 8 7 6 9 14 13 13
27 28 30 28 23 22 27 28 28 32 34 34 34 32 31 30 27 24 21 18 17 16 16 14 13 12 12 11 12 14 15 15 12 12 11 13 11 11 11 11 14 15 14
32 33 32 32 31 28 26 29 30 29 34 36 36 35 35 33 30 28 25 22 19 19 18 17 16 14 13 12 13 14 15 14 13 13 13 15 14 13 11 7 12 16 19
33 34 33 34 35 32 32 31 30 32 32 36 38 37 36 34 33 31 28 25 23 21 20 20 19 18 16 14 15 15 16 16 15 13 14 14 16 16 15 13 12 11 17
37 39 36 32 32 30 28 31 32 32 34 35 38 38 36 36 35 34 32 30 27 25 23 21 20 20 17 16 16 17 18 18 17 16 14 14 15 16 17 15 14 13 16
35 37 39 38 36 35 32 28 30 32 34 34 37 38 37 37 37 36 35 33 31 29 26 24 23 21 21 20 19 18 19 20 19 18 16 14 16 16 16 18 16 16 17
40 39 40 43 42 39 33 30 27 27 32 37 37 38 38 39 38 38 37 36 34 33 31 29 27 25 24 24 23 22 21 20 21 20 19 17 16 17 19 19 20 18 20
44 44 43 43 41 37 35 34 33 27 28 34 38 38 40 40 40 40 40 39 38 37 34 33 31 29 27 27 27 26 24 22 22 22 21 19 18 18 19 21 21 20 19
43 44 43 40 36 32 33 36 33 29 28 27 34 40 39 39 39 41 42 42 41 39 38 37 34 33 33 32 31 30 28 27 25 24 22 21 20 19 19 20 21 23 21
42 44 43 44 39 34 33 38 35 31 31 32 32 36 39 39 41 43 44 44 42 43 42 40 38 34 37 36 35 34 33 31 30 28 26 23 21 21 19 19 22 23 23
44 45 44 43 40 33 34 35 35 35 35 33 35 37 36 38 42 43 43 45 45 46 46 53 43 46 43 40 37 37 36 36 35 33 31 28 25 23 20 20 23 24 25
45 46 46 43 36 33 36 35 36 39 42 43 41 38 39 38 40 42 43 44 43 45 43 36 41 56 59 44 37 37 38 38 38 37 35 33 30 28 23 20 22 24 27
48 49 46 41 36 36 37 38 37 39 38 41 42 40 40 41 42 41 42 44 44 43 43 40 40 38 42 41 43 52 45 39 39 39 41 38 34 30 27 23 21 23 26
47 46 43 40 39 39 38 38 37 38 34 37 39 41 40 40 42 45 46 46 46 46 46 45 43 43 44 41 41 42 44 46 52 52 42 44 38 32 29 27 23 24 25
40 39 38 38 38 38 37 35 34 38 34 31 35 37 38 40 41 42 44 46 47 49 50 49 49 47 47 48 46 44 46 47 45 33 41 50 40 34 31 28 25 26 27
32 30 34 33 31 31 28 28 37 36 31 30 29 31 33 37 40 42 43 45 46 47 49 49 50 52 51 53 52 49 50 48 50 48 37 39 38 31 33 32 30 28 28
44 29 27 25 25 25 25 23 29 32 31 29 29 30 31 34 36 39 42 44 45 46 48 49 49 51 53 53 54 52 54 53 50 47 51 44 50 35 31 38 36 31 31
32 29 33 25 23 23 24 28 35 36 34 33 33 32 31 33 33 35 39 41 43 44 45 47 49 50 51 51 51 53 55 53 53 51 48 45 41 44 41 42 43 34 34

GFSSE_700_spd_120.txt.gz
Wind_Speed
12 12 12 12 11 13 12 9 7 6 5 5 6 6 6 6 7 7 5 4 5 4 5 8 8 7 6 6 6 5 5 5 4 3 3 2 1 2 3 3 4 5 5
11 12 11 12 12 13 14 13 11 10 8 8 8 6 5 6 6 6 6 5 4 4 6 7 7 6 6 6 6 6 6 5 4 5 4 3 2 3 4 3 3 3 4
9 9 8 10 13 15 16 16 15 14 12 10 10 10 9 8 8 8 7 7 6 5 5 6 7 7 8 8 7 6 5 3 4 5 4 3 4 4 3 3 4 4 3
6 6 8 10 12 17 18 19 19 17 15 14 12 12 12 11 9 10 9 8 7 6 6 6 7 8 8 9 8 7 5 3 4 4 2 3 5 5 5 4 2 2 1
7 7 7 8 11 16 21 21 22 21 20 18 15 14 12 12 11 10 11 10 9 8 7 7 8 8 8 9 9 8 6 3 4 4 2 3 3 5 4 6 4 5 4
12 12 13 14 16 16 22 25 25 25 24 22 20 18 16 15 13 11 11 12 11 10 9 8 8 9 9 9 9 9 7 5 4 4 4 3 3 3 3 5 6 5 5
16 15 14 14 13 16 16 26 29 28 27 26 24 22 20 19 17 14 12 12 13 12 11 10 9 9 10 10 9 9 8 7 5 6 7 5 4 6 5 8 6 7 7
19 17 16 14 15 15 17 20 26 30 29 28 27 26 24 23 21 19 17 14 14 14 14 12 11 11 10 10 10 10 9 8 7 7 8 8 6 5 8 8 12 10 8
20 19 19 19 20 19 18 19 23 27 32 32 30 29 27 26 25 23 21 18 16 15 15 14 13 12 12 11 11 11 10 9 8 9 9 10 8 7 7 5 6 12 10
18 20 23 25 27 25 24 23 22 26 29 34 34 32 31 29 28 26 24 23 20 17 17 16 15 15 14 14 13 12 10 10 9 10 11 12 11 10 11 9 9 12 11
22 23 24 25 27 27 27 26 26 25 28 31 36 36 34 33 31 29 28 26 24 21 19 19 19 18 17 16 15 14 12 11 10 10 11 13 13 13 12 11 8 10 13
25 26 28 30 30 31 29 26 26 29 30 31 33 37 37 36 34 32 30 29 28 26 24 22 22 20 20 18 17 17 14 13 11 10 11 13 14 15 15 14 13 13 14
27 28 30 32 33 30 31 32 29 28 32 34 33 35 38 38 36 35 33 32 31 30 28 26 25 23 20 20 20 19 17 16 14 12 11 12 14 16 16 16 15 15 16
34 30 31 33 34 34 35 33 34 31 29 32 34 36 38 39 38 37 36 35 34 32 31 30 28 26 24 23 23 22 21 19 16 15 14 12 14 16 17 17 17 18 18
39 38 35 35 34 34 33 35 36 32 28 28 32 35 39 40 40 39 39 38 36 34 34 33 31 30 29 27 26 26 24 22 20 19 17 16 14 14 16 18 19 19 20
43 42 40 36 39 36 33 30 32 33 32 32 29 31 38 41 42 42 43 42 41 39 37 35 34 34 33 32 30 29 28 27 25 24 21 19 16 16 16 17 20 21 21
40 38 38 38 36 36 33 31 33 34 34 30 26 24 29 39 42 43 44 46 45 43 39 39 39 38 36 35 34 33 33 32 30 28 25 23 20 19 18 17 18 21 21
40 38 36 35 32 34 32 33 32 33 34 31 28 27 29 31 37 42 45 45 45 45 43 43 43 42 41 40 37 34 36 36 35 34 31 27 25 23 22 21 20 20 22
43 43 37 31 30 31 35 34 32 32 31 30 30 32 34 34 34 37 41 41 43 44 46 45 44 45 46 51 55 47 37 36 38 36 36 33 31 28 27 26 24 23 23
41 42 38 32 31 33 35 35 33 32 32 32 34 37 40 41 39 39 41 44 48 46 44 42 45 46 48 45 59 57 53 47 43 37 37 37 33 29 29 27 27 25 24
33 35 35 34 34 35 36 35 34 33 34 34 37 40 40 38 37 38 42 43 44 47 46 45 44 40 44 37 44 47 53 42 60 48 44 37 36 37 40 34 31 30 27
26 31 33 36 37 37 36 35 34 33 34 35 36 40 40 39 39 39 40 43 46 46 47 45 45 45 45 40 38 38 44 38 42 56 53 49 48 52 47 41 36 34 31
26 33 36 37 38 36 34 32 33 34 35 32 37 41 37 38 39 40 41 41 43 47 48 48 48 47 46 43 40 41 40 41 38 44 45 39 42 43 44 42 46 36 32
29 34 36 36 40 32 32 30 33 34 33 37 36 34 33 33 35 36 39 41 41 43 45 46 47 49 49 48 48 46 47 46 47 51 49 43 39 36 35 38 34 40 33
33 36 36 34 37 16 22 27 32 28 36 34 34 32 34 32 33 34 36 38 39 39 41 43 44 45 47 48 48 49 48 49 50 51 52 48 47 43 36 37 34 43 36
31 36 34 33 30 33 25 23 25 26 30 34 39 36 35 32 34 36 35 37 38 39 40 40 41 42 44 45 46 48 50 50 52 52 52 51 49 47 40 42 36 46 44

GFSSE_700_spd_123.txt.gz
Wind_Speed
11 12 11 9 9 10 8 6 5 4 1 4 7 8 8 10 11 11 10 9 7 5 3 5 5 6 6 6 6 5 4 3 4 3 3 2 1 1 2 3 5 7 6
7 12 11 10 9 10 10 9 8 7 5 4 7 8 9 11 11 11 10 9 8 6 5 5 5 6 6 5 4 4 3 3 4 4 4 3 3 2 3 3 4 5 5
6 8 9 9 10 11 12 12 11 10 10 9 8 9 10 9 11 11 10 10 8 7 5 5 6 6 6 5 5 4 4 3 4 4 3 4 4 3 2 2 4 4 5
1 3 5 7 9 12 15 15 15 14 13 13 12 10 10 10 10 11 11 11 11 9 8 6 5 6 6 6 6 5 4 4 4 3 3 4 4 3 3 4 4 4 4
1 3 4 5 6 10 16 18 18 18 17 16 16 14 12 11 10 11 11 12 12 11 10 8 7 5 5 5 6 6 4 4 4 3 3 4 3 4 5 6 5 5 4
7 7 8 9 9 10 12 18 21 21 21 20 19 18 16 15 13 12 11 12 12 12 12 11 9 7 6 5 6 6 5 4 5 5 4 4 4 4 6 5 6 5 5
9 10 9 8 7 7 9 13 20 24 23 23 23 22 20 19 17 16 13 12 11 11 12 12 11 9 7 6 6 6 5 4 5 6 5 5 4 6 7 5 6 8 7
10 9 10 10 9 10 11 12 15 21 26 27 26 25 24 23 21 20 18 15 13 12 12 12 12 11 9 7 6 6 6 5 6 7 8 6 4 5 7 7 8 9 9
11 11 10 11 12 13 14 15 17 18 23 28 30 29 28 26 25 23 21 20 17 15 14 13 13 12 11 10 9 7 6 6 6 7 9 8 6 7 8 6 4 8 12
14 15 15 15 15 15 15 16 18 19 19 25 29 33 32 30 29 27 25 24 22 20 18 17 16 15 14 12 11 10 8 6 7 8 9 11 9 9 10 9 8 9 12
21 20 20 20 19 18 19 19 18 17 20 24 28 31 35 35 33 31 29 27 26 24 22 21 20 19 17 16 14 12 9 9 8 8 9 11 12 12 11 12 10 8 13
26 26 25 22 21 22 24 23 21 20 20 21 26 31 34 36 36 35 33 31 29 28 27 26 24 23 22 19 17 15 12 12 10 9 10 10 11 13 13 12 12 11 13
30 29 30 30 27 27 28 28 27 25 25 26 24 28 33 36 38 38 37 35 33 32 31 30 29 27 25 23 21 18 17 16 13 13 12 13 12 12 13 13 13 15 16
36 34 32 31 32 31 32 32 35 29 28 27 25 26 29 34 38 39 38 38 37 35 33 33 32 30 30 28 26 23 21 20 18 16 16 16 14 13 14 14 15 15 17
43 42 42 38 35 34 31 33 31 28 25 25 24 24 26 31 36 40 40 41 40 38 37 36 34 34 33 32 30 28 25 24 22 21 19 18 17 17 16 16 16 17 18
40 41 40 40 39 38 34 36 32 29 27 25 26 27 27 28 32 36 41 43 43 43 42 40 38 37 37 37 35 33 31 29 28 26 24 22 21 20 20 19 17 19 20
37 36 35 35 33 35 39 36 33 28 25 26 30 30 29 25 23 32 38 42 44 45 45 44 42 42 42 42 40 38 36 33 32 30 29 26 25 24 24 24 22 20 21
37 37 35 34 34 28 31 32 31 25 27 27 27 29 26 24 23 26 28 35 42 46 46 45 45 45 44 45 44 43 41 37 36 35 32 31 30 30 28 28 26 26 25
33 33 33 33 32 31 24 27 27 27 27 29 25 25 25 26 27 30 32 33 34 40 46 47 46 47 48 47 46 44 43 41 39 35 45 37 34 33 32 31 32 30 28
33 33 33 30 25 20 21 28 31 31 32 30 28 27 27 27 31 32 33 35 36 38 39 41 41 44 50 52 44 50 47 47 46 41 52 45 41 37 38 34 34 32 31
29 30 29 29 24 22 24 29 32 35 35 33 31 30 29 30 32 36 37 34 35 36 40 41 43 43 46 47 50 49 56 67 60 38 66 43 45 46 44 39 41 35 33
24 25 25 25 26 27 29 33 36 38 36 33 32 30 30 32 36 38 35 34 34 35 36 39 43 43 43 44 44 47 30 36 31 31 31 35 54 53 51 49 42 36 42
20 21 22 24 27 30 34 34 36 36 36 31 30 28 30 33 37 39 35 33 34 35 36 38 41 44 46 47 46 45 46 47 38 35 33 30 35 43 54 56 36 31 38
24 26 26 25 28 32 36 36 35 29 34 30 28 30 29 31 38 38 35 33 32 33 35 37 39 42 45 46 46 47 44 46 43 44 42 39 38 37 45 46 42 36 37
25 24 32 30 28 31 35 40 38 38 30 25 27 29 29 35 38 40 38 38 37 35 34 35 37 39 41 44 44 45 46 46 45 46 48 46 45 43 42 44 45 41 35
31 30 36 34 32 32 41 40 42 32 27 22 27 27 31 37 37 38 41 40 37 36 35 36 36 37 38 40 41 42 44 45 46 46 49 49 48 49 46 44 42 39 38